<?xml version="1.0"?>
<gpx xmlns="http://www.topografix.com/GPX/1/1" version="1.1" creator="afstandmeten.nl" xmlns:xsi="http://www.w3.org/2001/XMLSchema-instance" xsi:schemaLocation="http://www.topografix.com/GPX/1/1 http://www.topografix.com/GPX/1/1/gpx.xsd">
  <trk>
    <name>Internationale Rit 2018 - alternatief 6</name>
    <desc></desc>
    <trkseg>
      <trkpt lat="52.1758466" lon="5.4764391">
        <time>2018-04-24T00:00:00Z</time>
      </trkpt>
      <trkpt lat="52.1754" lon="5.47642">
        <time>2018-04-24T00:00:02Z</time>
      </trkpt>
      <trkpt lat="52.1754" lon="5.47642">
        <time>2018-04-24T00:00:02Z</time>
      </trkpt>
      <trkpt lat="52.1754" lon="5.47642">
        <time>2018-04-24T00:00:02Z</time>
      </trkpt>
      <trkpt lat="52.17546" lon="5.47558">
        <time>2018-04-24T00:00:03Z</time>
      </trkpt>
      <trkpt lat="52.17546" lon="5.47558">
        <time>2018-04-24T00:00:03Z</time>
      </trkpt>
      <trkpt lat="52.17559" lon="5.47466">
        <time>2018-04-24T00:00:05Z</time>
      </trkpt>
      <trkpt lat="52.17559" lon="5.47466">
        <time>2018-04-24T00:00:05Z</time>
      </trkpt>
      <trkpt lat="52.17542" lon="5.47266">
        <time>2018-04-24T00:00:08Z</time>
      </trkpt>
      <trkpt lat="52.17538" lon="5.47211">
        <time>2018-04-24T00:00:09Z</time>
      </trkpt>
      <trkpt lat="52.17536" lon="5.47212">
        <time>2018-04-24T00:00:09Z</time>
      </trkpt>
      <trkpt lat="52.17534" lon="5.47211">
        <time>2018-04-24T00:00:09Z</time>
      </trkpt>
      <trkpt lat="52.17532" lon="5.4721">
        <time>2018-04-24T00:00:09Z</time>
      </trkpt>
      <trkpt lat="52.17528" lon="5.47207">
        <time>2018-04-24T00:00:09Z</time>
      </trkpt>
      <trkpt lat="52.17525" lon="5.47201">
        <time>2018-04-24T00:00:09Z</time>
      </trkpt>
      <trkpt lat="52.17524" lon="5.47195">
        <time>2018-04-24T00:00:09Z</time>
      </trkpt>
      <trkpt lat="52.17469" lon="5.47198">
        <time>2018-04-24T00:00:11Z</time>
      </trkpt>
      <trkpt lat="52.17453" lon="5.47197">
        <time>2018-04-24T00:00:11Z</time>
      </trkpt>
      <trkpt lat="52.17439" lon="5.47192">
        <time>2018-04-24T00:00:12Z</time>
      </trkpt>
      <trkpt lat="52.17419" lon="5.47183">
        <time>2018-04-24T00:00:12Z</time>
      </trkpt>
      <trkpt lat="52.17389" lon="5.4716">
        <time>2018-04-24T00:00:13Z</time>
      </trkpt>
      <trkpt lat="52.17362" lon="5.47124">
        <time>2018-04-24T00:00:14Z</time>
      </trkpt>
      <trkpt lat="52.17348" lon="5.471">
        <time>2018-04-24T00:00:14Z</time>
      </trkpt>
      <trkpt lat="52.17335" lon="5.47069">
        <time>2018-04-24T00:00:15Z</time>
      </trkpt>
      <trkpt lat="52.17331" lon="5.47055">
        <time>2018-04-24T00:00:15Z</time>
      </trkpt>
      <trkpt lat="52.17302" lon="5.46969">
        <time>2018-04-24T00:00:17Z</time>
      </trkpt>
      <trkpt lat="52.17302" lon="5.46969">
        <time>2018-04-24T00:00:17Z</time>
      </trkpt>
      <trkpt lat="52.17289" lon="5.46934">
        <time>2018-04-24T00:00:17Z</time>
      </trkpt>
      <trkpt lat="52.17277" lon="5.46918">
        <time>2018-04-24T00:00:18Z</time>
      </trkpt>
      <trkpt lat="52.17264" lon="5.4691">
        <time>2018-04-24T00:00:18Z</time>
      </trkpt>
      <trkpt lat="52.17255" lon="5.46908">
        <time>2018-04-24T00:00:19Z</time>
      </trkpt>
      <trkpt lat="52.17154" lon="5.46914">
        <time>2018-04-24T00:00:21Z</time>
      </trkpt>
      <trkpt lat="52.17092" lon="5.4692">
        <time>2018-04-24T00:00:23Z</time>
      </trkpt>
      <trkpt lat="52.17048" lon="5.46927">
        <time>2018-04-24T00:00:24Z</time>
      </trkpt>
      <trkpt lat="52.16981" lon="5.46945">
        <time>2018-04-24T00:00:26Z</time>
      </trkpt>
      <trkpt lat="52.16972" lon="5.46945">
        <time>2018-04-24T00:00:26Z</time>
      </trkpt>
      <trkpt lat="52.16958" lon="5.46939">
        <time>2018-04-24T00:00:26Z</time>
      </trkpt>
      <trkpt lat="52.16945" lon="5.46926">
        <time>2018-04-24T00:00:27Z</time>
      </trkpt>
      <trkpt lat="52.16937" lon="5.46913">
        <time>2018-04-24T00:00:27Z</time>
      </trkpt>
      <trkpt lat="52.16927" lon="5.46884">
        <time>2018-04-24T00:00:28Z</time>
      </trkpt>
      <trkpt lat="52.16927" lon="5.46881">
        <time>2018-04-24T00:00:28Z</time>
      </trkpt>
      <trkpt lat="52.16914" lon="5.46886">
        <time>2018-04-24T00:00:28Z</time>
      </trkpt>
      <trkpt lat="52.16899" lon="5.46892">
        <time>2018-04-24T00:00:28Z</time>
      </trkpt>
      <trkpt lat="52.16891" lon="5.46898">
        <time>2018-04-24T00:00:29Z</time>
      </trkpt>
      <trkpt lat="52.16888" lon="5.46909">
        <time>2018-04-24T00:00:29Z</time>
      </trkpt>
      <trkpt lat="52.16887" lon="5.46928">
        <time>2018-04-24T00:00:29Z</time>
      </trkpt>
      <trkpt lat="52.16884" lon="5.46974">
        <time>2018-04-24T00:00:30Z</time>
      </trkpt>
      <trkpt lat="52.16874" lon="5.46986">
        <time>2018-04-24T00:00:30Z</time>
      </trkpt>
      <trkpt lat="52.1681" lon="5.46993">
        <time>2018-04-24T00:00:32Z</time>
      </trkpt>
      <trkpt lat="52.16779" lon="5.47002">
        <time>2018-04-24T00:00:33Z</time>
      </trkpt>
      <trkpt lat="52.16773" lon="5.47005">
        <time>2018-04-24T00:00:33Z</time>
      </trkpt>
      <trkpt lat="52.16772" lon="5.47024">
        <time>2018-04-24T00:00:33Z</time>
      </trkpt>
      <trkpt lat="52.16767" lon="5.47068">
        <time>2018-04-24T00:00:34Z</time>
      </trkpt>
      <trkpt lat="52.16764" lon="5.47121">
        <time>2018-04-24T00:00:35Z</time>
      </trkpt>
      <trkpt lat="52.16754" lon="5.47265">
        <time>2018-04-24T00:00:37Z</time>
      </trkpt>
      <trkpt lat="52.16754" lon="5.47265">
        <time>2018-04-24T00:00:37Z</time>
      </trkpt>
      <trkpt lat="52.16746" lon="5.47355">
        <time>2018-04-24T00:00:39Z</time>
      </trkpt>
      <trkpt lat="52.16739" lon="5.47416">
        <time>2018-04-24T00:00:40Z</time>
      </trkpt>
      <trkpt lat="52.16736" lon="5.47475">
        <time>2018-04-24T00:00:41Z</time>
      </trkpt>
      <trkpt lat="52.16736" lon="5.47616">
        <time>2018-04-24T00:00:43Z</time>
      </trkpt>
      <trkpt lat="52.16736" lon="5.47704">
        <time>2018-04-24T00:00:44Z</time>
      </trkpt>
      <trkpt lat="52.16739" lon="5.47719">
        <time>2018-04-24T00:00:45Z</time>
      </trkpt>
      <trkpt lat="52.16754" lon="5.4773">
        <time>2018-04-24T00:00:45Z</time>
      </trkpt>
      <trkpt lat="52.16764" lon="5.47737">
        <time>2018-04-24T00:00:45Z</time>
      </trkpt>
      <trkpt lat="52.16778" lon="5.47754">
        <time>2018-04-24T00:00:46Z</time>
      </trkpt>
      <trkpt lat="52.16794" lon="5.4778">
        <time>2018-04-24T00:00:46Z</time>
      </trkpt>
      <trkpt lat="52.16794" lon="5.4778">
        <time>2018-04-24T00:00:46Z</time>
      </trkpt>
      <trkpt lat="52.16885" lon="5.47911">
        <time>2018-04-24T00:00:50Z</time>
      </trkpt>
      <trkpt lat="52.16864" lon="5.47984">
        <time>2018-04-24T00:00:51Z</time>
      </trkpt>
      <trkpt lat="52.16825" lon="5.48116">
        <time>2018-04-24T00:00:53Z</time>
      </trkpt>
      <trkpt lat="52.16851" lon="5.48144">
        <time>2018-04-24T00:00:54Z</time>
      </trkpt>
      <trkpt lat="52.16875" lon="5.48173">
        <time>2018-04-24T00:00:55Z</time>
      </trkpt>
      <trkpt lat="52.16912" lon="5.48224">
        <time>2018-04-24T00:00:56Z</time>
      </trkpt>
      <trkpt lat="52.16956" lon="5.48267">
        <time>2018-04-24T00:00:57Z</time>
      </trkpt>
      <trkpt lat="52.16996" lon="5.48297">
        <time>2018-04-24T00:00:59Z</time>
      </trkpt>
      <trkpt lat="52.17026" lon="5.48311">
        <time>2018-04-24T00:00:59Z</time>
      </trkpt>
      <trkpt lat="52.1704" lon="5.48311">
        <time>2018-04-24T00:01:00Z</time>
      </trkpt>
      <trkpt lat="52.17046" lon="5.48315">
        <time>2018-04-24T00:01:00Z</time>
      </trkpt>
      <trkpt lat="52.17062" lon="5.48344">
        <time>2018-04-24T00:01:01Z</time>
      </trkpt>
      <trkpt lat="52.17155" lon="5.48454">
        <time>2018-04-24T00:01:04Z</time>
      </trkpt>
      <trkpt lat="52.17155" lon="5.48454">
        <time>2018-04-24T00:01:04Z</time>
      </trkpt>
      <trkpt lat="52.17171" lon="5.48473">
        <time>2018-04-24T00:01:04Z</time>
      </trkpt>
      <trkpt lat="52.1717309" lon="5.4847534">
        <time>2018-04-24T00:01:04Z</time>
      </trkpt>
      <trkpt lat="52.17165" lon="5.48488">
        <time>2018-04-24T00:01:05Z</time>
      </trkpt>
      <trkpt lat="52.17159" lon="5.48505">
        <time>2018-04-24T00:01:05Z</time>
      </trkpt>
      <trkpt lat="52.17153" lon="5.48543">
        <time>2018-04-24T00:01:06Z</time>
      </trkpt>
      <trkpt lat="52.17151" lon="5.48586">
        <time>2018-04-24T00:01:06Z</time>
      </trkpt>
      <trkpt lat="52.1715" lon="5.48638">
        <time>2018-04-24T00:01:07Z</time>
      </trkpt>
      <trkpt lat="52.17138" lon="5.48686">
        <time>2018-04-24T00:01:08Z</time>
      </trkpt>
      <trkpt lat="52.17048" lon="5.48956">
        <time>2018-04-24T00:01:13Z</time>
      </trkpt>
      <trkpt lat="52.17005" lon="5.49053">
        <time>2018-04-24T00:01:15Z</time>
      </trkpt>
      <trkpt lat="52.16871" lon="5.49332">
        <time>2018-04-24T00:01:21Z</time>
      </trkpt>
      <trkpt lat="52.16741" lon="5.49621">
        <time>2018-04-24T00:01:26Z</time>
      </trkpt>
      <trkpt lat="52.16734" lon="5.49651">
        <time>2018-04-24T00:01:27Z</time>
      </trkpt>
      <trkpt lat="52.16734" lon="5.49679">
        <time>2018-04-24T00:01:27Z</time>
      </trkpt>
      <trkpt lat="52.1674" lon="5.49816">
        <time>2018-04-24T00:01:30Z</time>
      </trkpt>
      <trkpt lat="52.16739" lon="5.49875">
        <time>2018-04-24T00:01:31Z</time>
      </trkpt>
      <trkpt lat="52.1673" lon="5.50024">
        <time>2018-04-24T00:01:33Z</time>
      </trkpt>
      <trkpt lat="52.16718" lon="5.50133">
        <time>2018-04-24T00:01:35Z</time>
      </trkpt>
      <trkpt lat="52.16689" lon="5.50279">
        <time>2018-04-24T00:01:37Z</time>
      </trkpt>
      <trkpt lat="52.16675" lon="5.50362">
        <time>2018-04-24T00:01:39Z</time>
      </trkpt>
      <trkpt lat="52.16674" lon="5.50443">
        <time>2018-04-24T00:01:40Z</time>
      </trkpt>
      <trkpt lat="52.16674" lon="5.50478">
        <time>2018-04-24T00:01:40Z</time>
      </trkpt>
      <trkpt lat="52.16621" lon="5.50712">
        <time>2018-04-24T00:01:45Z</time>
      </trkpt>
      <trkpt lat="52.16604" lon="5.50781">
        <time>2018-04-24T00:01:46Z</time>
      </trkpt>
      <trkpt lat="52.16604" lon="5.50781">
        <time>2018-04-24T00:01:46Z</time>
      </trkpt>
      <trkpt lat="52.16572" lon="5.50934">
        <time>2018-04-24T00:01:48Z</time>
      </trkpt>
      <trkpt lat="52.16553" lon="5.51033">
        <time>2018-04-24T00:01:50Z</time>
      </trkpt>
      <trkpt lat="52.16547" lon="5.51053">
        <time>2018-04-24T00:01:50Z</time>
      </trkpt>
      <trkpt lat="52.16531" lon="5.51091">
        <time>2018-04-24T00:01:51Z</time>
      </trkpt>
      <trkpt lat="52.16494" lon="5.51154">
        <time>2018-04-24T00:01:53Z</time>
      </trkpt>
      <trkpt lat="52.16445" lon="5.51225">
        <time>2018-04-24T00:01:54Z</time>
      </trkpt>
      <trkpt lat="52.16428" lon="5.5126">
        <time>2018-04-24T00:01:55Z</time>
      </trkpt>
      <trkpt lat="52.16391" lon="5.51341">
        <time>2018-04-24T00:01:57Z</time>
      </trkpt>
      <trkpt lat="52.16344" lon="5.51446">
        <time>2018-04-24T00:01:59Z</time>
      </trkpt>
      <trkpt lat="52.1631" lon="5.51525">
        <time>2018-04-24T00:02:00Z</time>
      </trkpt>
      <trkpt lat="52.16308" lon="5.5154">
        <time>2018-04-24T00:02:01Z</time>
      </trkpt>
      <trkpt lat="52.16309" lon="5.516">
        <time>2018-04-24T00:02:02Z</time>
      </trkpt>
      <trkpt lat="52.16309" lon="5.51669">
        <time>2018-04-24T00:02:03Z</time>
      </trkpt>
      <trkpt lat="52.16316" lon="5.51694">
        <time>2018-04-24T00:02:03Z</time>
      </trkpt>
      <trkpt lat="52.16352" lon="5.51738">
        <time>2018-04-24T00:02:04Z</time>
      </trkpt>
      <trkpt lat="52.16387" lon="5.51806">
        <time>2018-04-24T00:02:06Z</time>
      </trkpt>
      <trkpt lat="52.16411" lon="5.51874">
        <time>2018-04-24T00:02:07Z</time>
      </trkpt>
      <trkpt lat="52.16419" lon="5.5194">
        <time>2018-04-24T00:02:08Z</time>
      </trkpt>
      <trkpt lat="52.16425" lon="5.51994">
        <time>2018-04-24T00:02:09Z</time>
      </trkpt>
      <trkpt lat="52.164" lon="5.52003">
        <time>2018-04-24T00:02:10Z</time>
      </trkpt>
      <trkpt lat="52.16382" lon="5.52011">
        <time>2018-04-24T00:02:10Z</time>
      </trkpt>
      <trkpt lat="52.1637" lon="5.52027">
        <time>2018-04-24T00:02:11Z</time>
      </trkpt>
      <trkpt lat="52.16364" lon="5.52042">
        <time>2018-04-24T00:02:11Z</time>
      </trkpt>
      <trkpt lat="52.16361" lon="5.52074">
        <time>2018-04-24T00:02:11Z</time>
      </trkpt>
      <trkpt lat="52.16357" lon="5.52163">
        <time>2018-04-24T00:02:13Z</time>
      </trkpt>
      <trkpt lat="52.16353" lon="5.52212">
        <time>2018-04-24T00:02:14Z</time>
      </trkpt>
      <trkpt lat="52.16348" lon="5.52234">
        <time>2018-04-24T00:02:14Z</time>
      </trkpt>
      <trkpt lat="52.1634" lon="5.52248">
        <time>2018-04-24T00:02:14Z</time>
      </trkpt>
      <trkpt lat="52.16329" lon="5.52257">
        <time>2018-04-24T00:02:15Z</time>
      </trkpt>
      <trkpt lat="52.16293" lon="5.52261">
        <time>2018-04-24T00:02:16Z</time>
      </trkpt>
      <trkpt lat="52.16293" lon="5.52261">
        <time>2018-04-24T00:02:16Z</time>
      </trkpt>
      <trkpt lat="52.16237" lon="5.52265">
        <time>2018-04-24T00:02:17Z</time>
      </trkpt>
      <trkpt lat="52.162" lon="5.52266">
        <time>2018-04-24T00:02:18Z</time>
      </trkpt>
      <trkpt lat="52.16191" lon="5.52263">
        <time>2018-04-24T00:02:18Z</time>
      </trkpt>
      <trkpt lat="52.16181" lon="5.52253">
        <time>2018-04-24T00:02:19Z</time>
      </trkpt>
      <trkpt lat="52.16172" lon="5.52241">
        <time>2018-04-24T00:02:19Z</time>
      </trkpt>
      <trkpt lat="52.16163" lon="5.52215">
        <time>2018-04-24T00:02:19Z</time>
      </trkpt>
      <trkpt lat="52.16093" lon="5.52002">
        <time>2018-04-24T00:02:23Z</time>
      </trkpt>
      <trkpt lat="52.16058" lon="5.51885">
        <time>2018-04-24T00:02:25Z</time>
      </trkpt>
      <trkpt lat="52.16049" lon="5.51867">
        <time>2018-04-24T00:02:26Z</time>
      </trkpt>
      <trkpt lat="52.16042" lon="5.51837">
        <time>2018-04-24T00:02:26Z</time>
      </trkpt>
      <trkpt lat="52.16036" lon="5.51806">
        <time>2018-04-24T00:02:27Z</time>
      </trkpt>
      <trkpt lat="52.16032" lon="5.51751">
        <time>2018-04-24T00:02:28Z</time>
      </trkpt>
      <trkpt lat="52.16026" lon="5.51608">
        <time>2018-04-24T00:02:30Z</time>
      </trkpt>
      <trkpt lat="52.16023" lon="5.51561">
        <time>2018-04-24T00:02:31Z</time>
      </trkpt>
      <trkpt lat="52.16016" lon="5.51532">
        <time>2018-04-24T00:02:31Z</time>
      </trkpt>
      <trkpt lat="52.16" lon="5.51513">
        <time>2018-04-24T00:02:32Z</time>
      </trkpt>
      <trkpt lat="52.15935" lon="5.51464">
        <time>2018-04-24T00:02:34Z</time>
      </trkpt>
      <trkpt lat="52.15858" lon="5.51403">
        <time>2018-04-24T00:02:36Z</time>
      </trkpt>
      <trkpt lat="52.15838" lon="5.51411">
        <time>2018-04-24T00:02:37Z</time>
      </trkpt>
      <trkpt lat="52.15795" lon="5.51501">
        <time>2018-04-24T00:02:38Z</time>
      </trkpt>
      <trkpt lat="52.15733" lon="5.51621">
        <time>2018-04-24T00:02:41Z</time>
      </trkpt>
      <trkpt lat="52.15619" lon="5.51857">
        <time>2018-04-24T00:02:46Z</time>
      </trkpt>
      <trkpt lat="52.15551" lon="5.52152">
        <time>2018-04-24T00:02:51Z</time>
      </trkpt>
      <trkpt lat="52.15507" lon="5.52343">
        <time>2018-04-24T00:02:54Z</time>
      </trkpt>
      <trkpt lat="52.15488" lon="5.52405">
        <time>2018-04-24T00:02:55Z</time>
      </trkpt>
      <trkpt lat="52.15482" lon="5.52415">
        <time>2018-04-24T00:02:56Z</time>
      </trkpt>
      <trkpt lat="52.15472" lon="5.52425">
        <time>2018-04-24T00:02:56Z</time>
      </trkpt>
      <trkpt lat="52.15399" lon="5.52484">
        <time>2018-04-24T00:02:58Z</time>
      </trkpt>
      <trkpt lat="52.15315" lon="5.52551">
        <time>2018-04-24T00:03:00Z</time>
      </trkpt>
      <trkpt lat="52.15297" lon="5.5257">
        <time>2018-04-24T00:03:01Z</time>
      </trkpt>
      <trkpt lat="52.15245" lon="5.52621">
        <time>2018-04-24T00:03:03Z</time>
      </trkpt>
      <trkpt lat="52.15201" lon="5.52669">
        <time>2018-04-24T00:03:04Z</time>
      </trkpt>
      <trkpt lat="52.15177" lon="5.52696">
        <time>2018-04-24T00:03:05Z</time>
      </trkpt>
      <trkpt lat="52.15159" lon="5.52729">
        <time>2018-04-24T00:03:05Z</time>
      </trkpt>
      <trkpt lat="52.15087" lon="5.5297">
        <time>2018-04-24T00:03:10Z</time>
      </trkpt>
      <trkpt lat="52.15063" lon="5.53056">
        <time>2018-04-24T00:03:11Z</time>
      </trkpt>
      <trkpt lat="52.15033" lon="5.53135">
        <time>2018-04-24T00:03:13Z</time>
      </trkpt>
      <trkpt lat="52.1502" lon="5.53174">
        <time>2018-04-24T00:03:14Z</time>
      </trkpt>
      <trkpt lat="52.15012" lon="5.53253">
        <time>2018-04-24T00:03:15Z</time>
      </trkpt>
      <trkpt lat="52.15017" lon="5.53346">
        <time>2018-04-24T00:03:16Z</time>
      </trkpt>
      <trkpt lat="52.15019" lon="5.53383">
        <time>2018-04-24T00:03:17Z</time>
      </trkpt>
      <trkpt lat="52.15016" lon="5.53413">
        <time>2018-04-24T00:03:17Z</time>
      </trkpt>
      <trkpt lat="52.14931" lon="5.53797">
        <time>2018-04-24T00:03:24Z</time>
      </trkpt>
      <trkpt lat="52.14918" lon="5.53842">
        <time>2018-04-24T00:03:25Z</time>
      </trkpt>
      <trkpt lat="52.14876" lon="5.53953">
        <time>2018-04-24T00:03:27Z</time>
      </trkpt>
      <trkpt lat="52.14871" lon="5.5397">
        <time>2018-04-24T00:03:27Z</time>
      </trkpt>
      <trkpt lat="52.1487" lon="5.53983">
        <time>2018-04-24T00:03:28Z</time>
      </trkpt>
      <trkpt lat="52.14874" lon="5.54003">
        <time>2018-04-24T00:03:28Z</time>
      </trkpt>
      <trkpt lat="52.14879" lon="5.54021">
        <time>2018-04-24T00:03:28Z</time>
      </trkpt>
      <trkpt lat="52.149" lon="5.54063">
        <time>2018-04-24T00:03:29Z</time>
      </trkpt>
      <trkpt lat="52.14907" lon="5.54086">
        <time>2018-04-24T00:03:29Z</time>
      </trkpt>
      <trkpt lat="52.14908" lon="5.54108">
        <time>2018-04-24T00:03:30Z</time>
      </trkpt>
      <trkpt lat="52.14905" lon="5.5414">
        <time>2018-04-24T00:03:30Z</time>
      </trkpt>
      <trkpt lat="52.14884" lon="5.54282">
        <time>2018-04-24T00:03:33Z</time>
      </trkpt>
      <trkpt lat="52.14883" lon="5.54314">
        <time>2018-04-24T00:03:33Z</time>
      </trkpt>
      <trkpt lat="52.14884" lon="5.54388">
        <time>2018-04-24T00:03:34Z</time>
      </trkpt>
      <trkpt lat="52.14885" lon="5.54413">
        <time>2018-04-24T00:03:35Z</time>
      </trkpt>
      <trkpt lat="52.14881" lon="5.54437">
        <time>2018-04-24T00:03:35Z</time>
      </trkpt>
      <trkpt lat="52.14862" lon="5.54509">
        <time>2018-04-24T00:03:37Z</time>
      </trkpt>
      <trkpt lat="52.14857" lon="5.54521">
        <time>2018-04-24T00:03:37Z</time>
      </trkpt>
      <trkpt lat="52.14851" lon="5.54529">
        <time>2018-04-24T00:03:37Z</time>
      </trkpt>
      <trkpt lat="52.14821" lon="5.54562">
        <time>2018-04-24T00:03:38Z</time>
      </trkpt>
      <trkpt lat="52.14803" lon="5.54586">
        <time>2018-04-24T00:03:39Z</time>
      </trkpt>
      <trkpt lat="52.14787" lon="5.54613">
        <time>2018-04-24T00:03:39Z</time>
      </trkpt>
      <trkpt lat="52.14774" lon="5.54635">
        <time>2018-04-24T00:03:40Z</time>
      </trkpt>
      <trkpt lat="52.14766" lon="5.54648">
        <time>2018-04-24T00:03:40Z</time>
      </trkpt>
      <trkpt lat="52.14753" lon="5.5466">
        <time>2018-04-24T00:03:40Z</time>
      </trkpt>
      <trkpt lat="52.14715" lon="5.5467">
        <time>2018-04-24T00:03:41Z</time>
      </trkpt>
      <trkpt lat="52.14692" lon="5.54674">
        <time>2018-04-24T00:03:42Z</time>
      </trkpt>
      <trkpt lat="52.14677" lon="5.54694">
        <time>2018-04-24T00:03:42Z</time>
      </trkpt>
      <trkpt lat="52.14671" lon="5.54704">
        <time>2018-04-24T00:03:43Z</time>
      </trkpt>
      <trkpt lat="52.14668" lon="5.54723">
        <time>2018-04-24T00:03:43Z</time>
      </trkpt>
      <trkpt lat="52.14612" lon="5.55009">
        <time>2018-04-24T00:03:48Z</time>
      </trkpt>
      <trkpt lat="52.14598" lon="5.5504">
        <time>2018-04-24T00:03:49Z</time>
      </trkpt>
      <trkpt lat="52.14586" lon="5.55053">
        <time>2018-04-24T00:03:49Z</time>
      </trkpt>
      <trkpt lat="52.14569" lon="5.5506">
        <time>2018-04-24T00:03:49Z</time>
      </trkpt>
      <trkpt lat="52.14519" lon="5.55055">
        <time>2018-04-24T00:03:51Z</time>
      </trkpt>
      <trkpt lat="52.14486" lon="5.55062">
        <time>2018-04-24T00:03:52Z</time>
      </trkpt>
      <trkpt lat="52.14312" lon="5.55214">
        <time>2018-04-24T00:03:57Z</time>
      </trkpt>
      <trkpt lat="52.14246" lon="5.55267">
        <time>2018-04-24T00:03:59Z</time>
      </trkpt>
      <trkpt lat="52.14215" lon="5.55293">
        <time>2018-04-24T00:04:00Z</time>
      </trkpt>
      <trkpt lat="52.14208" lon="5.55304">
        <time>2018-04-24T00:04:00Z</time>
      </trkpt>
      <trkpt lat="52.14202" lon="5.55343">
        <time>2018-04-24T00:04:01Z</time>
      </trkpt>
      <trkpt lat="52.14167" lon="5.55691">
        <time>2018-04-24T00:04:06Z</time>
      </trkpt>
      <trkpt lat="52.14166" lon="5.5581">
        <time>2018-04-24T00:04:08Z</time>
      </trkpt>
      <trkpt lat="52.14169" lon="5.55848">
        <time>2018-04-24T00:04:09Z</time>
      </trkpt>
      <trkpt lat="52.14177" lon="5.55893">
        <time>2018-04-24T00:04:10Z</time>
      </trkpt>
      <trkpt lat="52.14181" lon="5.5595">
        <time>2018-04-24T00:04:10Z</time>
      </trkpt>
      <trkpt lat="52.14181" lon="5.5595">
        <time>2018-04-24T00:04:10Z</time>
      </trkpt>
      <trkpt lat="52.14195" lon="5.56113">
        <time>2018-04-24T00:04:13Z</time>
      </trkpt>
      <trkpt lat="52.14205" lon="5.56108">
        <time>2018-04-24T00:04:13Z</time>
      </trkpt>
      <trkpt lat="52.14215" lon="5.56106">
        <time>2018-04-24T00:04:14Z</time>
      </trkpt>
      <trkpt lat="52.14226" lon="5.56107">
        <time>2018-04-24T00:04:14Z</time>
      </trkpt>
      <trkpt lat="52.14243" lon="5.56115">
        <time>2018-04-24T00:04:14Z</time>
      </trkpt>
      <trkpt lat="52.14255" lon="5.56129">
        <time>2018-04-24T00:04:15Z</time>
      </trkpt>
      <trkpt lat="52.1429" lon="5.56176">
        <time>2018-04-24T00:04:16Z</time>
      </trkpt>
      <trkpt lat="52.14313" lon="5.56197">
        <time>2018-04-24T00:04:17Z</time>
      </trkpt>
      <trkpt lat="52.14328" lon="5.56206">
        <time>2018-04-24T00:04:17Z</time>
      </trkpt>
      <trkpt lat="52.14338" lon="5.56209">
        <time>2018-04-24T00:04:17Z</time>
      </trkpt>
      <trkpt lat="52.14533" lon="5.56226">
        <time>2018-04-24T00:04:23Z</time>
      </trkpt>
      <trkpt lat="52.14674" lon="5.5624">
        <time>2018-04-24T00:04:26Z</time>
      </trkpt>
      <trkpt lat="52.14728" lon="5.56239">
        <time>2018-04-24T00:04:28Z</time>
      </trkpt>
      <trkpt lat="52.14897" lon="5.56218">
        <time>2018-04-24T00:04:32Z</time>
      </trkpt>
      <trkpt lat="52.14914" lon="5.56208">
        <time>2018-04-24T00:04:33Z</time>
      </trkpt>
      <trkpt lat="52.1498" lon="5.56138">
        <time>2018-04-24T00:04:35Z</time>
      </trkpt>
      <trkpt lat="52.14995" lon="5.56127">
        <time>2018-04-24T00:04:35Z</time>
      </trkpt>
      <trkpt lat="52.15006" lon="5.56125">
        <time>2018-04-24T00:04:35Z</time>
      </trkpt>
      <trkpt lat="52.1502" lon="5.5613">
        <time>2018-04-24T00:04:36Z</time>
      </trkpt>
      <trkpt lat="52.15047" lon="5.56152">
        <time>2018-04-24T00:04:37Z</time>
      </trkpt>
      <trkpt lat="52.15036" lon="5.56195">
        <time>2018-04-24T00:04:37Z</time>
      </trkpt>
      <trkpt lat="52.1503" lon="5.56244">
        <time>2018-04-24T00:04:38Z</time>
      </trkpt>
      <trkpt lat="52.15025" lon="5.5631">
        <time>2018-04-24T00:04:39Z</time>
      </trkpt>
      <trkpt lat="52.15019" lon="5.56389">
        <time>2018-04-24T00:04:41Z</time>
      </trkpt>
      <trkpt lat="52.15001" lon="5.56609">
        <time>2018-04-24T00:04:44Z</time>
      </trkpt>
      <trkpt lat="52.14979" lon="5.56744">
        <time>2018-04-24T00:04:46Z</time>
      </trkpt>
      <trkpt lat="52.14969" lon="5.5682">
        <time>2018-04-24T00:04:48Z</time>
      </trkpt>
      <trkpt lat="52.14964" lon="5.56827">
        <time>2018-04-24T00:04:48Z</time>
      </trkpt>
      <trkpt lat="52.14961" lon="5.56836">
        <time>2018-04-24T00:04:48Z</time>
      </trkpt>
      <trkpt lat="52.14959" lon="5.56851">
        <time>2018-04-24T00:04:48Z</time>
      </trkpt>
      <trkpt lat="52.14963" lon="5.5687">
        <time>2018-04-24T00:04:49Z</time>
      </trkpt>
      <trkpt lat="52.14939" lon="5.5692">
        <time>2018-04-24T00:04:50Z</time>
      </trkpt>
      <trkpt lat="52.1493" lon="5.56941">
        <time>2018-04-24T00:04:50Z</time>
      </trkpt>
      <trkpt lat="52.14927" lon="5.56951">
        <time>2018-04-24T00:04:50Z</time>
      </trkpt>
      <trkpt lat="52.1491" lon="5.56984">
        <time>2018-04-24T00:04:51Z</time>
      </trkpt>
      <trkpt lat="52.1491" lon="5.56984">
        <time>2018-04-24T00:04:51Z</time>
      </trkpt>
      <trkpt lat="52.1487" lon="5.57062">
        <time>2018-04-24T00:04:53Z</time>
      </trkpt>
      <trkpt lat="52.14814" lon="5.5715">
        <time>2018-04-24T00:04:55Z</time>
      </trkpt>
      <trkpt lat="52.14731" lon="5.57268">
        <time>2018-04-24T00:04:58Z</time>
      </trkpt>
      <trkpt lat="52.14698" lon="5.57321">
        <time>2018-04-24T00:04:59Z</time>
      </trkpt>
      <trkpt lat="52.14679" lon="5.5736">
        <time>2018-04-24T00:05:00Z</time>
      </trkpt>
      <trkpt lat="52.1464" lon="5.57459">
        <time>2018-04-24T00:05:01Z</time>
      </trkpt>
      <trkpt lat="52.14582" lon="5.57593">
        <time>2018-04-24T00:05:04Z</time>
      </trkpt>
      <trkpt lat="52.14554" lon="5.57646">
        <time>2018-04-24T00:05:05Z</time>
      </trkpt>
      <trkpt lat="52.14545" lon="5.57656">
        <time>2018-04-24T00:05:06Z</time>
      </trkpt>
      <trkpt lat="52.14536" lon="5.57674">
        <time>2018-04-24T00:05:06Z</time>
      </trkpt>
      <trkpt lat="52.14534" lon="5.57674">
        <time>2018-04-24T00:05:06Z</time>
      </trkpt>
      <trkpt lat="52.14532" lon="5.57674">
        <time>2018-04-24T00:05:06Z</time>
      </trkpt>
      <trkpt lat="52.14526" lon="5.57677">
        <time>2018-04-24T00:05:06Z</time>
      </trkpt>
      <trkpt lat="52.14523" lon="5.57684">
        <time>2018-04-24T00:05:06Z</time>
      </trkpt>
      <trkpt lat="52.14521" lon="5.57693">
        <time>2018-04-24T00:05:07Z</time>
      </trkpt>
      <trkpt lat="52.14522" lon="5.57702">
        <time>2018-04-24T00:05:07Z</time>
      </trkpt>
      <trkpt lat="52.14526" lon="5.57709">
        <time>2018-04-24T00:05:07Z</time>
      </trkpt>
      <trkpt lat="52.1452" lon="5.57738">
        <time>2018-04-24T00:05:07Z</time>
      </trkpt>
      <trkpt lat="52.14515" lon="5.57777">
        <time>2018-04-24T00:05:08Z</time>
      </trkpt>
      <trkpt lat="52.14483" lon="5.57966">
        <time>2018-04-24T00:05:11Z</time>
      </trkpt>
      <trkpt lat="52.14476" lon="5.57994">
        <time>2018-04-24T00:05:12Z</time>
      </trkpt>
      <trkpt lat="52.14434" lon="5.58133">
        <time>2018-04-24T00:05:14Z</time>
      </trkpt>
      <trkpt lat="52.14409" lon="5.5822">
        <time>2018-04-24T00:05:16Z</time>
      </trkpt>
      <trkpt lat="52.14384" lon="5.58309">
        <time>2018-04-24T00:05:17Z</time>
      </trkpt>
      <trkpt lat="52.14353" lon="5.58425">
        <time>2018-04-24T00:05:19Z</time>
      </trkpt>
      <trkpt lat="52.14353" lon="5.58425">
        <time>2018-04-24T00:05:19Z</time>
      </trkpt>
      <trkpt lat="52.14312" lon="5.5856">
        <time>2018-04-24T00:05:22Z</time>
      </trkpt>
      <trkpt lat="52.14293" lon="5.5862">
        <time>2018-04-24T00:05:23Z</time>
      </trkpt>
      <trkpt lat="52.14289" lon="5.58627">
        <time>2018-04-24T00:05:23Z</time>
      </trkpt>
      <trkpt lat="52.1428" lon="5.58649">
        <time>2018-04-24T00:05:23Z</time>
      </trkpt>
      <trkpt lat="52.14273" lon="5.58662">
        <time>2018-04-24T00:05:24Z</time>
      </trkpt>
      <trkpt lat="52.14278" lon="5.58675">
        <time>2018-04-24T00:05:24Z</time>
      </trkpt>
      <trkpt lat="52.14332" lon="5.58766">
        <time>2018-04-24T00:05:26Z</time>
      </trkpt>
      <trkpt lat="52.14357" lon="5.58811">
        <time>2018-04-24T00:05:27Z</time>
      </trkpt>
      <trkpt lat="52.14367" lon="5.58833">
        <time>2018-04-24T00:05:27Z</time>
      </trkpt>
      <trkpt lat="52.1439" lon="5.58881">
        <time>2018-04-24T00:05:28Z</time>
      </trkpt>
      <trkpt lat="52.14394" lon="5.58894">
        <time>2018-04-24T00:05:29Z</time>
      </trkpt>
      <trkpt lat="52.1439" lon="5.589">
        <time>2018-04-24T00:05:29Z</time>
      </trkpt>
      <trkpt lat="52.14384" lon="5.5891">
        <time>2018-04-24T00:05:29Z</time>
      </trkpt>
      <trkpt lat="52.14379" lon="5.58916">
        <time>2018-04-24T00:05:29Z</time>
      </trkpt>
      <trkpt lat="52.14363" lon="5.58918">
        <time>2018-04-24T00:05:30Z</time>
      </trkpt>
      <trkpt lat="52.14286" lon="5.58929">
        <time>2018-04-24T00:05:32Z</time>
      </trkpt>
      <trkpt lat="52.14237" lon="5.58936">
        <time>2018-04-24T00:05:33Z</time>
      </trkpt>
      <trkpt lat="52.14237" lon="5.58936">
        <time>2018-04-24T00:05:33Z</time>
      </trkpt>
      <trkpt lat="52.14191" lon="5.58943">
        <time>2018-04-24T00:05:34Z</time>
      </trkpt>
      <trkpt lat="52.14178" lon="5.5895">
        <time>2018-04-24T00:05:35Z</time>
      </trkpt>
      <trkpt lat="52.14161" lon="5.58966">
        <time>2018-04-24T00:05:35Z</time>
      </trkpt>
      <trkpt lat="52.14148" lon="5.58985">
        <time>2018-04-24T00:05:36Z</time>
      </trkpt>
      <trkpt lat="52.14136" lon="5.59009">
        <time>2018-04-24T00:05:36Z</time>
      </trkpt>
      <trkpt lat="52.1404" lon="5.59322">
        <time>2018-04-24T00:05:42Z</time>
      </trkpt>
      <trkpt lat="52.14018" lon="5.59394">
        <time>2018-04-24T00:05:43Z</time>
      </trkpt>
      <trkpt lat="52.14009" lon="5.59425">
        <time>2018-04-24T00:05:44Z</time>
      </trkpt>
      <trkpt lat="52.14001" lon="5.5944">
        <time>2018-04-24T00:05:44Z</time>
      </trkpt>
      <trkpt lat="52.13982" lon="5.59516">
        <time>2018-04-24T00:05:45Z</time>
      </trkpt>
      <trkpt lat="52.13958" lon="5.59642">
        <time>2018-04-24T00:05:47Z</time>
      </trkpt>
      <trkpt lat="52.13942" lon="5.59734">
        <time>2018-04-24T00:05:49Z</time>
      </trkpt>
      <trkpt lat="52.13942" lon="5.59734">
        <time>2018-04-24T00:05:49Z</time>
      </trkpt>
      <trkpt lat="52.13927" lon="5.59804">
        <time>2018-04-24T00:05:50Z</time>
      </trkpt>
      <trkpt lat="52.13912" lon="5.5986">
        <time>2018-04-24T00:05:51Z</time>
      </trkpt>
      <trkpt lat="52.13894" lon="5.59917">
        <time>2018-04-24T00:05:52Z</time>
      </trkpt>
      <trkpt lat="52.13876" lon="5.59963">
        <time>2018-04-24T00:05:53Z</time>
      </trkpt>
      <trkpt lat="52.13864" lon="5.59985">
        <time>2018-04-24T00:05:53Z</time>
      </trkpt>
      <trkpt lat="52.13835" lon="5.60036">
        <time>2018-04-24T00:05:55Z</time>
      </trkpt>
      <trkpt lat="52.13785" lon="5.60101">
        <time>2018-04-24T00:05:56Z</time>
      </trkpt>
      <trkpt lat="52.13739" lon="5.60151">
        <time>2018-04-24T00:05:58Z</time>
      </trkpt>
      <trkpt lat="52.13708" lon="5.60178">
        <time>2018-04-24T00:05:59Z</time>
      </trkpt>
      <trkpt lat="52.13631" lon="5.60234">
        <time>2018-04-24T00:06:01Z</time>
      </trkpt>
      <trkpt lat="52.13538" lon="5.60276">
        <time>2018-04-24T00:06:03Z</time>
      </trkpt>
      <trkpt lat="52.13467" lon="5.60308">
        <time>2018-04-24T00:06:05Z</time>
      </trkpt>
      <trkpt lat="52.13371" lon="5.60344">
        <time>2018-04-24T00:06:08Z</time>
      </trkpt>
      <trkpt lat="52.13356" lon="5.60348">
        <time>2018-04-24T00:06:08Z</time>
      </trkpt>
      <trkpt lat="52.13345" lon="5.6035">
        <time>2018-04-24T00:06:09Z</time>
      </trkpt>
      <trkpt lat="52.13316" lon="5.60285">
        <time>2018-04-24T00:06:10Z</time>
      </trkpt>
      <trkpt lat="52.13305" lon="5.60309">
        <time>2018-04-24T00:06:10Z</time>
      </trkpt>
      <trkpt lat="52.13304" lon="5.60316">
        <time>2018-04-24T00:06:11Z</time>
      </trkpt>
      <trkpt lat="52.13304" lon="5.60321">
        <time>2018-04-24T00:06:11Z</time>
      </trkpt>
      <trkpt lat="52.13321" lon="5.60364">
        <time>2018-04-24T00:06:12Z</time>
      </trkpt>
      <trkpt lat="52.13297" lon="5.60402">
        <time>2018-04-24T00:06:12Z</time>
      </trkpt>
      <trkpt lat="52.13284" lon="5.60426">
        <time>2018-04-24T00:06:13Z</time>
      </trkpt>
      <trkpt lat="52.13278" lon="5.6044">
        <time>2018-04-24T00:06:13Z</time>
      </trkpt>
      <trkpt lat="52.13276" lon="5.60455">
        <time>2018-04-24T00:06:13Z</time>
      </trkpt>
      <trkpt lat="52.13269" lon="5.60471">
        <time>2018-04-24T00:06:14Z</time>
      </trkpt>
      <trkpt lat="52.13253" lon="5.60511">
        <time>2018-04-24T00:06:15Z</time>
      </trkpt>
      <trkpt lat="52.13232" lon="5.60582">
        <time>2018-04-24T00:06:16Z</time>
      </trkpt>
      <trkpt lat="52.13211" lon="5.60666">
        <time>2018-04-24T00:06:17Z</time>
      </trkpt>
      <trkpt lat="52.132" lon="5.60734">
        <time>2018-04-24T00:06:18Z</time>
      </trkpt>
      <trkpt lat="52.13192" lon="5.60796">
        <time>2018-04-24T00:06:19Z</time>
      </trkpt>
      <trkpt lat="52.13192" lon="5.60796">
        <time>2018-04-24T00:06:19Z</time>
      </trkpt>
      <trkpt lat="52.13189" lon="5.60829">
        <time>2018-04-24T00:06:20Z</time>
      </trkpt>
      <trkpt lat="52.13187" lon="5.60899">
        <time>2018-04-24T00:06:21Z</time>
      </trkpt>
      <trkpt lat="52.13194" lon="5.61308">
        <time>2018-04-24T00:06:28Z</time>
      </trkpt>
      <trkpt lat="52.13198" lon="5.61527">
        <time>2018-04-24T00:06:31Z</time>
      </trkpt>
      <trkpt lat="52.13194" lon="5.61625">
        <time>2018-04-24T00:06:33Z</time>
      </trkpt>
      <trkpt lat="52.13194" lon="5.61625">
        <time>2018-04-24T00:06:33Z</time>
      </trkpt>
      <trkpt lat="52.13187" lon="5.61784">
        <time>2018-04-24T00:06:35Z</time>
      </trkpt>
      <trkpt lat="52.13181" lon="5.61943">
        <time>2018-04-24T00:06:38Z</time>
      </trkpt>
      <trkpt lat="52.13184" lon="5.61993">
        <time>2018-04-24T00:06:39Z</time>
      </trkpt>
      <trkpt lat="52.13192" lon="5.62064">
        <time>2018-04-24T00:06:40Z</time>
      </trkpt>
      <trkpt lat="52.13192" lon="5.62064">
        <time>2018-04-24T00:06:40Z</time>
      </trkpt>
      <trkpt lat="52.13237" lon="5.62281">
        <time>2018-04-24T00:06:44Z</time>
      </trkpt>
      <trkpt lat="52.1325" lon="5.62366">
        <time>2018-04-24T00:06:45Z</time>
      </trkpt>
      <trkpt lat="52.13255" lon="5.62407">
        <time>2018-04-24T00:06:46Z</time>
      </trkpt>
      <trkpt lat="52.13256" lon="5.62455">
        <time>2018-04-24T00:06:47Z</time>
      </trkpt>
      <trkpt lat="52.13255" lon="5.62516">
        <time>2018-04-24T00:06:48Z</time>
      </trkpt>
      <trkpt lat="52.13229" lon="5.6275">
        <time>2018-04-24T00:06:51Z</time>
      </trkpt>
      <trkpt lat="52.13191" lon="5.63056">
        <time>2018-04-24T00:06:57Z</time>
      </trkpt>
      <trkpt lat="52.13182" lon="5.63146">
        <time>2018-04-24T00:06:58Z</time>
      </trkpt>
      <trkpt lat="52.13181" lon="5.63272">
        <time>2018-04-24T00:07:00Z</time>
      </trkpt>
      <trkpt lat="52.13183" lon="5.63319">
        <time>2018-04-24T00:07:01Z</time>
      </trkpt>
      <trkpt lat="52.1319" lon="5.63375">
        <time>2018-04-24T00:07:02Z</time>
      </trkpt>
      <trkpt lat="52.13213" lon="5.63497">
        <time>2018-04-24T00:07:04Z</time>
      </trkpt>
      <trkpt lat="52.13268" lon="5.63719">
        <time>2018-04-24T00:07:08Z</time>
      </trkpt>
      <trkpt lat="52.13337" lon="5.64143">
        <time>2018-04-24T00:07:15Z</time>
      </trkpt>
      <trkpt lat="52.13343" lon="5.64205">
        <time>2018-04-24T00:07:16Z</time>
      </trkpt>
      <trkpt lat="52.13342" lon="5.64299">
        <time>2018-04-24T00:07:17Z</time>
      </trkpt>
      <trkpt lat="52.13339" lon="5.64351">
        <time>2018-04-24T00:07:18Z</time>
      </trkpt>
      <trkpt lat="52.13324" lon="5.64419">
        <time>2018-04-24T00:07:19Z</time>
      </trkpt>
      <trkpt lat="52.13296" lon="5.64504">
        <time>2018-04-24T00:07:21Z</time>
      </trkpt>
      <trkpt lat="52.13254" lon="5.64589">
        <time>2018-04-24T00:07:23Z</time>
      </trkpt>
      <trkpt lat="52.13236" lon="5.64623">
        <time>2018-04-24T00:07:23Z</time>
      </trkpt>
      <trkpt lat="52.13161" lon="5.64769">
        <time>2018-04-24T00:07:26Z</time>
      </trkpt>
      <trkpt lat="52.13144" lon="5.64832">
        <time>2018-04-24T00:07:28Z</time>
      </trkpt>
      <trkpt lat="52.13129" lon="5.64909">
        <time>2018-04-24T00:07:29Z</time>
      </trkpt>
      <trkpt lat="52.13124" lon="5.64975">
        <time>2018-04-24T00:07:30Z</time>
      </trkpt>
      <trkpt lat="52.13125" lon="5.65042">
        <time>2018-04-24T00:07:31Z</time>
      </trkpt>
      <trkpt lat="52.13146" lon="5.65201">
        <time>2018-04-24T00:07:34Z</time>
      </trkpt>
      <trkpt lat="52.1318" lon="5.65437">
        <time>2018-04-24T00:07:38Z</time>
      </trkpt>
      <trkpt lat="52.13187" lon="5.65509">
        <time>2018-04-24T00:07:39Z</time>
      </trkpt>
      <trkpt lat="52.13187" lon="5.6556">
        <time>2018-04-24T00:07:40Z</time>
      </trkpt>
      <trkpt lat="52.13179" lon="5.6565">
        <time>2018-04-24T00:07:41Z</time>
      </trkpt>
      <trkpt lat="52.1314" lon="5.65909">
        <time>2018-04-24T00:07:45Z</time>
      </trkpt>
      <trkpt lat="52.13043" lon="5.66301">
        <time>2018-04-24T00:07:52Z</time>
      </trkpt>
      <trkpt lat="52.13019" lon="5.66401">
        <time>2018-04-24T00:07:54Z</time>
      </trkpt>
      <trkpt lat="52.13015" lon="5.6643">
        <time>2018-04-24T00:07:55Z</time>
      </trkpt>
      <trkpt lat="52.13011" lon="5.66487">
        <time>2018-04-24T00:07:55Z</time>
      </trkpt>
      <trkpt lat="52.13015" lon="5.66563">
        <time>2018-04-24T00:07:57Z</time>
      </trkpt>
      <trkpt lat="52.13022" lon="5.66608">
        <time>2018-04-24T00:07:57Z</time>
      </trkpt>
      <trkpt lat="52.13032" lon="5.66652">
        <time>2018-04-24T00:07:58Z</time>
      </trkpt>
      <trkpt lat="52.13062" lon="5.66793">
        <time>2018-04-24T00:08:01Z</time>
      </trkpt>
      <trkpt lat="52.13071" lon="5.66855">
        <time>2018-04-24T00:08:02Z</time>
      </trkpt>
      <trkpt lat="52.13075" lon="5.66934">
        <time>2018-04-24T00:08:03Z</time>
      </trkpt>
      <trkpt lat="52.13072" lon="5.66985">
        <time>2018-04-24T00:08:04Z</time>
      </trkpt>
      <trkpt lat="52.13067" lon="5.67031">
        <time>2018-04-24T00:08:05Z</time>
      </trkpt>
      <trkpt lat="52.13056" lon="5.67083">
        <time>2018-04-24T00:08:05Z</time>
      </trkpt>
      <trkpt lat="52.13044" lon="5.67122">
        <time>2018-04-24T00:08:06Z</time>
      </trkpt>
      <trkpt lat="52.12964" lon="5.67379">
        <time>2018-04-24T00:08:11Z</time>
      </trkpt>
      <trkpt lat="52.12964" lon="5.67379">
        <time>2018-04-24T00:08:11Z</time>
      </trkpt>
      <trkpt lat="52.12856" lon="5.67728">
        <time>2018-04-24T00:08:17Z</time>
      </trkpt>
      <trkpt lat="52.12828" lon="5.67805">
        <time>2018-04-24T00:08:19Z</time>
      </trkpt>
      <trkpt lat="52.12799" lon="5.67871">
        <time>2018-04-24T00:08:20Z</time>
      </trkpt>
      <trkpt lat="52.12671" lon="5.68136">
        <time>2018-04-24T00:08:25Z</time>
      </trkpt>
      <trkpt lat="52.12551" lon="5.68383">
        <time>2018-04-24T00:08:30Z</time>
      </trkpt>
      <trkpt lat="52.12533" lon="5.68414">
        <time>2018-04-24T00:08:31Z</time>
      </trkpt>
      <trkpt lat="52.12517" lon="5.68448">
        <time>2018-04-24T00:08:32Z</time>
      </trkpt>
      <trkpt lat="52.12486" lon="5.6855">
        <time>2018-04-24T00:08:34Z</time>
      </trkpt>
      <trkpt lat="52.12438" lon="5.68707">
        <time>2018-04-24T00:08:37Z</time>
      </trkpt>
      <trkpt lat="52.12354" lon="5.68979">
        <time>2018-04-24T00:08:41Z</time>
      </trkpt>
      <trkpt lat="52.12256" lon="5.6931">
        <time>2018-04-24T00:08:47Z</time>
      </trkpt>
      <trkpt lat="52.12195" lon="5.69516">
        <time>2018-04-24T00:08:51Z</time>
      </trkpt>
      <trkpt lat="52.12183" lon="5.69546">
        <time>2018-04-24T00:08:52Z</time>
      </trkpt>
      <trkpt lat="52.12159" lon="5.69632">
        <time>2018-04-24T00:08:53Z</time>
      </trkpt>
      <trkpt lat="52.12154" lon="5.69657">
        <time>2018-04-24T00:08:54Z</time>
      </trkpt>
      <trkpt lat="52.12039" lon="5.7005">
        <time>2018-04-24T00:09:01Z</time>
      </trkpt>
      <trkpt lat="52.12039" lon="5.7005">
        <time>2018-04-24T00:09:01Z</time>
      </trkpt>
      <trkpt lat="52.11765" lon="5.70977">
        <time>2018-04-24T00:09:17Z</time>
      </trkpt>
      <trkpt lat="52.11758" lon="5.71011">
        <time>2018-04-24T00:09:18Z</time>
      </trkpt>
      <trkpt lat="52.11704" lon="5.71178">
        <time>2018-04-24T00:09:21Z</time>
      </trkpt>
      <trkpt lat="52.11683" lon="5.71234">
        <time>2018-04-24T00:09:22Z</time>
      </trkpt>
      <trkpt lat="52.11532" lon="5.71581">
        <time>2018-04-24T00:09:29Z</time>
      </trkpt>
      <trkpt lat="52.11509" lon="5.71635">
        <time>2018-04-24T00:09:30Z</time>
      </trkpt>
      <trkpt lat="52.11462" lon="5.7174">
        <time>2018-04-24T00:09:32Z</time>
      </trkpt>
      <trkpt lat="52.11416" lon="5.71852">
        <time>2018-04-24T00:09:34Z</time>
      </trkpt>
      <trkpt lat="52.11416" lon="5.71852">
        <time>2018-04-24T00:09:34Z</time>
      </trkpt>
      <trkpt lat="52.11402" lon="5.71884">
        <time>2018-04-24T00:09:35Z</time>
      </trkpt>
      <trkpt lat="52.11401" lon="5.71883">
        <time>2018-04-24T00:09:35Z</time>
      </trkpt>
      <trkpt lat="52.11399" lon="5.71882">
        <time>2018-04-24T00:09:35Z</time>
      </trkpt>
      <trkpt lat="52.11395" lon="5.71881">
        <time>2018-04-24T00:09:35Z</time>
      </trkpt>
      <trkpt lat="52.11388" lon="5.71885">
        <time>2018-04-24T00:09:35Z</time>
      </trkpt>
      <trkpt lat="52.11385" lon="5.71897">
        <time>2018-04-24T00:09:36Z</time>
      </trkpt>
      <trkpt lat="52.11387" lon="5.71909">
        <time>2018-04-24T00:09:36Z</time>
      </trkpt>
      <trkpt lat="52.11389" lon="5.71912">
        <time>2018-04-24T00:09:36Z</time>
      </trkpt>
      <trkpt lat="52.1139" lon="5.71913">
        <time>2018-04-24T00:09:36Z</time>
      </trkpt>
      <trkpt lat="52.11367" lon="5.71967">
        <time>2018-04-24T00:09:37Z</time>
      </trkpt>
      <trkpt lat="52.11332" lon="5.72034">
        <time>2018-04-24T00:09:38Z</time>
      </trkpt>
      <trkpt lat="52.11239" lon="5.72195">
        <time>2018-04-24T00:09:42Z</time>
      </trkpt>
      <trkpt lat="52.11031" lon="5.72552">
        <time>2018-04-24T00:09:50Z</time>
      </trkpt>
      <trkpt lat="52.11031" lon="5.72552">
        <time>2018-04-24T00:09:50Z</time>
      </trkpt>
      <trkpt lat="52.10956" lon="5.72679">
        <time>2018-04-24T00:09:53Z</time>
      </trkpt>
      <trkpt lat="52.10942" lon="5.72699">
        <time>2018-04-24T00:09:53Z</time>
      </trkpt>
      <trkpt lat="52.10738" lon="5.72977">
        <time>2018-04-24T00:10:00Z</time>
      </trkpt>
      <trkpt lat="52.10725" lon="5.73005">
        <time>2018-04-24T00:10:01Z</time>
      </trkpt>
      <trkpt lat="52.10719" lon="5.73029">
        <time>2018-04-24T00:10:01Z</time>
      </trkpt>
      <trkpt lat="52.10705" lon="5.73086">
        <time>2018-04-24T00:10:02Z</time>
      </trkpt>
      <trkpt lat="52.10589" lon="5.73612">
        <time>2018-04-24T00:10:11Z</time>
      </trkpt>
      <trkpt lat="52.10532" lon="5.74097">
        <time>2018-04-24T00:10:19Z</time>
      </trkpt>
      <trkpt lat="52.10539" lon="5.74146">
        <time>2018-04-24T00:10:20Z</time>
      </trkpt>
      <trkpt lat="52.1056" lon="5.74256">
        <time>2018-04-24T00:10:22Z</time>
      </trkpt>
      <trkpt lat="52.10575" lon="5.74337">
        <time>2018-04-24T00:10:23Z</time>
      </trkpt>
      <trkpt lat="52.10576" lon="5.74356">
        <time>2018-04-24T00:10:24Z</time>
      </trkpt>
      <trkpt lat="52.10575" lon="5.74383">
        <time>2018-04-24T00:10:24Z</time>
      </trkpt>
      <trkpt lat="52.10567" lon="5.74432">
        <time>2018-04-24T00:10:25Z</time>
      </trkpt>
      <trkpt lat="52.10548" lon="5.74536">
        <time>2018-04-24T00:10:27Z</time>
      </trkpt>
      <trkpt lat="52.10527" lon="5.74645">
        <time>2018-04-24T00:10:29Z</time>
      </trkpt>
      <trkpt lat="52.10487" lon="5.74826">
        <time>2018-04-24T00:10:32Z</time>
      </trkpt>
      <trkpt lat="52.10487" lon="5.74826">
        <time>2018-04-24T00:10:32Z</time>
      </trkpt>
      <trkpt lat="52.10466" lon="5.7492">
        <time>2018-04-24T00:10:33Z</time>
      </trkpt>
      <trkpt lat="52.10431" lon="5.75165">
        <time>2018-04-24T00:10:37Z</time>
      </trkpt>
      <trkpt lat="52.10425" lon="5.7521">
        <time>2018-04-24T00:10:38Z</time>
      </trkpt>
      <trkpt lat="52.10379" lon="5.7548">
        <time>2018-04-24T00:10:43Z</time>
      </trkpt>
      <trkpt lat="52.10361" lon="5.75601">
        <time>2018-04-24T00:10:45Z</time>
      </trkpt>
      <trkpt lat="52.10288" lon="5.76086">
        <time>2018-04-24T00:10:53Z</time>
      </trkpt>
      <trkpt lat="52.10283" lon="5.76103">
        <time>2018-04-24T00:10:53Z</time>
      </trkpt>
      <trkpt lat="52.1027" lon="5.76122">
        <time>2018-04-24T00:10:54Z</time>
      </trkpt>
      <trkpt lat="52.10254" lon="5.76134">
        <time>2018-04-24T00:10:54Z</time>
      </trkpt>
      <trkpt lat="52.10231" lon="5.76142">
        <time>2018-04-24T00:10:55Z</time>
      </trkpt>
      <trkpt lat="52.10207" lon="5.76157">
        <time>2018-04-24T00:10:55Z</time>
      </trkpt>
      <trkpt lat="52.10158" lon="5.76219">
        <time>2018-04-24T00:10:57Z</time>
      </trkpt>
      <trkpt lat="52.10119" lon="5.7627">
        <time>2018-04-24T00:10:58Z</time>
      </trkpt>
      <trkpt lat="52.10115" lon="5.76271">
        <time>2018-04-24T00:10:58Z</time>
      </trkpt>
      <trkpt lat="52.10105" lon="5.76277">
        <time>2018-04-24T00:10:59Z</time>
      </trkpt>
      <trkpt lat="52.10093" lon="5.76279">
        <time>2018-04-24T00:10:59Z</time>
      </trkpt>
      <trkpt lat="52.10091" lon="5.76274">
        <time>2018-04-24T00:10:59Z</time>
      </trkpt>
      <trkpt lat="52.10086" lon="5.76267">
        <time>2018-04-24T00:10:59Z</time>
      </trkpt>
      <trkpt lat="52.10079" lon="5.76264">
        <time>2018-04-24T00:10:59Z</time>
      </trkpt>
      <trkpt lat="52.10073" lon="5.76266">
        <time>2018-04-24T00:11:00Z</time>
      </trkpt>
      <trkpt lat="52.10068" lon="5.76273">
        <time>2018-04-24T00:11:00Z</time>
      </trkpt>
      <trkpt lat="52.10066" lon="5.76283">
        <time>2018-04-24T00:11:00Z</time>
      </trkpt>
      <trkpt lat="52.10066" lon="5.76293">
        <time>2018-04-24T00:11:00Z</time>
      </trkpt>
      <trkpt lat="52.1007" lon="5.76302">
        <time>2018-04-24T00:11:00Z</time>
      </trkpt>
      <trkpt lat="52.10073" lon="5.76305">
        <time>2018-04-24T00:11:00Z</time>
      </trkpt>
      <trkpt lat="52.10074" lon="5.76306">
        <time>2018-04-24T00:11:00Z</time>
      </trkpt>
      <trkpt lat="52.10076" lon="5.76314">
        <time>2018-04-24T00:11:01Z</time>
      </trkpt>
      <trkpt lat="52.10077" lon="5.76354">
        <time>2018-04-24T00:11:01Z</time>
      </trkpt>
      <trkpt lat="52.1008" lon="5.7638">
        <time>2018-04-24T00:11:02Z</time>
      </trkpt>
      <trkpt lat="52.10087" lon="5.76419">
        <time>2018-04-24T00:11:02Z</time>
      </trkpt>
      <trkpt lat="52.10104" lon="5.76483">
        <time>2018-04-24T00:11:03Z</time>
      </trkpt>
      <trkpt lat="52.10119" lon="5.76517">
        <time>2018-04-24T00:11:04Z</time>
      </trkpt>
      <trkpt lat="52.10206" lon="5.76688">
        <time>2018-04-24T00:11:08Z</time>
      </trkpt>
      <trkpt lat="52.10257" lon="5.76786">
        <time>2018-04-24T00:11:10Z</time>
      </trkpt>
      <trkpt lat="52.10304" lon="5.76878">
        <time>2018-04-24T00:11:12Z</time>
      </trkpt>
      <trkpt lat="52.1033" lon="5.76932">
        <time>2018-04-24T00:11:13Z</time>
      </trkpt>
      <trkpt lat="52.10356" lon="5.76985">
        <time>2018-04-24T00:11:14Z</time>
      </trkpt>
      <trkpt lat="52.10355" lon="5.76987">
        <time>2018-04-24T00:11:14Z</time>
      </trkpt>
      <trkpt lat="52.10354" lon="5.76991">
        <time>2018-04-24T00:11:14Z</time>
      </trkpt>
      <trkpt lat="52.10353" lon="5.76995">
        <time>2018-04-24T00:11:14Z</time>
      </trkpt>
      <trkpt lat="52.10353" lon="5.77003">
        <time>2018-04-24T00:11:14Z</time>
      </trkpt>
      <trkpt lat="52.10355" lon="5.77011">
        <time>2018-04-24T00:11:14Z</time>
      </trkpt>
      <trkpt lat="52.10359" lon="5.77016">
        <time>2018-04-24T00:11:15Z</time>
      </trkpt>
      <trkpt lat="52.10364" lon="5.77019">
        <time>2018-04-24T00:11:15Z</time>
      </trkpt>
      <trkpt lat="52.1037" lon="5.77018">
        <time>2018-04-24T00:11:15Z</time>
      </trkpt>
      <trkpt lat="52.10371" lon="5.77017">
        <time>2018-04-24T00:11:15Z</time>
      </trkpt>
      <trkpt lat="52.10379" lon="5.7703">
        <time>2018-04-24T00:11:15Z</time>
      </trkpt>
      <trkpt lat="52.10393" lon="5.77056">
        <time>2018-04-24T00:11:16Z</time>
      </trkpt>
      <trkpt lat="52.10399" lon="5.77061">
        <time>2018-04-24T00:11:16Z</time>
      </trkpt>
      <trkpt lat="52.10473" lon="5.77205">
        <time>2018-04-24T00:11:19Z</time>
      </trkpt>
      <trkpt lat="52.10549" lon="5.77351">
        <time>2018-04-24T00:11:22Z</time>
      </trkpt>
      <trkpt lat="52.10636" lon="5.77517">
        <time>2018-04-24T00:11:26Z</time>
      </trkpt>
      <trkpt lat="52.1066" lon="5.77556">
        <time>2018-04-24T00:11:27Z</time>
      </trkpt>
      <trkpt lat="52.10683" lon="5.77587">
        <time>2018-04-24T00:11:27Z</time>
      </trkpt>
      <trkpt lat="52.10708" lon="5.77618">
        <time>2018-04-24T00:11:28Z</time>
      </trkpt>
      <trkpt lat="52.1073" lon="5.7764">
        <time>2018-04-24T00:11:29Z</time>
      </trkpt>
      <trkpt lat="52.10779" lon="5.77685">
        <time>2018-04-24T00:11:30Z</time>
      </trkpt>
      <trkpt lat="52.10843" lon="5.77728">
        <time>2018-04-24T00:11:32Z</time>
      </trkpt>
      <trkpt lat="52.11061" lon="5.77859">
        <time>2018-04-24T00:11:38Z</time>
      </trkpt>
      <trkpt lat="52.11097" lon="5.77886">
        <time>2018-04-24T00:11:39Z</time>
      </trkpt>
      <trkpt lat="52.11119" lon="5.77911">
        <time>2018-04-24T00:11:40Z</time>
      </trkpt>
      <trkpt lat="52.1114" lon="5.77939">
        <time>2018-04-24T00:11:41Z</time>
      </trkpt>
      <trkpt lat="52.11389" lon="5.78355">
        <time>2018-04-24T00:11:50Z</time>
      </trkpt>
      <trkpt lat="52.11577" lon="5.78671">
        <time>2018-04-24T00:11:57Z</time>
      </trkpt>
      <trkpt lat="52.11948" lon="5.79352">
        <time>2018-04-24T00:12:12Z</time>
      </trkpt>
      <trkpt lat="52.12062" lon="5.79562">
        <time>2018-04-24T00:12:17Z</time>
      </trkpt>
      <trkpt lat="52.12084" lon="5.79607">
        <time>2018-04-24T00:12:18Z</time>
      </trkpt>
      <trkpt lat="52.12103" lon="5.79659">
        <time>2018-04-24T00:12:18Z</time>
      </trkpt>
      <trkpt lat="52.12115" lon="5.79713">
        <time>2018-04-24T00:12:19Z</time>
      </trkpt>
      <trkpt lat="52.12121" lon="5.79753">
        <time>2018-04-24T00:12:20Z</time>
      </trkpt>
      <trkpt lat="52.12126" lon="5.7983">
        <time>2018-04-24T00:12:21Z</time>
      </trkpt>
      <trkpt lat="52.12132" lon="5.80022">
        <time>2018-04-24T00:12:24Z</time>
      </trkpt>
      <trkpt lat="52.12136" lon="5.80422">
        <time>2018-04-24T00:12:31Z</time>
      </trkpt>
      <trkpt lat="52.12136" lon="5.80796">
        <time>2018-04-24T00:12:37Z</time>
      </trkpt>
      <trkpt lat="52.12132" lon="5.81397">
        <time>2018-04-24T00:12:47Z</time>
      </trkpt>
      <trkpt lat="52.12133" lon="5.81478">
        <time>2018-04-24T00:12:48Z</time>
      </trkpt>
      <trkpt lat="52.12137" lon="5.81556">
        <time>2018-04-24T00:12:49Z</time>
      </trkpt>
      <trkpt lat="52.12145" lon="5.81638">
        <time>2018-04-24T00:12:51Z</time>
      </trkpt>
      <trkpt lat="52.12208" lon="5.82135">
        <time>2018-04-24T00:12:59Z</time>
      </trkpt>
      <trkpt lat="52.12233" lon="5.82301">
        <time>2018-04-24T00:13:02Z</time>
      </trkpt>
      <trkpt lat="52.1225" lon="5.82383">
        <time>2018-04-24T00:13:03Z</time>
      </trkpt>
      <trkpt lat="52.12309" lon="5.8263">
        <time>2018-04-24T00:13:07Z</time>
      </trkpt>
      <trkpt lat="52.12431" lon="5.83148">
        <time>2018-04-24T00:13:16Z</time>
      </trkpt>
      <trkpt lat="52.12468" lon="5.83338">
        <time>2018-04-24T00:13:20Z</time>
      </trkpt>
      <trkpt lat="52.12672" lon="5.84386">
        <time>2018-04-24T00:13:37Z</time>
      </trkpt>
      <trkpt lat="52.12693" lon="5.84513">
        <time>2018-04-24T00:13:40Z</time>
      </trkpt>
      <trkpt lat="52.12697" lon="5.84597">
        <time>2018-04-24T00:13:41Z</time>
      </trkpt>
      <trkpt lat="52.12698" lon="5.84692">
        <time>2018-04-24T00:13:42Z</time>
      </trkpt>
      <trkpt lat="52.12697" lon="5.84787">
        <time>2018-04-24T00:13:44Z</time>
      </trkpt>
      <trkpt lat="52.12688" lon="5.84907">
        <time>2018-04-24T00:13:46Z</time>
      </trkpt>
      <trkpt lat="52.12628" lon="5.85609">
        <time>2018-04-24T00:13:57Z</time>
      </trkpt>
      <trkpt lat="52.12589" lon="5.86071">
        <time>2018-04-24T00:14:05Z</time>
      </trkpt>
      <trkpt lat="52.12549" lon="5.8648">
        <time>2018-04-24T00:14:12Z</time>
      </trkpt>
      <trkpt lat="52.12529" lon="5.86608">
        <time>2018-04-24T00:14:14Z</time>
      </trkpt>
      <trkpt lat="52.12498" lon="5.86733">
        <time>2018-04-24T00:14:16Z</time>
      </trkpt>
      <trkpt lat="52.12457" lon="5.8687">
        <time>2018-04-24T00:14:19Z</time>
      </trkpt>
      <trkpt lat="52.12435" lon="5.86951">
        <time>2018-04-24T00:14:20Z</time>
      </trkpt>
      <trkpt lat="52.12421" lon="5.87015">
        <time>2018-04-24T00:14:21Z</time>
      </trkpt>
      <trkpt lat="52.1241" lon="5.87076">
        <time>2018-04-24T00:14:22Z</time>
      </trkpt>
      <trkpt lat="52.12403" lon="5.87144">
        <time>2018-04-24T00:14:23Z</time>
      </trkpt>
      <trkpt lat="52.12399" lon="5.87216">
        <time>2018-04-24T00:14:24Z</time>
      </trkpt>
      <trkpt lat="52.12399" lon="5.87274">
        <time>2018-04-24T00:14:25Z</time>
      </trkpt>
      <trkpt lat="52.12403" lon="5.87337">
        <time>2018-04-24T00:14:26Z</time>
      </trkpt>
      <trkpt lat="52.12406" lon="5.87378">
        <time>2018-04-24T00:14:27Z</time>
      </trkpt>
      <trkpt lat="52.12409" lon="5.87405">
        <time>2018-04-24T00:14:27Z</time>
      </trkpt>
      <trkpt lat="52.12414" lon="5.87433">
        <time>2018-04-24T00:14:28Z</time>
      </trkpt>
      <trkpt lat="52.12415" lon="5.87447">
        <time>2018-04-24T00:14:28Z</time>
      </trkpt>
      <trkpt lat="52.12421" lon="5.87471">
        <time>2018-04-24T00:14:29Z</time>
      </trkpt>
      <trkpt lat="52.12421" lon="5.8748">
        <time>2018-04-24T00:14:29Z</time>
      </trkpt>
      <trkpt lat="52.12416" lon="5.87493">
        <time>2018-04-24T00:14:29Z</time>
      </trkpt>
      <trkpt lat="52.12413" lon="5.87498">
        <time>2018-04-24T00:14:29Z</time>
      </trkpt>
      <trkpt lat="52.12406" lon="5.875">
        <time>2018-04-24T00:14:29Z</time>
      </trkpt>
      <trkpt lat="52.12397" lon="5.87502">
        <time>2018-04-24T00:14:29Z</time>
      </trkpt>
      <trkpt lat="52.12393" lon="5.875">
        <time>2018-04-24T00:14:30Z</time>
      </trkpt>
      <trkpt lat="52.1235" lon="5.87454">
        <time>2018-04-24T00:14:31Z</time>
      </trkpt>
      <trkpt lat="52.12273" lon="5.87369">
        <time>2018-04-24T00:14:33Z</time>
      </trkpt>
      <trkpt lat="52.12241" lon="5.87342">
        <time>2018-04-24T00:14:34Z</time>
      </trkpt>
      <trkpt lat="52.12211" lon="5.87322">
        <time>2018-04-24T00:14:35Z</time>
      </trkpt>
      <trkpt lat="52.12173" lon="5.87303">
        <time>2018-04-24T00:14:36Z</time>
      </trkpt>
      <trkpt lat="52.12116" lon="5.87287">
        <time>2018-04-24T00:14:38Z</time>
      </trkpt>
      <trkpt lat="52.12106" lon="5.87286">
        <time>2018-04-24T00:14:38Z</time>
      </trkpt>
      <trkpt lat="52.12071" lon="5.87288">
        <time>2018-04-24T00:14:39Z</time>
      </trkpt>
      <trkpt lat="52.1203" lon="5.87296">
        <time>2018-04-24T00:14:40Z</time>
      </trkpt>
      <trkpt lat="52.12013" lon="5.87308">
        <time>2018-04-24T00:14:41Z</time>
      </trkpt>
      <trkpt lat="52.11988" lon="5.87339">
        <time>2018-04-24T00:14:41Z</time>
      </trkpt>
      <trkpt lat="52.11959" lon="5.87368">
        <time>2018-04-24T00:14:42Z</time>
      </trkpt>
      <trkpt lat="52.11916" lon="5.87392">
        <time>2018-04-24T00:14:44Z</time>
      </trkpt>
      <trkpt lat="52.11874" lon="5.87408">
        <time>2018-04-24T00:14:45Z</time>
      </trkpt>
      <trkpt lat="52.11842" lon="5.87415">
        <time>2018-04-24T00:14:45Z</time>
      </trkpt>
      <trkpt lat="52.11823" lon="5.87419">
        <time>2018-04-24T00:14:46Z</time>
      </trkpt>
      <trkpt lat="52.11777" lon="5.87418">
        <time>2018-04-24T00:14:47Z</time>
      </trkpt>
      <trkpt lat="52.1171" lon="5.87418">
        <time>2018-04-24T00:14:49Z</time>
      </trkpt>
      <trkpt lat="52.11682" lon="5.8742">
        <time>2018-04-24T00:14:50Z</time>
      </trkpt>
      <trkpt lat="52.11667" lon="5.87424">
        <time>2018-04-24T00:14:50Z</time>
      </trkpt>
      <trkpt lat="52.11625" lon="5.87445">
        <time>2018-04-24T00:14:51Z</time>
      </trkpt>
      <trkpt lat="52.11587" lon="5.87463">
        <time>2018-04-24T00:14:52Z</time>
      </trkpt>
      <trkpt lat="52.1156" lon="5.87476">
        <time>2018-04-24T00:14:53Z</time>
      </trkpt>
      <trkpt lat="52.11536" lon="5.87483">
        <time>2018-04-24T00:14:54Z</time>
      </trkpt>
      <trkpt lat="52.11484" lon="5.87497">
        <time>2018-04-24T00:14:55Z</time>
      </trkpt>
      <trkpt lat="52.11343" lon="5.87524">
        <time>2018-04-24T00:14:59Z</time>
      </trkpt>
      <trkpt lat="52.11268" lon="5.87527">
        <time>2018-04-24T00:15:01Z</time>
      </trkpt>
      <trkpt lat="52.11225" lon="5.87532">
        <time>2018-04-24T00:15:02Z</time>
      </trkpt>
      <trkpt lat="52.11186" lon="5.87544">
        <time>2018-04-24T00:15:03Z</time>
      </trkpt>
      <trkpt lat="52.11046" lon="5.87609">
        <time>2018-04-24T00:15:07Z</time>
      </trkpt>
      <trkpt lat="52.10736" lon="5.87755">
        <time>2018-04-24T00:15:15Z</time>
      </trkpt>
      <trkpt lat="52.10642" lon="5.87801">
        <time>2018-04-24T00:15:18Z</time>
      </trkpt>
      <trkpt lat="52.10515" lon="5.87875">
        <time>2018-04-24T00:15:22Z</time>
      </trkpt>
      <trkpt lat="52.1047" lon="5.87898">
        <time>2018-04-24T00:15:23Z</time>
      </trkpt>
      <trkpt lat="52.10435" lon="5.87909">
        <time>2018-04-24T00:15:24Z</time>
      </trkpt>
      <trkpt lat="52.10398" lon="5.87912">
        <time>2018-04-24T00:15:25Z</time>
      </trkpt>
      <trkpt lat="52.10334" lon="5.87909">
        <time>2018-04-24T00:15:26Z</time>
      </trkpt>
      <trkpt lat="52.09651" lon="5.8789">
        <time>2018-04-24T00:15:44Z</time>
      </trkpt>
      <trkpt lat="52.09537" lon="5.87884">
        <time>2018-04-24T00:15:47Z</time>
      </trkpt>
      <trkpt lat="52.09448" lon="5.87888">
        <time>2018-04-24T00:15:50Z</time>
      </trkpt>
      <trkpt lat="52.09123" lon="5.87906">
        <time>2018-04-24T00:15:58Z</time>
      </trkpt>
      <trkpt lat="52.0889" lon="5.87921">
        <time>2018-04-24T00:16:05Z</time>
      </trkpt>
      <trkpt lat="52.08805" lon="5.87927">
        <time>2018-04-24T00:16:07Z</time>
      </trkpt>
      <trkpt lat="52.08805" lon="5.87927">
        <time>2018-04-24T00:16:07Z</time>
      </trkpt>
      <trkpt lat="52.08475" lon="5.87946">
        <time>2018-04-24T00:16:15Z</time>
      </trkpt>
      <trkpt lat="52.08414" lon="5.87952">
        <time>2018-04-24T00:16:17Z</time>
      </trkpt>
      <trkpt lat="52.08253" lon="5.87976">
        <time>2018-04-24T00:16:21Z</time>
      </trkpt>
      <trkpt lat="52.07964" lon="5.88022">
        <time>2018-04-24T00:16:29Z</time>
      </trkpt>
      <trkpt lat="52.07914" lon="5.88031">
        <time>2018-04-24T00:16:30Z</time>
      </trkpt>
      <trkpt lat="52.07907" lon="5.88028">
        <time>2018-04-24T00:16:31Z</time>
      </trkpt>
      <trkpt lat="52.07795" lon="5.88045">
        <time>2018-04-24T00:16:34Z</time>
      </trkpt>
      <trkpt lat="52.0778" lon="5.88051">
        <time>2018-04-24T00:16:34Z</time>
      </trkpt>
      <trkpt lat="52.07773" lon="5.88051">
        <time>2018-04-24T00:16:34Z</time>
      </trkpt>
      <trkpt lat="52.07757" lon="5.88053">
        <time>2018-04-24T00:16:35Z</time>
      </trkpt>
      <trkpt lat="52.07623" lon="5.88075">
        <time>2018-04-24T00:16:38Z</time>
      </trkpt>
      <trkpt lat="52.07492" lon="5.88096">
        <time>2018-04-24T00:16:42Z</time>
      </trkpt>
      <trkpt lat="52.07439" lon="5.88103">
        <time>2018-04-24T00:16:43Z</time>
      </trkpt>
      <trkpt lat="52.07408" lon="5.8811">
        <time>2018-04-24T00:16:44Z</time>
      </trkpt>
      <trkpt lat="52.07383" lon="5.88114">
        <time>2018-04-24T00:16:44Z</time>
      </trkpt>
      <trkpt lat="52.0735" lon="5.8812">
        <time>2018-04-24T00:16:45Z</time>
      </trkpt>
      <trkpt lat="52.07278" lon="5.88133">
        <time>2018-04-24T00:16:47Z</time>
      </trkpt>
      <trkpt lat="52.07228" lon="5.8815">
        <time>2018-04-24T00:16:49Z</time>
      </trkpt>
      <trkpt lat="52.07069" lon="5.8821">
        <time>2018-04-24T00:16:53Z</time>
      </trkpt>
      <trkpt lat="52.07028" lon="5.88223">
        <time>2018-04-24T00:16:54Z</time>
      </trkpt>
      <trkpt lat="52.06849" lon="5.88292">
        <time>2018-04-24T00:16:59Z</time>
      </trkpt>
      <trkpt lat="52.06798" lon="5.88312">
        <time>2018-04-24T00:17:00Z</time>
      </trkpt>
      <trkpt lat="52.06783" lon="5.88319">
        <time>2018-04-24T00:17:01Z</time>
      </trkpt>
      <trkpt lat="52.06767" lon="5.88329">
        <time>2018-04-24T00:17:01Z</time>
      </trkpt>
      <trkpt lat="52.06742" lon="5.88349">
        <time>2018-04-24T00:17:02Z</time>
      </trkpt>
      <trkpt lat="52.06707" lon="5.88387">
        <time>2018-04-24T00:17:03Z</time>
      </trkpt>
      <trkpt lat="52.06677" lon="5.8843">
        <time>2018-04-24T00:17:04Z</time>
      </trkpt>
      <trkpt lat="52.0666" lon="5.88462">
        <time>2018-04-24T00:17:05Z</time>
      </trkpt>
      <trkpt lat="52.06641" lon="5.88507">
        <time>2018-04-24T00:17:06Z</time>
      </trkpt>
      <trkpt lat="52.06621" lon="5.88571">
        <time>2018-04-24T00:17:07Z</time>
      </trkpt>
      <trkpt lat="52.0661" lon="5.88632">
        <time>2018-04-24T00:17:08Z</time>
      </trkpt>
      <trkpt lat="52.06603" lon="5.88691">
        <time>2018-04-24T00:17:09Z</time>
      </trkpt>
      <trkpt lat="52.06593" lon="5.88877">
        <time>2018-04-24T00:17:12Z</time>
      </trkpt>
      <trkpt lat="52.06589" lon="5.88972">
        <time>2018-04-24T00:17:13Z</time>
      </trkpt>
      <trkpt lat="52.06584" lon="5.8904">
        <time>2018-04-24T00:17:14Z</time>
      </trkpt>
      <trkpt lat="52.06576" lon="5.89085">
        <time>2018-04-24T00:17:15Z</time>
      </trkpt>
      <trkpt lat="52.06563" lon="5.8914">
        <time>2018-04-24T00:17:16Z</time>
      </trkpt>
      <trkpt lat="52.06543" lon="5.89215">
        <time>2018-04-24T00:17:17Z</time>
      </trkpt>
      <trkpt lat="52.06511" lon="5.89288">
        <time>2018-04-24T00:17:19Z</time>
      </trkpt>
      <trkpt lat="52.06481" lon="5.8934">
        <time>2018-04-24T00:17:20Z</time>
      </trkpt>
      <trkpt lat="52.06405" lon="5.89442">
        <time>2018-04-24T00:17:23Z</time>
      </trkpt>
      <trkpt lat="52.06267" lon="5.89616">
        <time>2018-04-24T00:17:27Z</time>
      </trkpt>
      <trkpt lat="52.06227" lon="5.89673">
        <time>2018-04-24T00:17:29Z</time>
      </trkpt>
      <trkpt lat="52.06158" lon="5.898">
        <time>2018-04-24T00:17:31Z</time>
      </trkpt>
      <trkpt lat="52.06151" lon="5.89809">
        <time>2018-04-24T00:17:32Z</time>
      </trkpt>
      <trkpt lat="52.06143" lon="5.89811">
        <time>2018-04-24T00:17:32Z</time>
      </trkpt>
      <trkpt lat="52.06095" lon="5.89818">
        <time>2018-04-24T00:17:33Z</time>
      </trkpt>
      <trkpt lat="52.06029" lon="5.89824">
        <time>2018-04-24T00:17:35Z</time>
      </trkpt>
      <trkpt lat="52.05634" lon="5.89875">
        <time>2018-04-24T00:17:45Z</time>
      </trkpt>
      <trkpt lat="52.0524" lon="5.89923">
        <time>2018-04-24T00:17:56Z</time>
      </trkpt>
      <trkpt lat="52.05" lon="5.89951">
        <time>2018-04-24T00:18:02Z</time>
      </trkpt>
      <trkpt lat="52.0497" lon="5.89963">
        <time>2018-04-24T00:18:03Z</time>
      </trkpt>
      <trkpt lat="52.04955" lon="5.89972">
        <time>2018-04-24T00:18:03Z</time>
      </trkpt>
      <trkpt lat="52.04758" lon="5.90084">
        <time>2018-04-24T00:18:09Z</time>
      </trkpt>
      <trkpt lat="52.04474" lon="5.90242">
        <time>2018-04-24T00:18:17Z</time>
      </trkpt>
      <trkpt lat="52.0415" lon="5.90426">
        <time>2018-04-24T00:18:26Z</time>
      </trkpt>
      <trkpt lat="52.03775" lon="5.90639">
        <time>2018-04-24T00:18:36Z</time>
      </trkpt>
      <trkpt lat="52.03767" lon="5.9064">
        <time>2018-04-24T00:18:37Z</time>
      </trkpt>
      <trkpt lat="52.03749" lon="5.90649">
        <time>2018-04-24T00:18:37Z</time>
      </trkpt>
      <trkpt lat="52.03749" lon="5.90649">
        <time>2018-04-24T00:18:37Z</time>
      </trkpt>
      <trkpt lat="52.03742" lon="5.90653">
        <time>2018-04-24T00:18:37Z</time>
      </trkpt>
      <trkpt lat="52.03744" lon="5.90665">
        <time>2018-04-24T00:18:37Z</time>
      </trkpt>
      <trkpt lat="52.0377" lon="5.90831">
        <time>2018-04-24T00:18:40Z</time>
      </trkpt>
      <trkpt lat="52.03774" lon="5.90859">
        <time>2018-04-24T00:18:41Z</time>
      </trkpt>
      <trkpt lat="52.03815" lon="5.92219">
        <time>2018-04-24T00:19:03Z</time>
      </trkpt>
      <trkpt lat="52.0383" lon="5.92688">
        <time>2018-04-24T00:19:10Z</time>
      </trkpt>
      <trkpt lat="52.03842" lon="5.93075">
        <time>2018-04-24T00:19:17Z</time>
      </trkpt>
      <trkpt lat="52.03844" lon="5.93164">
        <time>2018-04-24T00:19:18Z</time>
      </trkpt>
      <trkpt lat="52.03844" lon="5.93195">
        <time>2018-04-24T00:19:19Z</time>
      </trkpt>
      <trkpt lat="52.03842" lon="5.93215">
        <time>2018-04-24T00:19:19Z</time>
      </trkpt>
      <trkpt lat="52.03838" lon="5.93234">
        <time>2018-04-24T00:19:19Z</time>
      </trkpt>
      <trkpt lat="52.03832" lon="5.93252">
        <time>2018-04-24T00:19:20Z</time>
      </trkpt>
      <trkpt lat="52.03826" lon="5.93248">
        <time>2018-04-24T00:19:20Z</time>
      </trkpt>
      <trkpt lat="52.03771" lon="5.93204">
        <time>2018-04-24T00:19:22Z</time>
      </trkpt>
      <trkpt lat="52.03735" lon="5.93177">
        <time>2018-04-24T00:19:23Z</time>
      </trkpt>
      <trkpt lat="52.03681" lon="5.93145">
        <time>2018-04-24T00:19:24Z</time>
      </trkpt>
      <trkpt lat="52.03644" lon="5.93126">
        <time>2018-04-24T00:19:25Z</time>
      </trkpt>
      <trkpt lat="52.03572" lon="5.93094">
        <time>2018-04-24T00:19:27Z</time>
      </trkpt>
      <trkpt lat="52.03533" lon="5.93077">
        <time>2018-04-24T00:19:28Z</time>
      </trkpt>
      <trkpt lat="52.03533" lon="5.93077">
        <time>2018-04-24T00:19:28Z</time>
      </trkpt>
      <trkpt lat="52.03434" lon="5.93033">
        <time>2018-04-24T00:19:31Z</time>
      </trkpt>
      <trkpt lat="52.03305" lon="5.92982">
        <time>2018-04-24T00:19:34Z</time>
      </trkpt>
      <trkpt lat="52.03301" lon="5.92983">
        <time>2018-04-24T00:19:34Z</time>
      </trkpt>
      <trkpt lat="52.03287" lon="5.92976">
        <time>2018-04-24T00:19:35Z</time>
      </trkpt>
      <trkpt lat="52.03032" lon="5.92871">
        <time>2018-04-24T00:19:42Z</time>
      </trkpt>
      <trkpt lat="52.02707" lon="5.92735">
        <time>2018-04-24T00:19:51Z</time>
      </trkpt>
      <trkpt lat="52.02607" lon="5.92695">
        <time>2018-04-24T00:19:53Z</time>
      </trkpt>
      <trkpt lat="52.02527" lon="5.92661">
        <time>2018-04-24T00:19:56Z</time>
      </trkpt>
      <trkpt lat="52.02477" lon="5.92639">
        <time>2018-04-24T00:19:57Z</time>
      </trkpt>
      <trkpt lat="52.02451" lon="5.92625">
        <time>2018-04-24T00:19:58Z</time>
      </trkpt>
      <trkpt lat="52.0244" lon="5.92616">
        <time>2018-04-24T00:19:58Z</time>
      </trkpt>
      <trkpt lat="52.02421" lon="5.92605">
        <time>2018-04-24T00:19:58Z</time>
      </trkpt>
      <trkpt lat="52.0238" lon="5.92584">
        <time>2018-04-24T00:20:00Z</time>
      </trkpt>
      <trkpt lat="52.02361" lon="5.92576">
        <time>2018-04-24T00:20:00Z</time>
      </trkpt>
      <trkpt lat="52.02326" lon="5.92563">
        <time>2018-04-24T00:20:01Z</time>
      </trkpt>
      <trkpt lat="52.02228" lon="5.92519">
        <time>2018-04-24T00:20:04Z</time>
      </trkpt>
      <trkpt lat="52.02177" lon="5.92501">
        <time>2018-04-24T00:20:05Z</time>
      </trkpt>
      <trkpt lat="52.02144" lon="5.92496">
        <time>2018-04-24T00:20:06Z</time>
      </trkpt>
      <trkpt lat="52.02133" lon="5.92495">
        <time>2018-04-24T00:20:06Z</time>
      </trkpt>
      <trkpt lat="52.02109" lon="5.92493">
        <time>2018-04-24T00:20:07Z</time>
      </trkpt>
      <trkpt lat="52.02074" lon="5.92495">
        <time>2018-04-24T00:20:08Z</time>
      </trkpt>
      <trkpt lat="52.01865" lon="5.92515">
        <time>2018-04-24T00:20:13Z</time>
      </trkpt>
      <trkpt lat="52.01825" lon="5.92519">
        <time>2018-04-24T00:20:14Z</time>
      </trkpt>
      <trkpt lat="52.01582" lon="5.92543">
        <time>2018-04-24T00:20:21Z</time>
      </trkpt>
      <trkpt lat="52.01501" lon="5.9255">
        <time>2018-04-24T00:20:23Z</time>
      </trkpt>
      <trkpt lat="52.01376" lon="5.92553">
        <time>2018-04-24T00:20:26Z</time>
      </trkpt>
      <trkpt lat="52.01118" lon="5.92552">
        <time>2018-04-24T00:20:33Z</time>
      </trkpt>
      <trkpt lat="52.01103" lon="5.92545">
        <time>2018-04-24T00:20:34Z</time>
      </trkpt>
      <trkpt lat="52.0109" lon="5.92542">
        <time>2018-04-24T00:20:34Z</time>
      </trkpt>
      <trkpt lat="52.01042" lon="5.92533">
        <time>2018-04-24T00:20:35Z</time>
      </trkpt>
      <trkpt lat="52.01011" lon="5.92522">
        <time>2018-04-24T00:20:36Z</time>
      </trkpt>
      <trkpt lat="52.00969" lon="5.92508">
        <time>2018-04-24T00:20:37Z</time>
      </trkpt>
      <trkpt lat="52.00952" lon="5.92505">
        <time>2018-04-24T00:20:38Z</time>
      </trkpt>
      <trkpt lat="52.00927" lon="5.92506">
        <time>2018-04-24T00:20:38Z</time>
      </trkpt>
      <trkpt lat="52.00929" lon="5.92543">
        <time>2018-04-24T00:20:39Z</time>
      </trkpt>
      <trkpt lat="52.0093" lon="5.92612">
        <time>2018-04-24T00:20:40Z</time>
      </trkpt>
      <trkpt lat="52.00931" lon="5.9284">
        <time>2018-04-24T00:20:44Z</time>
      </trkpt>
      <trkpt lat="52.00936" lon="5.92916">
        <time>2018-04-24T00:20:45Z</time>
      </trkpt>
      <trkpt lat="52.00943" lon="5.92985">
        <time>2018-04-24T00:20:46Z</time>
      </trkpt>
      <trkpt lat="52.00973" lon="5.93179">
        <time>2018-04-24T00:20:49Z</time>
      </trkpt>
      <trkpt lat="52.00987" lon="5.93284">
        <time>2018-04-24T00:20:51Z</time>
      </trkpt>
      <trkpt lat="52.01" lon="5.93449">
        <time>2018-04-24T00:20:54Z</time>
      </trkpt>
      <trkpt lat="52.01003" lon="5.93559">
        <time>2018-04-24T00:20:56Z</time>
      </trkpt>
      <trkpt lat="52.01" lon="5.93742">
        <time>2018-04-24T00:20:59Z</time>
      </trkpt>
      <trkpt lat="52.01" lon="5.93742">
        <time>2018-04-24T00:20:59Z</time>
      </trkpt>
      <trkpt lat="52.01" lon="5.93837">
        <time>2018-04-24T00:21:00Z</time>
      </trkpt>
      <trkpt lat="52.01002" lon="5.939">
        <time>2018-04-24T00:21:01Z</time>
      </trkpt>
      <trkpt lat="52.01008" lon="5.94">
        <time>2018-04-24T00:21:03Z</time>
      </trkpt>
      <trkpt lat="52.01026" lon="5.94147">
        <time>2018-04-24T00:21:05Z</time>
      </trkpt>
      <trkpt lat="52.01035" lon="5.94218">
        <time>2018-04-24T00:21:06Z</time>
      </trkpt>
      <trkpt lat="52.01045" lon="5.943">
        <time>2018-04-24T00:21:08Z</time>
      </trkpt>
      <trkpt lat="52.01051" lon="5.94353">
        <time>2018-04-24T00:21:09Z</time>
      </trkpt>
      <trkpt lat="52.01053" lon="5.94401">
        <time>2018-04-24T00:21:09Z</time>
      </trkpt>
      <trkpt lat="52.01054" lon="5.94461">
        <time>2018-04-24T00:21:10Z</time>
      </trkpt>
      <trkpt lat="52.01053" lon="5.94511">
        <time>2018-04-24T00:21:11Z</time>
      </trkpt>
      <trkpt lat="52.01033" lon="5.94784">
        <time>2018-04-24T00:21:16Z</time>
      </trkpt>
      <trkpt lat="52.01014" lon="5.95049">
        <time>2018-04-24T00:21:20Z</time>
      </trkpt>
      <trkpt lat="52.00997" lon="5.95277">
        <time>2018-04-24T00:21:24Z</time>
      </trkpt>
      <trkpt lat="52.00989" lon="5.95338">
        <time>2018-04-24T00:21:25Z</time>
      </trkpt>
      <trkpt lat="52.00985" lon="5.95354">
        <time>2018-04-24T00:21:25Z</time>
      </trkpt>
      <trkpt lat="52.0098" lon="5.9537">
        <time>2018-04-24T00:21:25Z</time>
      </trkpt>
      <trkpt lat="52.00961" lon="5.95404">
        <time>2018-04-24T00:21:26Z</time>
      </trkpt>
      <trkpt lat="52.00925" lon="5.95465">
        <time>2018-04-24T00:21:27Z</time>
      </trkpt>
      <trkpt lat="52.00902" lon="5.95506">
        <time>2018-04-24T00:21:28Z</time>
      </trkpt>
      <trkpt lat="52.00899" lon="5.95508">
        <time>2018-04-24T00:21:28Z</time>
      </trkpt>
      <trkpt lat="52.00882" lon="5.95534">
        <time>2018-04-24T00:21:29Z</time>
      </trkpt>
      <trkpt lat="52.00828" lon="5.95634">
        <time>2018-04-24T00:21:31Z</time>
      </trkpt>
      <trkpt lat="52.00827" lon="5.95654">
        <time>2018-04-24T00:21:31Z</time>
      </trkpt>
      <trkpt lat="52.00813" lon="5.95697">
        <time>2018-04-24T00:21:32Z</time>
      </trkpt>
      <trkpt lat="52.00796" lon="5.95736">
        <time>2018-04-24T00:21:33Z</time>
      </trkpt>
      <trkpt lat="52.00767" lon="5.95789">
        <time>2018-04-24T00:21:34Z</time>
      </trkpt>
      <trkpt lat="52.00732" lon="5.9585">
        <time>2018-04-24T00:21:36Z</time>
      </trkpt>
      <trkpt lat="52.00716" lon="5.95873">
        <time>2018-04-24T00:21:36Z</time>
      </trkpt>
      <trkpt lat="52.00688" lon="5.95921">
        <time>2018-04-24T00:21:37Z</time>
      </trkpt>
      <trkpt lat="52.00685" lon="5.9592">
        <time>2018-04-24T00:21:37Z</time>
      </trkpt>
      <trkpt lat="52.00679" lon="5.95922">
        <time>2018-04-24T00:21:37Z</time>
      </trkpt>
      <trkpt lat="52.00675" lon="5.95925">
        <time>2018-04-24T00:21:38Z</time>
      </trkpt>
      <trkpt lat="52.00673" lon="5.9593">
        <time>2018-04-24T00:21:38Z</time>
      </trkpt>
      <trkpt lat="52.00673" lon="5.95932">
        <time>2018-04-24T00:21:38Z</time>
      </trkpt>
      <trkpt lat="52.00663" lon="5.95941">
        <time>2018-04-24T00:21:38Z</time>
      </trkpt>
      <trkpt lat="52.00644" lon="5.95951">
        <time>2018-04-24T00:21:39Z</time>
      </trkpt>
      <trkpt lat="52.00638" lon="5.9596">
        <time>2018-04-24T00:21:39Z</time>
      </trkpt>
      <trkpt lat="52.0055" lon="5.95995">
        <time>2018-04-24T00:21:41Z</time>
      </trkpt>
      <trkpt lat="52.00487" lon="5.96018">
        <time>2018-04-24T00:21:43Z</time>
      </trkpt>
      <trkpt lat="52.0031" lon="5.96075">
        <time>2018-04-24T00:21:48Z</time>
      </trkpt>
      <trkpt lat="52.00159" lon="5.96121">
        <time>2018-04-24T00:21:52Z</time>
      </trkpt>
      <trkpt lat="52.00111" lon="5.96137">
        <time>2018-04-24T00:21:53Z</time>
      </trkpt>
      <trkpt lat="52.00101" lon="5.96138">
        <time>2018-04-24T00:21:53Z</time>
      </trkpt>
      <trkpt lat="52.00081" lon="5.96146">
        <time>2018-04-24T00:21:54Z</time>
      </trkpt>
      <trkpt lat="52.00075" lon="5.9615">
        <time>2018-04-24T00:21:54Z</time>
      </trkpt>
      <trkpt lat="52.00071" lon="5.96146">
        <time>2018-04-24T00:21:54Z</time>
      </trkpt>
      <trkpt lat="52.00067" lon="5.96145">
        <time>2018-04-24T00:21:54Z</time>
      </trkpt>
      <trkpt lat="52.00061" lon="5.96147">
        <time>2018-04-24T00:21:54Z</time>
      </trkpt>
      <trkpt lat="52.00055" lon="5.96156">
        <time>2018-04-24T00:21:55Z</time>
      </trkpt>
      <trkpt lat="52.00054" lon="5.96166">
        <time>2018-04-24T00:21:55Z</time>
      </trkpt>
      <trkpt lat="52.00059" lon="5.96178">
        <time>2018-04-24T00:21:55Z</time>
      </trkpt>
      <trkpt lat="52.00052" lon="5.9621">
        <time>2018-04-24T00:21:55Z</time>
      </trkpt>
      <trkpt lat="52.00046" lon="5.96247">
        <time>2018-04-24T00:21:56Z</time>
      </trkpt>
      <trkpt lat="52.0004" lon="5.96303">
        <time>2018-04-24T00:21:57Z</time>
      </trkpt>
      <trkpt lat="52.00044" lon="5.96311">
        <time>2018-04-24T00:21:57Z</time>
      </trkpt>
      <trkpt lat="52.00055" lon="5.96375">
        <time>2018-04-24T00:21:58Z</time>
      </trkpt>
      <trkpt lat="52.00065" lon="5.96423">
        <time>2018-04-24T00:21:59Z</time>
      </trkpt>
      <trkpt lat="52.00117" lon="5.96634">
        <time>2018-04-24T00:22:03Z</time>
      </trkpt>
      <trkpt lat="52.00131" lon="5.96684">
        <time>2018-04-24T00:22:04Z</time>
      </trkpt>
      <trkpt lat="52.00175" lon="5.96861">
        <time>2018-04-24T00:22:07Z</time>
      </trkpt>
      <trkpt lat="52.00174" lon="5.96862">
        <time>2018-04-24T00:22:07Z</time>
      </trkpt>
      <trkpt lat="52.00172" lon="5.96865">
        <time>2018-04-24T00:22:07Z</time>
      </trkpt>
      <trkpt lat="52.00169" lon="5.96871">
        <time>2018-04-24T00:22:07Z</time>
      </trkpt>
      <trkpt lat="52.0017" lon="5.96885">
        <time>2018-04-24T00:22:07Z</time>
      </trkpt>
      <trkpt lat="52.00176" lon="5.96895">
        <time>2018-04-24T00:22:07Z</time>
      </trkpt>
      <trkpt lat="52.00181" lon="5.96896">
        <time>2018-04-24T00:22:08Z</time>
      </trkpt>
      <trkpt lat="52.00211" lon="5.97024">
        <time>2018-04-24T00:22:10Z</time>
      </trkpt>
      <trkpt lat="52.0024" lon="5.97137">
        <time>2018-04-24T00:22:12Z</time>
      </trkpt>
      <trkpt lat="52.00258" lon="5.97214">
        <time>2018-04-24T00:22:13Z</time>
      </trkpt>
      <trkpt lat="52.00265" lon="5.97239">
        <time>2018-04-24T00:22:14Z</time>
      </trkpt>
      <trkpt lat="52.00265" lon="5.97239">
        <time>2018-04-24T00:22:14Z</time>
      </trkpt>
      <trkpt lat="52.00287" lon="5.97327">
        <time>2018-04-24T00:22:15Z</time>
      </trkpt>
      <trkpt lat="52.00294" lon="5.97375">
        <time>2018-04-24T00:22:16Z</time>
      </trkpt>
      <trkpt lat="52.00292" lon="5.97459">
        <time>2018-04-24T00:22:17Z</time>
      </trkpt>
      <trkpt lat="52.0029" lon="5.97532">
        <time>2018-04-24T00:22:18Z</time>
      </trkpt>
      <trkpt lat="52.00281" lon="5.97589">
        <time>2018-04-24T00:22:19Z</time>
      </trkpt>
      <trkpt lat="52.00276" lon="5.97608">
        <time>2018-04-24T00:22:20Z</time>
      </trkpt>
      <trkpt lat="52.00265" lon="5.97645">
        <time>2018-04-24T00:22:20Z</time>
      </trkpt>
      <trkpt lat="52.00256" lon="5.97687">
        <time>2018-04-24T00:22:21Z</time>
      </trkpt>
      <trkpt lat="52.00248" lon="5.97755">
        <time>2018-04-24T00:22:22Z</time>
      </trkpt>
      <trkpt lat="52.0024" lon="5.97842">
        <time>2018-04-24T00:22:24Z</time>
      </trkpt>
      <trkpt lat="52.00231" lon="5.97923">
        <time>2018-04-24T00:22:25Z</time>
      </trkpt>
      <trkpt lat="52.00226" lon="5.97962">
        <time>2018-04-24T00:22:26Z</time>
      </trkpt>
      <trkpt lat="52.00218" lon="5.98066">
        <time>2018-04-24T00:22:27Z</time>
      </trkpt>
      <trkpt lat="52.00209" lon="5.98168">
        <time>2018-04-24T00:22:29Z</time>
      </trkpt>
      <trkpt lat="52.00194" lon="5.98229">
        <time>2018-04-24T00:22:30Z</time>
      </trkpt>
      <trkpt lat="52.00167" lon="5.98302">
        <time>2018-04-24T00:22:32Z</time>
      </trkpt>
      <trkpt lat="52.00111" lon="5.98435">
        <time>2018-04-24T00:22:34Z</time>
      </trkpt>
      <trkpt lat="52.00071" lon="5.98511">
        <time>2018-04-24T00:22:36Z</time>
      </trkpt>
      <trkpt lat="52.0003" lon="5.98586">
        <time>2018-04-24T00:22:37Z</time>
      </trkpt>
      <trkpt lat="51.99988" lon="5.98656">
        <time>2018-04-24T00:22:39Z</time>
      </trkpt>
      <trkpt lat="51.9996" lon="5.98699">
        <time>2018-04-24T00:22:40Z</time>
      </trkpt>
      <trkpt lat="51.99952" lon="5.98704">
        <time>2018-04-24T00:22:40Z</time>
      </trkpt>
      <trkpt lat="51.99945" lon="5.98714">
        <time>2018-04-24T00:22:40Z</time>
      </trkpt>
      <trkpt lat="51.99932" lon="5.98724">
        <time>2018-04-24T00:22:41Z</time>
      </trkpt>
      <trkpt lat="51.9993" lon="5.98722">
        <time>2018-04-24T00:22:41Z</time>
      </trkpt>
      <trkpt lat="51.99928" lon="5.98721">
        <time>2018-04-24T00:22:41Z</time>
      </trkpt>
      <trkpt lat="51.99923" lon="5.98722">
        <time>2018-04-24T00:22:41Z</time>
      </trkpt>
      <trkpt lat="51.99919" lon="5.98726">
        <time>2018-04-24T00:22:41Z</time>
      </trkpt>
      <trkpt lat="51.99915" lon="5.98739">
        <time>2018-04-24T00:22:41Z</time>
      </trkpt>
      <trkpt lat="51.99918" lon="5.98752">
        <time>2018-04-24T00:22:42Z</time>
      </trkpt>
      <trkpt lat="51.99922" lon="5.98756">
        <time>2018-04-24T00:22:42Z</time>
      </trkpt>
      <trkpt lat="51.99926" lon="5.98758">
        <time>2018-04-24T00:22:42Z</time>
      </trkpt>
      <trkpt lat="51.99929" lon="5.98757">
        <time>2018-04-24T00:22:42Z</time>
      </trkpt>
      <trkpt lat="51.99952" lon="5.98814">
        <time>2018-04-24T00:22:43Z</time>
      </trkpt>
      <trkpt lat="51.99969" lon="5.98856">
        <time>2018-04-24T00:22:44Z</time>
      </trkpt>
      <trkpt lat="51.9998" lon="5.98886">
        <time>2018-04-24T00:22:45Z</time>
      </trkpt>
      <trkpt lat="52.00288" lon="5.99739">
        <time>2018-04-24T00:23:01Z</time>
      </trkpt>
      <trkpt lat="52.00331" lon="5.9986">
        <time>2018-04-24T00:23:03Z</time>
      </trkpt>
      <trkpt lat="52.00331" lon="5.9986">
        <time>2018-04-24T00:23:03Z</time>
      </trkpt>
      <trkpt lat="52.00347" lon="5.9991">
        <time>2018-04-24T00:23:04Z</time>
      </trkpt>
      <trkpt lat="52.00371" lon="6.00001">
        <time>2018-04-24T00:23:05Z</time>
      </trkpt>
      <trkpt lat="52.00373" lon="6.00016">
        <time>2018-04-24T00:23:06Z</time>
      </trkpt>
      <trkpt lat="52.00384" lon="6.00072">
        <time>2018-04-24T00:23:07Z</time>
      </trkpt>
      <trkpt lat="52.00419" lon="6.00207">
        <time>2018-04-24T00:23:09Z</time>
      </trkpt>
      <trkpt lat="52.00436" lon="6.00275">
        <time>2018-04-24T00:23:10Z</time>
      </trkpt>
      <trkpt lat="52.0046" lon="6.0035">
        <time>2018-04-24T00:23:12Z</time>
      </trkpt>
      <trkpt lat="52.00474" lon="6.00384">
        <time>2018-04-24T00:23:12Z</time>
      </trkpt>
      <trkpt lat="52.00505" lon="6.00517">
        <time>2018-04-24T00:23:15Z</time>
      </trkpt>
      <trkpt lat="52.00539" lon="6.00666">
        <time>2018-04-24T00:23:17Z</time>
      </trkpt>
      <trkpt lat="52.00549" lon="6.00711">
        <time>2018-04-24T00:23:18Z</time>
      </trkpt>
      <trkpt lat="52.00561" lon="6.00767">
        <time>2018-04-24T00:23:19Z</time>
      </trkpt>
      <trkpt lat="52.0058" lon="6.00881">
        <time>2018-04-24T00:23:21Z</time>
      </trkpt>
      <trkpt lat="52.00618" lon="6.01138">
        <time>2018-04-24T00:23:25Z</time>
      </trkpt>
      <trkpt lat="52.00632" lon="6.01259">
        <time>2018-04-24T00:23:27Z</time>
      </trkpt>
      <trkpt lat="52.0064" lon="6.01347">
        <time>2018-04-24T00:23:28Z</time>
      </trkpt>
      <trkpt lat="52.00649" lon="6.01408">
        <time>2018-04-24T00:23:30Z</time>
      </trkpt>
      <trkpt lat="52.00665" lon="6.0148">
        <time>2018-04-24T00:23:31Z</time>
      </trkpt>
      <trkpt lat="52.00665" lon="6.01496">
        <time>2018-04-24T00:23:31Z</time>
      </trkpt>
      <trkpt lat="52.00674" lon="6.01536">
        <time>2018-04-24T00:23:32Z</time>
      </trkpt>
      <trkpt lat="52.00688" lon="6.01593">
        <time>2018-04-24T00:23:33Z</time>
      </trkpt>
      <trkpt lat="52.00706" lon="6.01673">
        <time>2018-04-24T00:23:34Z</time>
      </trkpt>
      <trkpt lat="52.00705" lon="6.01678">
        <time>2018-04-24T00:23:34Z</time>
      </trkpt>
      <trkpt lat="52.00704" lon="6.01693">
        <time>2018-04-24T00:23:34Z</time>
      </trkpt>
      <trkpt lat="52.00708" lon="6.01704">
        <time>2018-04-24T00:23:35Z</time>
      </trkpt>
      <trkpt lat="52.00715" lon="6.01711">
        <time>2018-04-24T00:23:35Z</time>
      </trkpt>
      <trkpt lat="52.00719" lon="6.01712">
        <time>2018-04-24T00:23:35Z</time>
      </trkpt>
      <trkpt lat="52.00721" lon="6.01711">
        <time>2018-04-24T00:23:35Z</time>
      </trkpt>
      <trkpt lat="52.00728" lon="6.01727">
        <time>2018-04-24T00:23:35Z</time>
      </trkpt>
      <trkpt lat="52.0074" lon="6.01766">
        <time>2018-04-24T00:23:36Z</time>
      </trkpt>
      <trkpt lat="52.00746" lon="6.01776">
        <time>2018-04-24T00:23:36Z</time>
      </trkpt>
      <trkpt lat="52.00775" lon="6.01889">
        <time>2018-04-24T00:23:38Z</time>
      </trkpt>
      <trkpt lat="52.00844" lon="6.02151">
        <time>2018-04-24T00:23:43Z</time>
      </trkpt>
      <trkpt lat="52.00912" lon="6.02416">
        <time>2018-04-24T00:23:48Z</time>
      </trkpt>
      <trkpt lat="52.00944" lon="6.0254">
        <time>2018-04-24T00:23:50Z</time>
      </trkpt>
      <trkpt lat="52.00959" lon="6.02602">
        <time>2018-04-24T00:23:51Z</time>
      </trkpt>
      <trkpt lat="52.00962" lon="6.02624">
        <time>2018-04-24T00:23:51Z</time>
      </trkpt>
      <trkpt lat="52.0099" lon="6.02726">
        <time>2018-04-24T00:23:53Z</time>
      </trkpt>
      <trkpt lat="52.01013" lon="6.02809">
        <time>2018-04-24T00:23:54Z</time>
      </trkpt>
      <trkpt lat="52.01054" lon="6.0296">
        <time>2018-04-24T00:23:57Z</time>
      </trkpt>
      <trkpt lat="52.0108" lon="6.0303">
        <time>2018-04-24T00:23:58Z</time>
      </trkpt>
      <trkpt lat="52.01086" lon="6.03044">
        <time>2018-04-24T00:23:59Z</time>
      </trkpt>
      <trkpt lat="52.01085" lon="6.03045">
        <time>2018-04-24T00:23:59Z</time>
      </trkpt>
      <trkpt lat="52.01084" lon="6.03047">
        <time>2018-04-24T00:23:59Z</time>
      </trkpt>
      <trkpt lat="52.01082" lon="6.03054">
        <time>2018-04-24T00:23:59Z</time>
      </trkpt>
      <trkpt lat="52.01082" lon="6.03061">
        <time>2018-04-24T00:23:59Z</time>
      </trkpt>
      <trkpt lat="52.01086" lon="6.03073">
        <time>2018-04-24T00:23:59Z</time>
      </trkpt>
      <trkpt lat="52.0109" lon="6.03075">
        <time>2018-04-24T00:23:59Z</time>
      </trkpt>
      <trkpt lat="52.01095" lon="6.03075">
        <time>2018-04-24T00:24:00Z</time>
      </trkpt>
      <trkpt lat="52.01099" lon="6.03072">
        <time>2018-04-24T00:24:00Z</time>
      </trkpt>
      <trkpt lat="52.01102" lon="6.03067">
        <time>2018-04-24T00:24:00Z</time>
      </trkpt>
      <trkpt lat="52.01103" lon="6.0306">
        <time>2018-04-24T00:24:00Z</time>
      </trkpt>
      <trkpt lat="52.0113" lon="6.03051">
        <time>2018-04-24T00:24:01Z</time>
      </trkpt>
      <trkpt lat="52.01142" lon="6.03044">
        <time>2018-04-24T00:24:01Z</time>
      </trkpt>
      <trkpt lat="52.01158" lon="6.03051">
        <time>2018-04-24T00:24:01Z</time>
      </trkpt>
      <trkpt lat="52.01166" lon="6.03054">
        <time>2018-04-24T00:24:02Z</time>
      </trkpt>
      <trkpt lat="52.01176" lon="6.03054">
        <time>2018-04-24T00:24:02Z</time>
      </trkpt>
      <trkpt lat="52.01195" lon="6.0305">
        <time>2018-04-24T00:24:02Z</time>
      </trkpt>
      <trkpt lat="52.01217" lon="6.03039">
        <time>2018-04-24T00:24:03Z</time>
      </trkpt>
      <trkpt lat="52.01423" lon="6.0293">
        <time>2018-04-24T00:24:09Z</time>
      </trkpt>
      <trkpt lat="52.01446" lon="6.02924">
        <time>2018-04-24T00:24:09Z</time>
      </trkpt>
      <trkpt lat="52.01464" lon="6.02922">
        <time>2018-04-24T00:24:10Z</time>
      </trkpt>
      <trkpt lat="52.01485" lon="6.02921">
        <time>2018-04-24T00:24:10Z</time>
      </trkpt>
      <trkpt lat="52.01505" lon="6.02921">
        <time>2018-04-24T00:24:11Z</time>
      </trkpt>
      <trkpt lat="52.0155" lon="6.02916">
        <time>2018-04-24T00:24:12Z</time>
      </trkpt>
      <trkpt lat="52.01563" lon="6.02911">
        <time>2018-04-24T00:24:12Z</time>
      </trkpt>
      <trkpt lat="52.01576" lon="6.029">
        <time>2018-04-24T00:24:13Z</time>
      </trkpt>
      <trkpt lat="52.01592" lon="6.02875">
        <time>2018-04-24T00:24:13Z</time>
      </trkpt>
      <trkpt lat="52.01623" lon="6.02814">
        <time>2018-04-24T00:24:15Z</time>
      </trkpt>
      <trkpt lat="52.01635" lon="6.02813">
        <time>2018-04-24T00:24:15Z</time>
      </trkpt>
      <trkpt lat="52.01654" lon="6.02807">
        <time>2018-04-24T00:24:16Z</time>
      </trkpt>
      <trkpt lat="52.0167" lon="6.02799">
        <time>2018-04-24T00:24:16Z</time>
      </trkpt>
      <trkpt lat="52.017" lon="6.02792">
        <time>2018-04-24T00:24:17Z</time>
      </trkpt>
      <trkpt lat="52.01735" lon="6.02785">
        <time>2018-04-24T00:24:18Z</time>
      </trkpt>
      <trkpt lat="52.01777" lon="6.02786">
        <time>2018-04-24T00:24:19Z</time>
      </trkpt>
      <trkpt lat="52.01832" lon="6.02793">
        <time>2018-04-24T00:24:20Z</time>
      </trkpt>
      <trkpt lat="52.01897" lon="6.02793">
        <time>2018-04-24T00:24:22Z</time>
      </trkpt>
      <trkpt lat="52.01934" lon="6.02795">
        <time>2018-04-24T00:24:23Z</time>
      </trkpt>
      <trkpt lat="52.01944" lon="6.02793">
        <time>2018-04-24T00:24:23Z</time>
      </trkpt>
      <trkpt lat="52.01954" lon="6.02788">
        <time>2018-04-24T00:24:23Z</time>
      </trkpt>
      <trkpt lat="52.01961" lon="6.02782">
        <time>2018-04-24T00:24:24Z</time>
      </trkpt>
      <trkpt lat="52.01969" lon="6.02772">
        <time>2018-04-24T00:24:24Z</time>
      </trkpt>
      <trkpt lat="52.01987" lon="6.02734">
        <time>2018-04-24T00:24:25Z</time>
      </trkpt>
      <trkpt lat="52.01999" lon="6.0271">
        <time>2018-04-24T00:24:25Z</time>
      </trkpt>
      <trkpt lat="52.0201" lon="6.02694">
        <time>2018-04-24T00:24:26Z</time>
      </trkpt>
      <trkpt lat="52.02034" lon="6.02668">
        <time>2018-04-24T00:24:26Z</time>
      </trkpt>
      <trkpt lat="52.02048" lon="6.02656">
        <time>2018-04-24T00:24:27Z</time>
      </trkpt>
      <trkpt lat="52.02069" lon="6.02644">
        <time>2018-04-24T00:24:27Z</time>
      </trkpt>
      <trkpt lat="52.02083" lon="6.02641">
        <time>2018-04-24T00:24:28Z</time>
      </trkpt>
      <trkpt lat="52.02096" lon="6.02643">
        <time>2018-04-24T00:24:28Z</time>
      </trkpt>
      <trkpt lat="52.02115" lon="6.02644">
        <time>2018-04-24T00:24:29Z</time>
      </trkpt>
      <trkpt lat="52.02132" lon="6.02635">
        <time>2018-04-24T00:24:29Z</time>
      </trkpt>
      <trkpt lat="52.02138" lon="6.0263">
        <time>2018-04-24T00:24:29Z</time>
      </trkpt>
      <trkpt lat="52.02163" lon="6.02606">
        <time>2018-04-24T00:24:30Z</time>
      </trkpt>
      <trkpt lat="52.02179" lon="6.02588">
        <time>2018-04-24T00:24:31Z</time>
      </trkpt>
      <trkpt lat="52.02203" lon="6.02567">
        <time>2018-04-24T00:24:31Z</time>
      </trkpt>
      <trkpt lat="52.02218" lon="6.02559">
        <time>2018-04-24T00:24:32Z</time>
      </trkpt>
      <trkpt lat="52.02234" lon="6.02551">
        <time>2018-04-24T00:24:32Z</time>
      </trkpt>
      <trkpt lat="52.02258" lon="6.02545">
        <time>2018-04-24T00:24:33Z</time>
      </trkpt>
      <trkpt lat="52.02274" lon="6.02546">
        <time>2018-04-24T00:24:33Z</time>
      </trkpt>
      <trkpt lat="52.02284" lon="6.02549">
        <time>2018-04-24T00:24:33Z</time>
      </trkpt>
      <trkpt lat="52.02368" lon="6.02591">
        <time>2018-04-24T00:24:36Z</time>
      </trkpt>
      <trkpt lat="52.0239" lon="6.02592">
        <time>2018-04-24T00:24:36Z</time>
      </trkpt>
      <trkpt lat="52.02406" lon="6.02582">
        <time>2018-04-24T00:24:37Z</time>
      </trkpt>
      <trkpt lat="52.02514" lon="6.02472">
        <time>2018-04-24T00:24:40Z</time>
      </trkpt>
      <trkpt lat="52.02553" lon="6.02403">
        <time>2018-04-24T00:24:42Z</time>
      </trkpt>
      <trkpt lat="52.02583" lon="6.0235">
        <time>2018-04-24T00:24:43Z</time>
      </trkpt>
      <trkpt lat="52.02634" lon="6.02275">
        <time>2018-04-24T00:24:45Z</time>
      </trkpt>
      <trkpt lat="52.02688" lon="6.02214">
        <time>2018-04-24T00:24:46Z</time>
      </trkpt>
      <trkpt lat="52.02752" lon="6.02151">
        <time>2018-04-24T00:24:48Z</time>
      </trkpt>
      <trkpt lat="52.02769" lon="6.02137">
        <time>2018-04-24T00:24:49Z</time>
      </trkpt>
      <trkpt lat="52.02779" lon="6.02135">
        <time>2018-04-24T00:24:49Z</time>
      </trkpt>
      <trkpt lat="52.02797" lon="6.0214">
        <time>2018-04-24T00:24:50Z</time>
      </trkpt>
      <trkpt lat="52.02833" lon="6.02166">
        <time>2018-04-24T00:24:51Z</time>
      </trkpt>
      <trkpt lat="52.02833" lon="6.02166">
        <time>2018-04-24T00:24:51Z</time>
      </trkpt>
      <trkpt lat="52.02859" lon="6.02177">
        <time>2018-04-24T00:24:51Z</time>
      </trkpt>
      <trkpt lat="52.02871" lon="6.02159">
        <time>2018-04-24T00:24:52Z</time>
      </trkpt>
      <trkpt lat="52.02876" lon="6.02152">
        <time>2018-04-24T00:24:52Z</time>
      </trkpt>
      <trkpt lat="52.03" lon="6.02004">
        <time>2018-04-24T00:24:56Z</time>
      </trkpt>
      <trkpt lat="52.03027" lon="6.01981">
        <time>2018-04-24T00:24:57Z</time>
      </trkpt>
      <trkpt lat="52.03027" lon="6.01981">
        <time>2018-04-24T00:24:57Z</time>
      </trkpt>
      <trkpt lat="52.03032" lon="6.01976">
        <time>2018-04-24T00:24:57Z</time>
      </trkpt>
      <trkpt lat="52.03067" lon="6.01964">
        <time>2018-04-24T00:24:58Z</time>
      </trkpt>
      <trkpt lat="52.03125" lon="6.01966">
        <time>2018-04-24T00:24:59Z</time>
      </trkpt>
      <trkpt lat="52.03259" lon="6.01894">
        <time>2018-04-24T00:25:03Z</time>
      </trkpt>
      <trkpt lat="52.03345" lon="6.01809">
        <time>2018-04-24T00:25:06Z</time>
      </trkpt>
      <trkpt lat="52.03404" lon="6.01734">
        <time>2018-04-24T00:25:08Z</time>
      </trkpt>
      <trkpt lat="52.03439" lon="6.01659">
        <time>2018-04-24T00:25:09Z</time>
      </trkpt>
      <trkpt lat="52.03462" lon="6.01574">
        <time>2018-04-24T00:25:11Z</time>
      </trkpt>
      <trkpt lat="52.03477" lon="6.01475">
        <time>2018-04-24T00:25:13Z</time>
      </trkpt>
      <trkpt lat="52.0348" lon="6.01386">
        <time>2018-04-24T00:25:14Z</time>
      </trkpt>
      <trkpt lat="52.03479" lon="6.01328">
        <time>2018-04-24T00:25:15Z</time>
      </trkpt>
      <trkpt lat="52.03473" lon="6.01262">
        <time>2018-04-24T00:25:16Z</time>
      </trkpt>
      <trkpt lat="52.03458" lon="6.01177">
        <time>2018-04-24T00:25:17Z</time>
      </trkpt>
      <trkpt lat="52.03433" lon="6.01066">
        <time>2018-04-24T00:25:19Z</time>
      </trkpt>
      <trkpt lat="52.03426" lon="6.01037">
        <time>2018-04-24T00:25:20Z</time>
      </trkpt>
      <trkpt lat="52.0342" lon="6.0102">
        <time>2018-04-24T00:25:20Z</time>
      </trkpt>
      <trkpt lat="52.03415" lon="6.0101">
        <time>2018-04-24T00:25:20Z</time>
      </trkpt>
      <trkpt lat="52.03403" lon="6.00993">
        <time>2018-04-24T00:25:21Z</time>
      </trkpt>
      <trkpt lat="52.03391" lon="6.00983">
        <time>2018-04-24T00:25:21Z</time>
      </trkpt>
      <trkpt lat="52.03381" lon="6.00979">
        <time>2018-04-24T00:25:21Z</time>
      </trkpt>
      <trkpt lat="52.03369" lon="6.00978">
        <time>2018-04-24T00:25:22Z</time>
      </trkpt>
      <trkpt lat="52.03348" lon="6.00982">
        <time>2018-04-24T00:25:22Z</time>
      </trkpt>
      <trkpt lat="52.03312" lon="6.00993">
        <time>2018-04-24T00:25:23Z</time>
      </trkpt>
      <trkpt lat="52.03289" lon="6.01002">
        <time>2018-04-24T00:25:24Z</time>
      </trkpt>
      <trkpt lat="52.03278" lon="6.01003">
        <time>2018-04-24T00:25:24Z</time>
      </trkpt>
      <trkpt lat="52.03263" lon="6.01003">
        <time>2018-04-24T00:25:25Z</time>
      </trkpt>
      <trkpt lat="52.03249" lon="6.00995">
        <time>2018-04-24T00:25:25Z</time>
      </trkpt>
      <trkpt lat="52.03234" lon="6.00978">
        <time>2018-04-24T00:25:25Z</time>
      </trkpt>
      <trkpt lat="52.0318" lon="6.00897">
        <time>2018-04-24T00:25:27Z</time>
      </trkpt>
      <trkpt lat="52.03178" lon="6.00895">
        <time>2018-04-24T00:25:27Z</time>
      </trkpt>
      <trkpt lat="52.03178" lon="6.00895">
        <time>2018-04-24T00:25:27Z</time>
      </trkpt>
      <trkpt lat="52.03157" lon="6.0086">
        <time>2018-04-24T00:25:28Z</time>
      </trkpt>
      <trkpt lat="52.03147" lon="6.00837">
        <time>2018-04-24T00:25:29Z</time>
      </trkpt>
      <trkpt lat="52.03143" lon="6.00829">
        <time>2018-04-24T00:25:29Z</time>
      </trkpt>
      <trkpt lat="52.03131" lon="6.00775">
        <time>2018-04-24T00:25:30Z</time>
      </trkpt>
      <trkpt lat="52.03111" lon="6.00674">
        <time>2018-04-24T00:25:32Z</time>
      </trkpt>
      <trkpt lat="52.031" lon="6.00633">
        <time>2018-04-24T00:25:32Z</time>
      </trkpt>
      <trkpt lat="52.03081" lon="6.00592">
        <time>2018-04-24T00:25:33Z</time>
      </trkpt>
      <trkpt lat="52.03023" lon="6.00527">
        <time>2018-04-24T00:25:35Z</time>
      </trkpt>
      <trkpt lat="52.03009" lon="6.00506">
        <time>2018-04-24T00:25:35Z</time>
      </trkpt>
      <trkpt lat="52.03" lon="6.00478">
        <time>2018-04-24T00:25:36Z</time>
      </trkpt>
      <trkpt lat="52.02992" lon="6.00423">
        <time>2018-04-24T00:25:37Z</time>
      </trkpt>
      <trkpt lat="52.02987" lon="6.00401">
        <time>2018-04-24T00:25:37Z</time>
      </trkpt>
      <trkpt lat="52.02981" lon="6.0039">
        <time>2018-04-24T00:25:38Z</time>
      </trkpt>
      <trkpt lat="52.02967" lon="6.00377">
        <time>2018-04-24T00:25:38Z</time>
      </trkpt>
      <trkpt lat="52.0292" lon="6.00349">
        <time>2018-04-24T00:25:39Z</time>
      </trkpt>
      <trkpt lat="52.02866" lon="6.00297">
        <time>2018-04-24T00:25:41Z</time>
      </trkpt>
      <trkpt lat="52.02852" lon="6.00287">
        <time>2018-04-24T00:25:41Z</time>
      </trkpt>
      <trkpt lat="52.02815" lon="6.0027">
        <time>2018-04-24T00:25:42Z</time>
      </trkpt>
      <trkpt lat="52.0276" lon="6.00256">
        <time>2018-04-24T00:25:44Z</time>
      </trkpt>
      <trkpt lat="52.02744" lon="6.00254">
        <time>2018-04-24T00:25:44Z</time>
      </trkpt>
      <trkpt lat="52.02723" lon="6.00252">
        <time>2018-04-24T00:25:45Z</time>
      </trkpt>
      <trkpt lat="52.02716" lon="6.00252">
        <time>2018-04-24T00:25:45Z</time>
      </trkpt>
      <trkpt lat="52.02696" lon="6.00267">
        <time>2018-04-24T00:25:46Z</time>
      </trkpt>
      <trkpt lat="52.02666" lon="6.00289">
        <time>2018-04-24T00:25:46Z</time>
      </trkpt>
      <trkpt lat="52.02636" lon="6.00311">
        <time>2018-04-24T00:25:47Z</time>
      </trkpt>
      <trkpt lat="52.02573" lon="6.00365">
        <time>2018-04-24T00:25:49Z</time>
      </trkpt>
      <trkpt lat="52.02557" lon="6.0037">
        <time>2018-04-24T00:25:50Z</time>
      </trkpt>
      <trkpt lat="52.02545" lon="6.00371">
        <time>2018-04-24T00:25:50Z</time>
      </trkpt>
      <trkpt lat="52.02523" lon="6.00369">
        <time>2018-04-24T00:25:51Z</time>
      </trkpt>
      <trkpt lat="52.02484" lon="6.00359">
        <time>2018-04-24T00:25:52Z</time>
      </trkpt>
      <trkpt lat="52.02466" lon="6.00348">
        <time>2018-04-24T00:25:52Z</time>
      </trkpt>
      <trkpt lat="52.02444" lon="6.00326">
        <time>2018-04-24T00:25:53Z</time>
      </trkpt>
      <trkpt lat="52.02435" lon="6.00305">
        <time>2018-04-24T00:25:53Z</time>
      </trkpt>
      <trkpt lat="52.02434" lon="6.0028">
        <time>2018-04-24T00:25:54Z</time>
      </trkpt>
      <trkpt lat="52.02437" lon="6.00255">
        <time>2018-04-24T00:25:54Z</time>
      </trkpt>
      <trkpt lat="52.02484" lon="6.00164">
        <time>2018-04-24T00:25:56Z</time>
      </trkpt>
      <trkpt lat="52.02497" lon="6.00136">
        <time>2018-04-24T00:25:56Z</time>
      </trkpt>
      <trkpt lat="52.02502" lon="6.00117">
        <time>2018-04-24T00:25:57Z</time>
      </trkpt>
      <trkpt lat="52.02499" lon="6.00086">
        <time>2018-04-24T00:25:57Z</time>
      </trkpt>
      <trkpt lat="52.02473" lon="6.00025">
        <time>2018-04-24T00:25:59Z</time>
      </trkpt>
      <trkpt lat="52.02449" lon="5.99968">
        <time>2018-04-24T00:26:00Z</time>
      </trkpt>
      <trkpt lat="52.02447" lon="5.99947">
        <time>2018-04-24T00:26:00Z</time>
      </trkpt>
      <trkpt lat="52.02452" lon="5.99906">
        <time>2018-04-24T00:26:01Z</time>
      </trkpt>
      <trkpt lat="52.02468" lon="5.99815">
        <time>2018-04-24T00:26:02Z</time>
      </trkpt>
      <trkpt lat="52.02473" lon="5.99777">
        <time>2018-04-24T00:26:03Z</time>
      </trkpt>
      <trkpt lat="52.02469" lon="5.99758">
        <time>2018-04-24T00:26:03Z</time>
      </trkpt>
      <trkpt lat="52.02461" lon="5.99744">
        <time>2018-04-24T00:26:03Z</time>
      </trkpt>
      <trkpt lat="52.02444" lon="5.9973">
        <time>2018-04-24T00:26:04Z</time>
      </trkpt>
      <trkpt lat="52.02425" lon="5.99719">
        <time>2018-04-24T00:26:05Z</time>
      </trkpt>
      <trkpt lat="52.02405" lon="5.99714">
        <time>2018-04-24T00:26:05Z</time>
      </trkpt>
      <trkpt lat="52.02395" lon="5.99715">
        <time>2018-04-24T00:26:05Z</time>
      </trkpt>
      <trkpt lat="52.02385" lon="5.99719">
        <time>2018-04-24T00:26:06Z</time>
      </trkpt>
      <trkpt lat="52.02364" lon="5.99736">
        <time>2018-04-24T00:26:06Z</time>
      </trkpt>
      <trkpt lat="52.02352" lon="5.99755">
        <time>2018-04-24T00:26:07Z</time>
      </trkpt>
      <trkpt lat="52.02336" lon="5.99794">
        <time>2018-04-24T00:26:07Z</time>
      </trkpt>
      <trkpt lat="52.02332" lon="5.99823">
        <time>2018-04-24T00:26:08Z</time>
      </trkpt>
      <trkpt lat="52.02332" lon="5.99842">
        <time>2018-04-24T00:26:08Z</time>
      </trkpt>
      <trkpt lat="52.02332" lon="5.99863">
        <time>2018-04-24T00:26:09Z</time>
      </trkpt>
      <trkpt lat="52.02331" lon="5.99878">
        <time>2018-04-24T00:26:09Z</time>
      </trkpt>
      <trkpt lat="52.02326" lon="5.99888">
        <time>2018-04-24T00:26:09Z</time>
      </trkpt>
      <trkpt lat="52.0231" lon="5.99892">
        <time>2018-04-24T00:26:09Z</time>
      </trkpt>
      <trkpt lat="52.02261" lon="5.99896">
        <time>2018-04-24T00:26:11Z</time>
      </trkpt>
      <trkpt lat="52.02248" lon="5.99896">
        <time>2018-04-24T00:26:11Z</time>
      </trkpt>
      <trkpt lat="52.02235" lon="5.99892">
        <time>2018-04-24T00:26:11Z</time>
      </trkpt>
      <trkpt lat="52.02224" lon="5.99883">
        <time>2018-04-24T00:26:12Z</time>
      </trkpt>
      <trkpt lat="52.02208" lon="5.99872">
        <time>2018-04-24T00:26:12Z</time>
      </trkpt>
      <trkpt lat="52.022" lon="5.99876">
        <time>2018-04-24T00:26:12Z</time>
      </trkpt>
      <trkpt lat="52.02196" lon="5.99894">
        <time>2018-04-24T00:26:13Z</time>
      </trkpt>
      <trkpt lat="52.02201" lon="5.99932">
        <time>2018-04-24T00:26:13Z</time>
      </trkpt>
      <trkpt lat="52.02212" lon="5.99984">
        <time>2018-04-24T00:26:14Z</time>
      </trkpt>
      <trkpt lat="52.02246" lon="6.00072">
        <time>2018-04-24T00:26:16Z</time>
      </trkpt>
      <trkpt lat="52.02246" lon="6.00072">
        <time>2018-04-24T00:26:16Z</time>
      </trkpt>
      <trkpt lat="52.02266" lon="6.00123">
        <time>2018-04-24T00:26:17Z</time>
      </trkpt>
      <trkpt lat="52.0228" lon="6.00171">
        <time>2018-04-24T00:26:18Z</time>
      </trkpt>
      <trkpt lat="52.02284" lon="6.00201">
        <time>2018-04-24T00:26:18Z</time>
      </trkpt>
      <trkpt lat="52.02283" lon="6.00223">
        <time>2018-04-24T00:26:19Z</time>
      </trkpt>
      <trkpt lat="52.0228" lon="6.00236">
        <time>2018-04-24T00:26:19Z</time>
      </trkpt>
      <trkpt lat="52.02272" lon="6.00247">
        <time>2018-04-24T00:26:19Z</time>
      </trkpt>
      <trkpt lat="52.02256" lon="6.00247">
        <time>2018-04-24T00:26:20Z</time>
      </trkpt>
      <trkpt lat="52.02241" lon="6.0024">
        <time>2018-04-24T00:26:20Z</time>
      </trkpt>
      <trkpt lat="52.0223" lon="6.00234">
        <time>2018-04-24T00:26:20Z</time>
      </trkpt>
      <trkpt lat="52.0221" lon="6.00214">
        <time>2018-04-24T00:26:21Z</time>
      </trkpt>
      <trkpt lat="52.02165" lon="6.00147">
        <time>2018-04-24T00:26:23Z</time>
      </trkpt>
      <trkpt lat="52.02146" lon="6.001">
        <time>2018-04-24T00:26:23Z</time>
      </trkpt>
      <trkpt lat="52.02131" lon="6.0005">
        <time>2018-04-24T00:26:24Z</time>
      </trkpt>
      <trkpt lat="52.0211" lon="5.99951">
        <time>2018-04-24T00:26:26Z</time>
      </trkpt>
      <trkpt lat="52.02107" lon="5.99927">
        <time>2018-04-24T00:26:26Z</time>
      </trkpt>
      <trkpt lat="52.02105" lon="5.99832">
        <time>2018-04-24T00:26:28Z</time>
      </trkpt>
      <trkpt lat="52.02103" lon="5.99766">
        <time>2018-04-24T00:26:29Z</time>
      </trkpt>
      <trkpt lat="52.02096" lon="5.99724">
        <time>2018-04-24T00:26:30Z</time>
      </trkpt>
      <trkpt lat="52.02081" lon="5.99663">
        <time>2018-04-24T00:26:31Z</time>
      </trkpt>
      <trkpt lat="52.0206" lon="5.996">
        <time>2018-04-24T00:26:32Z</time>
      </trkpt>
      <trkpt lat="52.02037" lon="5.99534">
        <time>2018-04-24T00:26:33Z</time>
      </trkpt>
      <trkpt lat="52.02023" lon="5.9951">
        <time>2018-04-24T00:26:34Z</time>
      </trkpt>
      <trkpt lat="52.01975" lon="5.99439">
        <time>2018-04-24T00:26:35Z</time>
      </trkpt>
      <trkpt lat="52.01944" lon="5.99391">
        <time>2018-04-24T00:26:37Z</time>
      </trkpt>
      <trkpt lat="52.01936" lon="5.99366">
        <time>2018-04-24T00:26:37Z</time>
      </trkpt>
      <trkpt lat="52.01923" lon="5.99324">
        <time>2018-04-24T00:26:38Z</time>
      </trkpt>
      <trkpt lat="52.01905" lon="5.9929">
        <time>2018-04-24T00:26:39Z</time>
      </trkpt>
      <trkpt lat="52.01886" lon="5.99265">
        <time>2018-04-24T00:26:39Z</time>
      </trkpt>
      <trkpt lat="52.01886" lon="5.99265">
        <time>2018-04-24T00:26:39Z</time>
      </trkpt>
      <trkpt lat="52.01791" lon="5.991">
        <time>2018-04-24T00:26:43Z</time>
      </trkpt>
      <trkpt lat="52.01754" lon="5.99047">
        <time>2018-04-24T00:26:44Z</time>
      </trkpt>
      <trkpt lat="52.01719" lon="5.99008">
        <time>2018-04-24T00:26:45Z</time>
      </trkpt>
      <trkpt lat="52.01694" lon="5.98985">
        <time>2018-04-24T00:26:46Z</time>
      </trkpt>
      <trkpt lat="52.01665" lon="5.98953">
        <time>2018-04-24T00:26:47Z</time>
      </trkpt>
      <trkpt lat="52.01652" lon="5.98938">
        <time>2018-04-24T00:26:47Z</time>
      </trkpt>
      <trkpt lat="52.01607" lon="5.98899">
        <time>2018-04-24T00:26:49Z</time>
      </trkpt>
      <trkpt lat="52.01563" lon="5.98857">
        <time>2018-04-24T00:26:50Z</time>
      </trkpt>
      <trkpt lat="52.01548" lon="5.98827">
        <time>2018-04-24T00:26:51Z</time>
      </trkpt>
      <trkpt lat="52.01518" lon="5.98752">
        <time>2018-04-24T00:26:52Z</time>
      </trkpt>
      <trkpt lat="52.01509" lon="5.9872">
        <time>2018-04-24T00:26:53Z</time>
      </trkpt>
      <trkpt lat="52.01508" lon="5.98703">
        <time>2018-04-24T00:26:53Z</time>
      </trkpt>
      <trkpt lat="52.01511" lon="5.98659">
        <time>2018-04-24T00:26:54Z</time>
      </trkpt>
      <trkpt lat="52.01509" lon="5.98651">
        <time>2018-04-24T00:26:54Z</time>
      </trkpt>
      <trkpt lat="52.01498" lon="5.98636">
        <time>2018-04-24T00:26:54Z</time>
      </trkpt>
      <trkpt lat="52.01498" lon="5.98627">
        <time>2018-04-24T00:26:54Z</time>
      </trkpt>
      <trkpt lat="52.015" lon="5.98605">
        <time>2018-04-24T00:26:55Z</time>
      </trkpt>
      <trkpt lat="52.01503" lon="5.98579">
        <time>2018-04-24T00:26:55Z</time>
      </trkpt>
      <trkpt lat="52.01499" lon="5.98556">
        <time>2018-04-24T00:26:56Z</time>
      </trkpt>
      <trkpt lat="52.01477" lon="5.98515">
        <time>2018-04-24T00:26:56Z</time>
      </trkpt>
      <trkpt lat="52.0146" lon="5.98478">
        <time>2018-04-24T00:26:57Z</time>
      </trkpt>
      <trkpt lat="52.0146" lon="5.98454">
        <time>2018-04-24T00:26:58Z</time>
      </trkpt>
      <trkpt lat="52.01466" lon="5.9844">
        <time>2018-04-24T00:26:58Z</time>
      </trkpt>
      <trkpt lat="52.0147" lon="5.98435">
        <time>2018-04-24T00:26:58Z</time>
      </trkpt>
      <trkpt lat="52.01494" lon="5.98427">
        <time>2018-04-24T00:26:59Z</time>
      </trkpt>
      <trkpt lat="52.01502" lon="5.98424">
        <time>2018-04-24T00:26:59Z</time>
      </trkpt>
      <trkpt lat="52.01506" lon="5.98414">
        <time>2018-04-24T00:26:59Z</time>
      </trkpt>
      <trkpt lat="52.01508" lon="5.98403">
        <time>2018-04-24T00:26:59Z</time>
      </trkpt>
      <trkpt lat="52.01482" lon="5.98326">
        <time>2018-04-24T00:27:01Z</time>
      </trkpt>
      <trkpt lat="52.01475" lon="5.98291">
        <time>2018-04-24T00:27:01Z</time>
      </trkpt>
      <trkpt lat="52.01476" lon="5.98244">
        <time>2018-04-24T00:27:02Z</time>
      </trkpt>
      <trkpt lat="52.0149" lon="5.98106">
        <time>2018-04-24T00:27:04Z</time>
      </trkpt>
      <trkpt lat="52.01499" lon="5.98023">
        <time>2018-04-24T00:27:06Z</time>
      </trkpt>
      <trkpt lat="52.01506" lon="5.98011">
        <time>2018-04-24T00:27:06Z</time>
      </trkpt>
      <trkpt lat="52.0151" lon="5.98009">
        <time>2018-04-24T00:27:06Z</time>
      </trkpt>
      <trkpt lat="52.01515" lon="5.98011">
        <time>2018-04-24T00:27:06Z</time>
      </trkpt>
      <trkpt lat="52.01519" lon="5.98016">
        <time>2018-04-24T00:27:06Z</time>
      </trkpt>
      <trkpt lat="52.0152" lon="5.98025">
        <time>2018-04-24T00:27:06Z</time>
      </trkpt>
      <trkpt lat="52.01517" lon="5.98038">
        <time>2018-04-24T00:27:07Z</time>
      </trkpt>
      <trkpt lat="52.01515" lon="5.98053">
        <time>2018-04-24T00:27:07Z</time>
      </trkpt>
      <trkpt lat="52.01519" lon="5.98072">
        <time>2018-04-24T00:27:07Z</time>
      </trkpt>
      <trkpt lat="52.01523" lon="5.9808">
        <time>2018-04-24T00:27:07Z</time>
      </trkpt>
      <trkpt lat="52.0153" lon="5.9808">
        <time>2018-04-24T00:27:08Z</time>
      </trkpt>
      <trkpt lat="52.01537" lon="5.98071">
        <time>2018-04-24T00:27:08Z</time>
      </trkpt>
      <trkpt lat="52.01541" lon="5.98053">
        <time>2018-04-24T00:27:08Z</time>
      </trkpt>
      <trkpt lat="52.01538" lon="5.98009">
        <time>2018-04-24T00:27:09Z</time>
      </trkpt>
      <trkpt lat="52.01445" lon="5.97773">
        <time>2018-04-24T00:27:13Z</time>
      </trkpt>
      <trkpt lat="52.01445" lon="5.97773">
        <time>2018-04-24T00:27:13Z</time>
      </trkpt>
      <trkpt lat="52.01305" lon="5.97421">
        <time>2018-04-24T00:27:20Z</time>
      </trkpt>
      <trkpt lat="52.0129" lon="5.97392">
        <time>2018-04-24T00:27:21Z</time>
      </trkpt>
      <trkpt lat="52.01269" lon="5.97362">
        <time>2018-04-24T00:27:22Z</time>
      </trkpt>
      <trkpt lat="52.01249" lon="5.97332">
        <time>2018-04-24T00:27:22Z</time>
      </trkpt>
      <trkpt lat="52.01194" lon="5.97313">
        <time>2018-04-24T00:27:24Z</time>
      </trkpt>
      <trkpt lat="52.01173" lon="5.97301">
        <time>2018-04-24T00:27:24Z</time>
      </trkpt>
      <trkpt lat="52.01164" lon="5.97288">
        <time>2018-04-24T00:27:25Z</time>
      </trkpt>
      <trkpt lat="52.01149" lon="5.97249">
        <time>2018-04-24T00:27:25Z</time>
      </trkpt>
      <trkpt lat="52.01137" lon="5.97217">
        <time>2018-04-24T00:27:26Z</time>
      </trkpt>
      <trkpt lat="52.0112" lon="5.97182">
        <time>2018-04-24T00:27:27Z</time>
      </trkpt>
      <trkpt lat="52.01082" lon="5.9714">
        <time>2018-04-24T00:27:28Z</time>
      </trkpt>
      <trkpt lat="52.01059" lon="5.97123">
        <time>2018-04-24T00:27:29Z</time>
      </trkpt>
      <trkpt lat="52.01038" lon="5.97102">
        <time>2018-04-24T00:27:29Z</time>
      </trkpt>
      <trkpt lat="52.00999" lon="5.97091">
        <time>2018-04-24T00:27:30Z</time>
      </trkpt>
      <trkpt lat="52.00978" lon="5.97081">
        <time>2018-04-24T00:27:31Z</time>
      </trkpt>
      <trkpt lat="52.00946" lon="5.97059">
        <time>2018-04-24T00:27:32Z</time>
      </trkpt>
      <trkpt lat="52.00934" lon="5.97045">
        <time>2018-04-24T00:27:32Z</time>
      </trkpt>
      <trkpt lat="52.00914" lon="5.97018">
        <time>2018-04-24T00:27:33Z</time>
      </trkpt>
      <trkpt lat="52.00907" lon="5.96998">
        <time>2018-04-24T00:27:33Z</time>
      </trkpt>
      <trkpt lat="52.00897" lon="5.96935">
        <time>2018-04-24T00:27:34Z</time>
      </trkpt>
      <trkpt lat="52.00892" lon="5.96893">
        <time>2018-04-24T00:27:35Z</time>
      </trkpt>
      <trkpt lat="52.00867" lon="5.96762">
        <time>2018-04-24T00:27:37Z</time>
      </trkpt>
      <trkpt lat="52.00847" lon="5.96684">
        <time>2018-04-24T00:27:39Z</time>
      </trkpt>
      <trkpt lat="52.00843" lon="5.96653">
        <time>2018-04-24T00:27:39Z</time>
      </trkpt>
      <trkpt lat="52.00845" lon="5.96603">
        <time>2018-04-24T00:27:40Z</time>
      </trkpt>
      <trkpt lat="52.00846" lon="5.96586">
        <time>2018-04-24T00:27:40Z</time>
      </trkpt>
      <trkpt lat="52.00836" lon="5.96559">
        <time>2018-04-24T00:27:41Z</time>
      </trkpt>
      <trkpt lat="52.00808" lon="5.96453">
        <time>2018-04-24T00:27:43Z</time>
      </trkpt>
      <trkpt lat="52.00771" lon="5.96308">
        <time>2018-04-24T00:27:45Z</time>
      </trkpt>
      <trkpt lat="52.00728" lon="5.96127">
        <time>2018-04-24T00:27:48Z</time>
      </trkpt>
      <trkpt lat="52.00718" lon="5.96086">
        <time>2018-04-24T00:27:49Z</time>
      </trkpt>
      <trkpt lat="52.00718" lon="5.96086">
        <time>2018-04-24T00:27:49Z</time>
      </trkpt>
      <trkpt lat="52.00707" lon="5.96041">
        <time>2018-04-24T00:27:50Z</time>
      </trkpt>
      <trkpt lat="52.00699" lon="5.96003">
        <time>2018-04-24T00:27:51Z</time>
      </trkpt>
      <trkpt lat="52.00701" lon="5.95988">
        <time>2018-04-24T00:27:51Z</time>
      </trkpt>
      <trkpt lat="52.00693" lon="5.95951">
        <time>2018-04-24T00:27:51Z</time>
      </trkpt>
      <trkpt lat="52.00694" lon="5.95949">
        <time>2018-04-24T00:27:51Z</time>
      </trkpt>
      <trkpt lat="52.00695" lon="5.95945">
        <time>2018-04-24T00:27:52Z</time>
      </trkpt>
      <trkpt lat="52.00696" lon="5.95941">
        <time>2018-04-24T00:27:52Z</time>
      </trkpt>
      <trkpt lat="52.00695" lon="5.95933">
        <time>2018-04-24T00:27:52Z</time>
      </trkpt>
      <trkpt lat="52.00694" lon="5.95928">
        <time>2018-04-24T00:27:52Z</time>
      </trkpt>
      <trkpt lat="52.00722" lon="5.95872">
        <time>2018-04-24T00:27:53Z</time>
      </trkpt>
      <trkpt lat="52.00732" lon="5.9585">
        <time>2018-04-24T00:27:53Z</time>
      </trkpt>
      <trkpt lat="52.00767" lon="5.95789">
        <time>2018-04-24T00:27:55Z</time>
      </trkpt>
      <trkpt lat="52.00796" lon="5.95736">
        <time>2018-04-24T00:27:56Z</time>
      </trkpt>
      <trkpt lat="52.00813" lon="5.95697">
        <time>2018-04-24T00:27:57Z</time>
      </trkpt>
      <trkpt lat="52.00827" lon="5.95654">
        <time>2018-04-24T00:27:58Z</time>
      </trkpt>
      <trkpt lat="52.00835" lon="5.95647">
        <time>2018-04-24T00:27:58Z</time>
      </trkpt>
      <trkpt lat="52.00868" lon="5.95579">
        <time>2018-04-24T00:27:59Z</time>
      </trkpt>
      <trkpt lat="52.00901" lon="5.95513">
        <time>2018-04-24T00:28:01Z</time>
      </trkpt>
      <trkpt lat="52.00902" lon="5.95506">
        <time>2018-04-24T00:28:01Z</time>
      </trkpt>
      <trkpt lat="52.00925" lon="5.95465">
        <time>2018-04-24T00:28:02Z</time>
      </trkpt>
      <trkpt lat="52.00961" lon="5.95404">
        <time>2018-04-24T00:28:03Z</time>
      </trkpt>
      <trkpt lat="52.0098" lon="5.9537">
        <time>2018-04-24T00:28:04Z</time>
      </trkpt>
      <trkpt lat="52.00985" lon="5.95354">
        <time>2018-04-24T00:28:04Z</time>
      </trkpt>
      <trkpt lat="52.00989" lon="5.95338">
        <time>2018-04-24T00:28:04Z</time>
      </trkpt>
      <trkpt lat="52.00997" lon="5.95277">
        <time>2018-04-24T00:28:05Z</time>
      </trkpt>
      <trkpt lat="52.01014" lon="5.95049">
        <time>2018-04-24T00:28:09Z</time>
      </trkpt>
      <trkpt lat="52.01053" lon="5.94511">
        <time>2018-04-24T00:28:18Z</time>
      </trkpt>
      <trkpt lat="52.01054" lon="5.94461">
        <time>2018-04-24T00:28:19Z</time>
      </trkpt>
      <trkpt lat="52.01053" lon="5.94401">
        <time>2018-04-24T00:28:20Z</time>
      </trkpt>
      <trkpt lat="52.01051" lon="5.94353">
        <time>2018-04-24T00:28:20Z</time>
      </trkpt>
      <trkpt lat="52.01045" lon="5.943">
        <time>2018-04-24T00:28:21Z</time>
      </trkpt>
      <trkpt lat="52.01035" lon="5.94218">
        <time>2018-04-24T00:28:23Z</time>
      </trkpt>
      <trkpt lat="52.01026" lon="5.94147">
        <time>2018-04-24T00:28:24Z</time>
      </trkpt>
      <trkpt lat="52.01008" lon="5.94">
        <time>2018-04-24T00:28:26Z</time>
      </trkpt>
      <trkpt lat="52.01002" lon="5.939">
        <time>2018-04-24T00:28:28Z</time>
      </trkpt>
      <trkpt lat="52.01" lon="5.93837">
        <time>2018-04-24T00:28:29Z</time>
      </trkpt>
      <trkpt lat="52.01003" lon="5.93559">
        <time>2018-04-24T00:28:33Z</time>
      </trkpt>
      <trkpt lat="52.00998" lon="5.93417">
        <time>2018-04-24T00:28:36Z</time>
      </trkpt>
      <trkpt lat="52.00994" lon="5.93361">
        <time>2018-04-24T00:28:37Z</time>
      </trkpt>
      <trkpt lat="52.00987" lon="5.93284">
        <time>2018-04-24T00:28:38Z</time>
      </trkpt>
      <trkpt lat="52.00979" lon="5.93222">
        <time>2018-04-24T00:28:39Z</time>
      </trkpt>
      <trkpt lat="52.00963" lon="5.93114">
        <time>2018-04-24T00:28:41Z</time>
      </trkpt>
      <trkpt lat="52.00943" lon="5.92985">
        <time>2018-04-24T00:28:43Z</time>
      </trkpt>
      <trkpt lat="52.00938" lon="5.92942">
        <time>2018-04-24T00:28:44Z</time>
      </trkpt>
      <trkpt lat="52.00933" lon="5.92888">
        <time>2018-04-24T00:28:44Z</time>
      </trkpt>
      <trkpt lat="52.00937" lon="5.92867">
        <time>2018-04-24T00:28:45Z</time>
      </trkpt>
      <trkpt lat="52.00937" lon="5.92839">
        <time>2018-04-24T00:28:45Z</time>
      </trkpt>
      <trkpt lat="52.00938" lon="5.9279">
        <time>2018-04-24T00:28:46Z</time>
      </trkpt>
      <trkpt lat="52.00938" lon="5.92651">
        <time>2018-04-24T00:28:48Z</time>
      </trkpt>
      <trkpt lat="52.00937" lon="5.9259">
        <time>2018-04-24T00:28:49Z</time>
      </trkpt>
      <trkpt lat="52.00937" lon="5.92505">
        <time>2018-04-24T00:28:51Z</time>
      </trkpt>
      <trkpt lat="52.00933" lon="5.92428">
        <time>2018-04-24T00:28:52Z</time>
      </trkpt>
      <trkpt lat="52.00931" lon="5.92404">
        <time>2018-04-24T00:28:52Z</time>
      </trkpt>
      <trkpt lat="52.00924" lon="5.92374">
        <time>2018-04-24T00:28:53Z</time>
      </trkpt>
      <trkpt lat="52.00912" lon="5.9228">
        <time>2018-04-24T00:28:54Z</time>
      </trkpt>
      <trkpt lat="52.00898" lon="5.92211">
        <time>2018-04-24T00:28:56Z</time>
      </trkpt>
      <trkpt lat="52.00881" lon="5.92136">
        <time>2018-04-24T00:28:57Z</time>
      </trkpt>
      <trkpt lat="52.00849" lon="5.92002">
        <time>2018-04-24T00:28:59Z</time>
      </trkpt>
      <trkpt lat="52.00843" lon="5.91962">
        <time>2018-04-24T00:29:00Z</time>
      </trkpt>
      <trkpt lat="52.00836" lon="5.91923">
        <time>2018-04-24T00:29:01Z</time>
      </trkpt>
      <trkpt lat="52.00806" lon="5.91447">
        <time>2018-04-24T00:29:08Z</time>
      </trkpt>
      <trkpt lat="52.00772" lon="5.90969">
        <time>2018-04-24T00:29:16Z</time>
      </trkpt>
      <trkpt lat="52.00772" lon="5.90969">
        <time>2018-04-24T00:29:16Z</time>
      </trkpt>
      <trkpt lat="52.0076" lon="5.9075">
        <time>2018-04-24T00:29:20Z</time>
      </trkpt>
      <trkpt lat="52.00758" lon="5.90707">
        <time>2018-04-24T00:29:20Z</time>
      </trkpt>
      <trkpt lat="52.00761" lon="5.90697">
        <time>2018-04-24T00:29:21Z</time>
      </trkpt>
      <trkpt lat="52.00761" lon="5.90647">
        <time>2018-04-24T00:29:21Z</time>
      </trkpt>
      <trkpt lat="52.00763" lon="5.90646">
        <time>2018-04-24T00:29:22Z</time>
      </trkpt>
      <trkpt lat="52.00764" lon="5.90643">
        <time>2018-04-24T00:29:22Z</time>
      </trkpt>
      <trkpt lat="52.00767" lon="5.90637">
        <time>2018-04-24T00:29:22Z</time>
      </trkpt>
      <trkpt lat="52.00767" lon="5.90629">
        <time>2018-04-24T00:29:22Z</time>
      </trkpt>
      <trkpt lat="52.00765" lon="5.90621">
        <time>2018-04-24T00:29:22Z</time>
      </trkpt>
      <trkpt lat="52.00761" lon="5.90616">
        <time>2018-04-24T00:29:22Z</time>
      </trkpt>
      <trkpt lat="52.00755" lon="5.90575">
        <time>2018-04-24T00:29:23Z</time>
      </trkpt>
      <trkpt lat="52.00752" lon="5.90545">
        <time>2018-04-24T00:29:23Z</time>
      </trkpt>
      <trkpt lat="52.0075" lon="5.90507">
        <time>2018-04-24T00:29:24Z</time>
      </trkpt>
      <trkpt lat="52.00738" lon="5.90378">
        <time>2018-04-24T00:29:26Z</time>
      </trkpt>
      <trkpt lat="52.00725" lon="5.90282">
        <time>2018-04-24T00:29:28Z</time>
      </trkpt>
      <trkpt lat="52.00669" lon="5.9">
        <time>2018-04-24T00:29:32Z</time>
      </trkpt>
      <trkpt lat="52.00657" lon="5.89945">
        <time>2018-04-24T00:29:33Z</time>
      </trkpt>
      <trkpt lat="52.00658" lon="5.89931">
        <time>2018-04-24T00:29:34Z</time>
      </trkpt>
      <trkpt lat="52.00658" lon="5.89921">
        <time>2018-04-24T00:29:34Z</time>
      </trkpt>
      <trkpt lat="52.00651" lon="5.89848">
        <time>2018-04-24T00:29:35Z</time>
      </trkpt>
      <trkpt lat="52.00625" lon="5.89595">
        <time>2018-04-24T00:29:39Z</time>
      </trkpt>
      <trkpt lat="52.00618" lon="5.89575">
        <time>2018-04-24T00:29:40Z</time>
      </trkpt>
      <trkpt lat="52.00613" lon="5.89549">
        <time>2018-04-24T00:29:40Z</time>
      </trkpt>
      <trkpt lat="52.00602" lon="5.895">
        <time>2018-04-24T00:29:41Z</time>
      </trkpt>
      <trkpt lat="52.00594" lon="5.89469">
        <time>2018-04-24T00:29:41Z</time>
      </trkpt>
      <trkpt lat="52.00591" lon="5.89445">
        <time>2018-04-24T00:29:42Z</time>
      </trkpt>
      <trkpt lat="52.00565" lon="5.89365">
        <time>2018-04-24T00:29:43Z</time>
      </trkpt>
      <trkpt lat="52.00575" lon="5.89357">
        <time>2018-04-24T00:29:44Z</time>
      </trkpt>
      <trkpt lat="52.00582" lon="5.89355">
        <time>2018-04-24T00:29:44Z</time>
      </trkpt>
      <trkpt lat="52.0059" lon="5.89356">
        <time>2018-04-24T00:29:44Z</time>
      </trkpt>
      <trkpt lat="52.00611" lon="5.89362">
        <time>2018-04-24T00:29:44Z</time>
      </trkpt>
      <trkpt lat="52.00912" lon="5.89485">
        <time>2018-04-24T00:29:53Z</time>
      </trkpt>
      <trkpt lat="52.0098" lon="5.89509">
        <time>2018-04-24T00:29:54Z</time>
      </trkpt>
      <trkpt lat="52.0098" lon="5.89509">
        <time>2018-04-24T00:29:54Z</time>
      </trkpt>
      <trkpt lat="52.01084" lon="5.89546">
        <time>2018-04-24T00:29:57Z</time>
      </trkpt>
      <trkpt lat="52.01092" lon="5.89546">
        <time>2018-04-24T00:29:58Z</time>
      </trkpt>
      <trkpt lat="52.01101" lon="5.89544">
        <time>2018-04-24T00:29:58Z</time>
      </trkpt>
      <trkpt lat="52.01164" lon="5.89528">
        <time>2018-04-24T00:29:59Z</time>
      </trkpt>
      <trkpt lat="52.01204" lon="5.89515">
        <time>2018-04-24T00:30:01Z</time>
      </trkpt>
      <trkpt lat="52.01473" lon="5.89433">
        <time>2018-04-24T00:30:08Z</time>
      </trkpt>
      <trkpt lat="52.01518" lon="5.89421">
        <time>2018-04-24T00:30:09Z</time>
      </trkpt>
      <trkpt lat="52.01735" lon="5.89356">
        <time>2018-04-24T00:30:15Z</time>
      </trkpt>
      <trkpt lat="52.02032" lon="5.89259">
        <time>2018-04-24T00:30:23Z</time>
      </trkpt>
      <trkpt lat="52.02166" lon="5.89216">
        <time>2018-04-24T00:30:26Z</time>
      </trkpt>
      <trkpt lat="52.02435" lon="5.89128">
        <time>2018-04-24T00:30:34Z</time>
      </trkpt>
      <trkpt lat="52.02776" lon="5.89015">
        <time>2018-04-24T00:30:43Z</time>
      </trkpt>
      <trkpt lat="52.03251" lon="5.88862">
        <time>2018-04-24T00:30:56Z</time>
      </trkpt>
      <trkpt lat="52.03419" lon="5.88809">
        <time>2018-04-24T00:31:00Z</time>
      </trkpt>
      <trkpt lat="52.03435" lon="5.88807">
        <time>2018-04-24T00:31:01Z</time>
      </trkpt>
      <trkpt lat="52.03451" lon="5.88805">
        <time>2018-04-24T00:31:01Z</time>
      </trkpt>
      <trkpt lat="52.03448" lon="5.88788">
        <time>2018-04-24T00:31:01Z</time>
      </trkpt>
      <trkpt lat="52.03411" lon="5.88551">
        <time>2018-04-24T00:31:05Z</time>
      </trkpt>
      <trkpt lat="52.03362" lon="5.88247">
        <time>2018-04-24T00:31:10Z</time>
      </trkpt>
      <trkpt lat="52.03294" lon="5.87807">
        <time>2018-04-24T00:31:18Z</time>
      </trkpt>
      <trkpt lat="52.03209" lon="5.87271">
        <time>2018-04-24T00:31:27Z</time>
      </trkpt>
      <trkpt lat="52.03194" lon="5.8718">
        <time>2018-04-24T00:31:28Z</time>
      </trkpt>
      <trkpt lat="52.03194" lon="5.87166">
        <time>2018-04-24T00:31:28Z</time>
      </trkpt>
      <trkpt lat="52.03184" lon="5.87089">
        <time>2018-04-24T00:31:30Z</time>
      </trkpt>
      <trkpt lat="52.03186" lon="5.87087">
        <time>2018-04-24T00:31:30Z</time>
      </trkpt>
      <trkpt lat="52.03188" lon="5.87083">
        <time>2018-04-24T00:31:30Z</time>
      </trkpt>
      <trkpt lat="52.0319" lon="5.87072">
        <time>2018-04-24T00:31:30Z</time>
      </trkpt>
      <trkpt lat="52.03189" lon="5.8706">
        <time>2018-04-24T00:31:30Z</time>
      </trkpt>
      <trkpt lat="52.03185" lon="5.87051">
        <time>2018-04-24T00:31:30Z</time>
      </trkpt>
      <trkpt lat="52.03182" lon="5.87048">
        <time>2018-04-24T00:31:31Z</time>
      </trkpt>
      <trkpt lat="52.0318" lon="5.87047">
        <time>2018-04-24T00:31:31Z</time>
      </trkpt>
      <trkpt lat="52.0318" lon="5.87047">
        <time>2018-04-24T00:31:31Z</time>
      </trkpt>
      <trkpt lat="52.03172" lon="5.87047">
        <time>2018-04-24T00:31:31Z</time>
      </trkpt>
      <trkpt lat="52.03165" lon="5.87053">
        <time>2018-04-24T00:31:31Z</time>
      </trkpt>
      <trkpt lat="52.03161" lon="5.87064">
        <time>2018-04-24T00:31:31Z</time>
      </trkpt>
      <trkpt lat="52.03161" lon="5.87067">
        <time>2018-04-24T00:31:31Z</time>
      </trkpt>
      <trkpt lat="52.03161" lon="5.87069">
        <time>2018-04-24T00:31:31Z</time>
      </trkpt>
      <trkpt lat="52.03153" lon="5.87074">
        <time>2018-04-24T00:31:32Z</time>
      </trkpt>
      <trkpt lat="52.03133" lon="5.87081">
        <time>2018-04-24T00:31:32Z</time>
      </trkpt>
      <trkpt lat="52.03126" lon="5.87084">
        <time>2018-04-24T00:31:32Z</time>
      </trkpt>
      <trkpt lat="52.03111" lon="5.87083">
        <time>2018-04-24T00:31:33Z</time>
      </trkpt>
      <trkpt lat="52.0306" lon="5.87082">
        <time>2018-04-24T00:31:34Z</time>
      </trkpt>
      <trkpt lat="52.03034" lon="5.87087">
        <time>2018-04-24T00:31:35Z</time>
      </trkpt>
      <trkpt lat="52.03034" lon="5.87087">
        <time>2018-04-24T00:31:35Z</time>
      </trkpt>
      <trkpt lat="52.02961" lon="5.87104">
        <time>2018-04-24T00:31:37Z</time>
      </trkpt>
      <trkpt lat="52.029" lon="5.87117">
        <time>2018-04-24T00:31:38Z</time>
      </trkpt>
      <trkpt lat="52.02903" lon="5.87137">
        <time>2018-04-24T00:31:39Z</time>
      </trkpt>
      <trkpt lat="52.02903" lon="5.8714">
        <time>2018-04-24T00:31:39Z</time>
      </trkpt>
      <trkpt lat="52.02903" lon="5.8714">
        <time>2018-04-24T00:31:39Z</time>
      </trkpt>
      <trkpt lat="52.02906" lon="5.87151">
        <time>2018-04-24T00:31:39Z</time>
      </trkpt>
      <trkpt lat="52.02904" lon="5.87166">
        <time>2018-04-24T00:31:39Z</time>
      </trkpt>
      <trkpt lat="52.02904" lon="5.872">
        <time>2018-04-24T00:31:40Z</time>
      </trkpt>
      <trkpt lat="52.02894" lon="5.87244">
        <time>2018-04-24T00:31:40Z</time>
      </trkpt>
      <trkpt lat="52.02881" lon="5.87267">
        <time>2018-04-24T00:31:41Z</time>
      </trkpt>
      <trkpt lat="52.0288" lon="5.87269">
        <time>2018-04-24T00:31:41Z</time>
      </trkpt>
      <trkpt lat="52.02865" lon="5.87274">
        <time>2018-04-24T00:31:41Z</time>
      </trkpt>
      <trkpt lat="52.02856" lon="5.87273">
        <time>2018-04-24T00:31:42Z</time>
      </trkpt>
      <trkpt lat="52.0284" lon="5.87274">
        <time>2018-04-24T00:31:42Z</time>
      </trkpt>
      <trkpt lat="52.02822" lon="5.87269">
        <time>2018-04-24T00:31:42Z</time>
      </trkpt>
      <trkpt lat="52.02795" lon="5.87237">
        <time>2018-04-24T00:31:43Z</time>
      </trkpt>
      <trkpt lat="52.02795" lon="5.87237">
        <time>2018-04-24T00:31:43Z</time>
      </trkpt>
      <trkpt lat="52.0277" lon="5.87203">
        <time>2018-04-24T00:31:44Z</time>
      </trkpt>
      <trkpt lat="52.02756" lon="5.87174">
        <time>2018-04-24T00:31:45Z</time>
      </trkpt>
      <trkpt lat="52.02749" lon="5.87155">
        <time>2018-04-24T00:31:45Z</time>
      </trkpt>
      <trkpt lat="52.02748" lon="5.87151">
        <time>2018-04-24T00:31:45Z</time>
      </trkpt>
      <trkpt lat="52.02777" lon="5.87144">
        <time>2018-04-24T00:31:46Z</time>
      </trkpt>
      <trkpt lat="52.02879" lon="5.87122">
        <time>2018-04-24T00:31:49Z</time>
      </trkpt>
      <trkpt lat="52.02879" lon="5.87122">
        <time>2018-04-24T00:31:49Z</time>
      </trkpt>
      <trkpt lat="52.03036" lon="5.87087">
        <time>2018-04-24T00:31:53Z</time>
      </trkpt>
      <trkpt lat="52.0306" lon="5.87082">
        <time>2018-04-24T00:31:54Z</time>
      </trkpt>
      <trkpt lat="52.03096" lon="5.87082">
        <time>2018-04-24T00:31:55Z</time>
      </trkpt>
      <trkpt lat="52.03126" lon="5.87084">
        <time>2018-04-24T00:31:55Z</time>
      </trkpt>
      <trkpt lat="52.03133" lon="5.87086">
        <time>2018-04-24T00:31:55Z</time>
      </trkpt>
      <trkpt lat="52.0315" lon="5.87085">
        <time>2018-04-24T00:31:56Z</time>
      </trkpt>
      <trkpt lat="52.03163" lon="5.87083">
        <time>2018-04-24T00:31:56Z</time>
      </trkpt>
      <trkpt lat="52.03166" lon="5.87088">
        <time>2018-04-24T00:31:56Z</time>
      </trkpt>
      <trkpt lat="52.03172" lon="5.87093">
        <time>2018-04-24T00:31:57Z</time>
      </trkpt>
      <trkpt lat="52.0318" lon="5.87092">
        <time>2018-04-24T00:31:57Z</time>
      </trkpt>
      <trkpt lat="52.03187" lon="5.87085">
        <time>2018-04-24T00:31:57Z</time>
      </trkpt>
      <trkpt lat="52.0319" lon="5.87074">
        <time>2018-04-24T00:31:57Z</time>
      </trkpt>
      <trkpt lat="52.0319" lon="5.87063">
        <time>2018-04-24T00:31:57Z</time>
      </trkpt>
      <trkpt lat="52.03186" lon="5.87053">
        <time>2018-04-24T00:31:58Z</time>
      </trkpt>
      <trkpt lat="52.0318" lon="5.87047">
        <time>2018-04-24T00:31:58Z</time>
      </trkpt>
      <trkpt lat="52.03179" lon="5.87038">
        <time>2018-04-24T00:31:58Z</time>
      </trkpt>
      <trkpt lat="52.03179" lon="5.87029">
        <time>2018-04-24T00:31:58Z</time>
      </trkpt>
      <trkpt lat="52.0318" lon="5.86983">
        <time>2018-04-24T00:31:59Z</time>
      </trkpt>
      <trkpt lat="52.03189" lon="5.86721">
        <time>2018-04-24T00:32:03Z</time>
      </trkpt>
      <trkpt lat="52.03229" lon="5.85615">
        <time>2018-04-24T00:32:21Z</time>
      </trkpt>
      <trkpt lat="52.03278" lon="5.8432">
        <time>2018-04-24T00:32:42Z</time>
      </trkpt>
      <trkpt lat="52.03302" lon="5.83662">
        <time>2018-04-24T00:32:53Z</time>
      </trkpt>
      <trkpt lat="52.0331" lon="5.83403">
        <time>2018-04-24T00:32:57Z</time>
      </trkpt>
      <trkpt lat="52.03314" lon="5.83356">
        <time>2018-04-24T00:32:58Z</time>
      </trkpt>
      <trkpt lat="52.03321" lon="5.83319">
        <time>2018-04-24T00:32:58Z</time>
      </trkpt>
      <trkpt lat="52.03443" lon="5.82686">
        <time>2018-04-24T00:33:09Z</time>
      </trkpt>
      <trkpt lat="52.03468" lon="5.82537">
        <time>2018-04-24T00:33:12Z</time>
      </trkpt>
      <trkpt lat="52.03483" lon="5.82428">
        <time>2018-04-24T00:33:14Z</time>
      </trkpt>
      <trkpt lat="52.03491" lon="5.82354">
        <time>2018-04-24T00:33:15Z</time>
      </trkpt>
      <trkpt lat="52.03496" lon="5.82281">
        <time>2018-04-24T00:33:16Z</time>
      </trkpt>
      <trkpt lat="52.0351" lon="5.82069">
        <time>2018-04-24T00:33:19Z</time>
      </trkpt>
      <trkpt lat="52.03523" lon="5.81767">
        <time>2018-04-24T00:33:24Z</time>
      </trkpt>
      <trkpt lat="52.03531" lon="5.81687">
        <time>2018-04-24T00:33:26Z</time>
      </trkpt>
      <trkpt lat="52.03537" lon="5.8165">
        <time>2018-04-24T00:33:26Z</time>
      </trkpt>
      <trkpt lat="52.0356" lon="5.81572">
        <time>2018-04-24T00:33:28Z</time>
      </trkpt>
      <trkpt lat="52.03582" lon="5.81514">
        <time>2018-04-24T00:33:29Z</time>
      </trkpt>
      <trkpt lat="52.03599" lon="5.81481">
        <time>2018-04-24T00:33:29Z</time>
      </trkpt>
      <trkpt lat="52.03613" lon="5.81457">
        <time>2018-04-24T00:33:30Z</time>
      </trkpt>
      <trkpt lat="52.03639" lon="5.81422">
        <time>2018-04-24T00:33:31Z</time>
      </trkpt>
      <trkpt lat="52.03658" lon="5.81399">
        <time>2018-04-24T00:33:32Z</time>
      </trkpt>
      <trkpt lat="52.03679" lon="5.8138">
        <time>2018-04-24T00:33:32Z</time>
      </trkpt>
      <trkpt lat="52.03718" lon="5.81352">
        <time>2018-04-24T00:33:33Z</time>
      </trkpt>
      <trkpt lat="52.03782" lon="5.81307">
        <time>2018-04-24T00:33:35Z</time>
      </trkpt>
      <trkpt lat="52.03838" lon="5.81271">
        <time>2018-04-24T00:33:37Z</time>
      </trkpt>
      <trkpt lat="52.03889" lon="5.81238">
        <time>2018-04-24T00:33:38Z</time>
      </trkpt>
      <trkpt lat="52.03928" lon="5.8121">
        <time>2018-04-24T00:33:39Z</time>
      </trkpt>
      <trkpt lat="52.04094" lon="5.8109">
        <time>2018-04-24T00:33:44Z</time>
      </trkpt>
      <trkpt lat="52.04183" lon="5.81034">
        <time>2018-04-24T00:33:47Z</time>
      </trkpt>
      <trkpt lat="52.04218" lon="5.81014">
        <time>2018-04-24T00:33:48Z</time>
      </trkpt>
      <trkpt lat="52.04264" lon="5.80983">
        <time>2018-04-24T00:33:49Z</time>
      </trkpt>
      <trkpt lat="52.04314" lon="5.8095">
        <time>2018-04-24T00:33:50Z</time>
      </trkpt>
      <trkpt lat="52.04398" lon="5.80902">
        <time>2018-04-24T00:33:53Z</time>
      </trkpt>
      <trkpt lat="52.04487" lon="5.80834">
        <time>2018-04-24T00:33:55Z</time>
      </trkpt>
      <trkpt lat="52.04583" lon="5.80756">
        <time>2018-04-24T00:33:58Z</time>
      </trkpt>
      <trkpt lat="52.04619" lon="5.80732">
        <time>2018-04-24T00:33:59Z</time>
      </trkpt>
      <trkpt lat="52.04692" lon="5.80688">
        <time>2018-04-24T00:34:01Z</time>
      </trkpt>
      <trkpt lat="52.04767" lon="5.80639">
        <time>2018-04-24T00:34:03Z</time>
      </trkpt>
      <trkpt lat="52.04847" lon="5.80592">
        <time>2018-04-24T00:34:06Z</time>
      </trkpt>
      <trkpt lat="52.05302" lon="5.80275">
        <time>2018-04-24T00:34:19Z</time>
      </trkpt>
      <trkpt lat="52.06083" lon="5.7973">
        <time>2018-04-24T00:34:41Z</time>
      </trkpt>
      <trkpt lat="52.06906" lon="5.79155">
        <time>2018-04-24T00:35:05Z</time>
      </trkpt>
      <trkpt lat="52.06906" lon="5.79155">
        <time>2018-04-24T00:35:05Z</time>
      </trkpt>
      <trkpt lat="52.072" lon="5.78949">
        <time>2018-04-24T00:35:13Z</time>
      </trkpt>
      <trkpt lat="52.07232" lon="5.78922">
        <time>2018-04-24T00:35:14Z</time>
      </trkpt>
      <trkpt lat="52.07258" lon="5.78896">
        <time>2018-04-24T00:35:15Z</time>
      </trkpt>
      <trkpt lat="52.07772" lon="5.7838">
        <time>2018-04-24T00:35:31Z</time>
      </trkpt>
      <trkpt lat="52.07871" lon="5.78281">
        <time>2018-04-24T00:35:34Z</time>
      </trkpt>
      <trkpt lat="52.08022" lon="5.78123">
        <time>2018-04-24T00:35:39Z</time>
      </trkpt>
      <trkpt lat="52.08133" lon="5.78013">
        <time>2018-04-24T00:35:42Z</time>
      </trkpt>
      <trkpt lat="52.08163" lon="5.77989">
        <time>2018-04-24T00:35:43Z</time>
      </trkpt>
      <trkpt lat="52.08193" lon="5.7797">
        <time>2018-04-24T00:35:44Z</time>
      </trkpt>
      <trkpt lat="52.08298" lon="5.77921">
        <time>2018-04-24T00:35:47Z</time>
      </trkpt>
      <trkpt lat="52.08371" lon="5.77882">
        <time>2018-04-24T00:35:49Z</time>
      </trkpt>
      <trkpt lat="52.08462" lon="5.7783">
        <time>2018-04-24T00:35:51Z</time>
      </trkpt>
      <trkpt lat="52.08526" lon="5.77784">
        <time>2018-04-24T00:35:53Z</time>
      </trkpt>
      <trkpt lat="52.08589" lon="5.77738">
        <time>2018-04-24T00:35:55Z</time>
      </trkpt>
      <trkpt lat="52.08634" lon="5.77713">
        <time>2018-04-24T00:35:56Z</time>
      </trkpt>
      <trkpt lat="52.08661" lon="5.77702">
        <time>2018-04-24T00:35:57Z</time>
      </trkpt>
      <trkpt lat="52.08989" lon="5.77552">
        <time>2018-04-24T00:36:06Z</time>
      </trkpt>
      <trkpt lat="52.09162" lon="5.77475">
        <time>2018-04-24T00:36:11Z</time>
      </trkpt>
      <trkpt lat="52.0926" lon="5.77432">
        <time>2018-04-24T00:36:13Z</time>
      </trkpt>
      <trkpt lat="52.09334" lon="5.77402">
        <time>2018-04-24T00:36:15Z</time>
      </trkpt>
      <trkpt lat="52.09356" lon="5.77395">
        <time>2018-04-24T00:36:16Z</time>
      </trkpt>
      <trkpt lat="52.09385" lon="5.77385">
        <time>2018-04-24T00:36:17Z</time>
      </trkpt>
      <trkpt lat="52.09409" lon="5.77375">
        <time>2018-04-24T00:36:17Z</time>
      </trkpt>
      <trkpt lat="52.09478" lon="5.77341">
        <time>2018-04-24T00:36:19Z</time>
      </trkpt>
      <trkpt lat="52.09683" lon="5.77253">
        <time>2018-04-24T00:36:25Z</time>
      </trkpt>
      <trkpt lat="52.09845" lon="5.77185">
        <time>2018-04-24T00:36:29Z</time>
      </trkpt>
      <trkpt lat="52.09878" lon="5.77171">
        <time>2018-04-24T00:36:30Z</time>
      </trkpt>
      <trkpt lat="52.09921" lon="5.77157">
        <time>2018-04-24T00:36:31Z</time>
      </trkpt>
      <trkpt lat="52.10002" lon="5.77146">
        <time>2018-04-24T00:36:34Z</time>
      </trkpt>
      <trkpt lat="52.10088" lon="5.77135">
        <time>2018-04-24T00:36:36Z</time>
      </trkpt>
      <trkpt lat="52.10097" lon="5.77134">
        <time>2018-04-24T00:36:36Z</time>
      </trkpt>
      <trkpt lat="52.10112" lon="5.77142">
        <time>2018-04-24T00:36:36Z</time>
      </trkpt>
      <trkpt lat="52.10134" lon="5.7717">
        <time>2018-04-24T00:36:37Z</time>
      </trkpt>
      <trkpt lat="52.10149" lon="5.77184">
        <time>2018-04-24T00:36:38Z</time>
      </trkpt>
      <trkpt lat="52.10157" lon="5.77188">
        <time>2018-04-24T00:36:38Z</time>
      </trkpt>
      <trkpt lat="52.10246" lon="5.77203">
        <time>2018-04-24T00:36:40Z</time>
      </trkpt>
      <trkpt lat="52.10252" lon="5.77203">
        <time>2018-04-24T00:36:40Z</time>
      </trkpt>
      <trkpt lat="52.10263" lon="5.77199">
        <time>2018-04-24T00:36:41Z</time>
      </trkpt>
      <trkpt lat="52.10274" lon="5.77193">
        <time>2018-04-24T00:36:41Z</time>
      </trkpt>
      <trkpt lat="52.10283" lon="5.77185">
        <time>2018-04-24T00:36:41Z</time>
      </trkpt>
      <trkpt lat="52.10294" lon="5.77168">
        <time>2018-04-24T00:36:42Z</time>
      </trkpt>
      <trkpt lat="52.10313" lon="5.77121">
        <time>2018-04-24T00:36:43Z</time>
      </trkpt>
      <trkpt lat="52.10344" lon="5.7703">
        <time>2018-04-24T00:36:44Z</time>
      </trkpt>
      <trkpt lat="52.10359" lon="5.77016">
        <time>2018-04-24T00:36:45Z</time>
      </trkpt>
      <trkpt lat="52.10362" lon="5.77018">
        <time>2018-04-24T00:36:45Z</time>
      </trkpt>
      <trkpt lat="52.10367" lon="5.77019">
        <time>2018-04-24T00:36:45Z</time>
      </trkpt>
      <trkpt lat="52.1037" lon="5.77018">
        <time>2018-04-24T00:36:45Z</time>
      </trkpt>
      <trkpt lat="52.10371" lon="5.77017">
        <time>2018-04-24T00:36:45Z</time>
      </trkpt>
      <trkpt lat="52.10379" lon="5.7703">
        <time>2018-04-24T00:36:45Z</time>
      </trkpt>
      <trkpt lat="52.10393" lon="5.77056">
        <time>2018-04-24T00:36:46Z</time>
      </trkpt>
      <trkpt lat="52.10399" lon="5.77061">
        <time>2018-04-24T00:36:46Z</time>
      </trkpt>
      <trkpt lat="52.10473" lon="5.77205">
        <time>2018-04-24T00:36:49Z</time>
      </trkpt>
      <trkpt lat="52.10549" lon="5.77351">
        <time>2018-04-24T00:36:52Z</time>
      </trkpt>
      <trkpt lat="52.10636" lon="5.77517">
        <time>2018-04-24T00:36:56Z</time>
      </trkpt>
      <trkpt lat="52.1066" lon="5.77556">
        <time>2018-04-24T00:36:57Z</time>
      </trkpt>
      <trkpt lat="52.10683" lon="5.77587">
        <time>2018-04-24T00:36:57Z</time>
      </trkpt>
      <trkpt lat="52.10708" lon="5.77618">
        <time>2018-04-24T00:36:58Z</time>
      </trkpt>
      <trkpt lat="52.1073" lon="5.7764">
        <time>2018-04-24T00:36:59Z</time>
      </trkpt>
      <trkpt lat="52.10779" lon="5.77685">
        <time>2018-04-24T00:37:00Z</time>
      </trkpt>
      <trkpt lat="52.10843" lon="5.77728">
        <time>2018-04-24T00:37:02Z</time>
      </trkpt>
      <trkpt lat="52.11061" lon="5.77859">
        <time>2018-04-24T00:37:08Z</time>
      </trkpt>
      <trkpt lat="52.11097" lon="5.77886">
        <time>2018-04-24T00:37:09Z</time>
      </trkpt>
      <trkpt lat="52.11119" lon="5.77911">
        <time>2018-04-24T00:37:10Z</time>
      </trkpt>
      <trkpt lat="52.1114" lon="5.77939">
        <time>2018-04-24T00:37:11Z</time>
      </trkpt>
      <trkpt lat="52.11389" lon="5.78355">
        <time>2018-04-24T00:37:20Z</time>
      </trkpt>
      <trkpt lat="52.11577" lon="5.78671">
        <time>2018-04-24T00:37:27Z</time>
      </trkpt>
      <trkpt lat="52.11948" lon="5.79352">
        <time>2018-04-24T00:37:42Z</time>
      </trkpt>
      <trkpt lat="52.12062" lon="5.79562">
        <time>2018-04-24T00:37:47Z</time>
      </trkpt>
      <trkpt lat="52.12084" lon="5.79607">
        <time>2018-04-24T00:37:48Z</time>
      </trkpt>
      <trkpt lat="52.12103" lon="5.79659">
        <time>2018-04-24T00:37:49Z</time>
      </trkpt>
      <trkpt lat="52.12115" lon="5.79713">
        <time>2018-04-24T00:37:50Z</time>
      </trkpt>
      <trkpt lat="52.12121" lon="5.79753">
        <time>2018-04-24T00:37:50Z</time>
      </trkpt>
      <trkpt lat="52.12126" lon="5.7983">
        <time>2018-04-24T00:37:52Z</time>
      </trkpt>
      <trkpt lat="52.12132" lon="5.80022">
        <time>2018-04-24T00:37:55Z</time>
      </trkpt>
      <trkpt lat="52.12136" lon="5.80422">
        <time>2018-04-24T00:38:01Z</time>
      </trkpt>
      <trkpt lat="52.12136" lon="5.80796">
        <time>2018-04-24T00:38:07Z</time>
      </trkpt>
      <trkpt lat="52.12132" lon="5.81397">
        <time>2018-04-24T00:38:17Z</time>
      </trkpt>
      <trkpt lat="52.12133" lon="5.81478">
        <time>2018-04-24T00:38:18Z</time>
      </trkpt>
      <trkpt lat="52.12137" lon="5.81556">
        <time>2018-04-24T00:38:19Z</time>
      </trkpt>
      <trkpt lat="52.12145" lon="5.81638">
        <time>2018-04-24T00:38:21Z</time>
      </trkpt>
      <trkpt lat="52.12208" lon="5.82135">
        <time>2018-04-24T00:38:29Z</time>
      </trkpt>
      <trkpt lat="52.12233" lon="5.82301">
        <time>2018-04-24T00:38:32Z</time>
      </trkpt>
      <trkpt lat="52.1225" lon="5.82383">
        <time>2018-04-24T00:38:33Z</time>
      </trkpt>
      <trkpt lat="52.12309" lon="5.8263">
        <time>2018-04-24T00:38:38Z</time>
      </trkpt>
      <trkpt lat="52.12431" lon="5.83148">
        <time>2018-04-24T00:38:47Z</time>
      </trkpt>
      <trkpt lat="52.12468" lon="5.83338">
        <time>2018-04-24T00:38:50Z</time>
      </trkpt>
      <trkpt lat="52.12672" lon="5.84386">
        <time>2018-04-24T00:39:08Z</time>
      </trkpt>
      <trkpt lat="52.12693" lon="5.84513">
        <time>2018-04-24T00:39:10Z</time>
      </trkpt>
      <trkpt lat="52.12697" lon="5.84597">
        <time>2018-04-24T00:39:11Z</time>
      </trkpt>
      <trkpt lat="52.12698" lon="5.84692">
        <time>2018-04-24T00:39:13Z</time>
      </trkpt>
      <trkpt lat="52.12697" lon="5.84787">
        <time>2018-04-24T00:39:14Z</time>
      </trkpt>
      <trkpt lat="52.12688" lon="5.84907">
        <time>2018-04-24T00:39:16Z</time>
      </trkpt>
      <trkpt lat="52.12628" lon="5.85609">
        <time>2018-04-24T00:39:28Z</time>
      </trkpt>
      <trkpt lat="52.12589" lon="5.86071">
        <time>2018-04-24T00:39:35Z</time>
      </trkpt>
      <trkpt lat="52.12549" lon="5.8648">
        <time>2018-04-24T00:39:42Z</time>
      </trkpt>
      <trkpt lat="52.12529" lon="5.86608">
        <time>2018-04-24T00:39:44Z</time>
      </trkpt>
      <trkpt lat="52.12498" lon="5.86733">
        <time>2018-04-24T00:39:46Z</time>
      </trkpt>
      <trkpt lat="52.12457" lon="5.8687">
        <time>2018-04-24T00:39:49Z</time>
      </trkpt>
      <trkpt lat="52.12435" lon="5.86951">
        <time>2018-04-24T00:39:50Z</time>
      </trkpt>
      <trkpt lat="52.12421" lon="5.87015">
        <time>2018-04-24T00:39:51Z</time>
      </trkpt>
      <trkpt lat="52.1241" lon="5.87076">
        <time>2018-04-24T00:39:52Z</time>
      </trkpt>
      <trkpt lat="52.12403" lon="5.87144">
        <time>2018-04-24T00:39:53Z</time>
      </trkpt>
      <trkpt lat="52.12399" lon="5.87216">
        <time>2018-04-24T00:39:55Z</time>
      </trkpt>
      <trkpt lat="52.12399" lon="5.87274">
        <time>2018-04-24T00:39:55Z</time>
      </trkpt>
      <trkpt lat="52.12403" lon="5.87337">
        <time>2018-04-24T00:39:56Z</time>
      </trkpt>
      <trkpt lat="52.12406" lon="5.87378">
        <time>2018-04-24T00:39:57Z</time>
      </trkpt>
      <trkpt lat="52.12409" lon="5.87405">
        <time>2018-04-24T00:39:58Z</time>
      </trkpt>
      <trkpt lat="52.12414" lon="5.87433">
        <time>2018-04-24T00:39:58Z</time>
      </trkpt>
      <trkpt lat="52.12433" lon="5.875">
        <time>2018-04-24T00:39:59Z</time>
      </trkpt>
      <trkpt lat="52.12454" lon="5.87548">
        <time>2018-04-24T00:40:00Z</time>
      </trkpt>
      <trkpt lat="52.12478" lon="5.87591">
        <time>2018-04-24T00:40:01Z</time>
      </trkpt>
      <trkpt lat="52.12502" lon="5.87622">
        <time>2018-04-24T00:40:02Z</time>
      </trkpt>
      <trkpt lat="52.12528" lon="5.8765">
        <time>2018-04-24T00:40:03Z</time>
      </trkpt>
      <trkpt lat="52.12546" lon="5.87665">
        <time>2018-04-24T00:40:03Z</time>
      </trkpt>
      <trkpt lat="52.12733" lon="5.87856">
        <time>2018-04-24T00:40:09Z</time>
      </trkpt>
      <trkpt lat="52.12783" lon="5.87898">
        <time>2018-04-24T00:40:11Z</time>
      </trkpt>
      <trkpt lat="52.12824" lon="5.87922">
        <time>2018-04-24T00:40:12Z</time>
      </trkpt>
      <trkpt lat="52.12871" lon="5.87942">
        <time>2018-04-24T00:40:13Z</time>
      </trkpt>
      <trkpt lat="52.12914" lon="5.87953">
        <time>2018-04-24T00:40:14Z</time>
      </trkpt>
      <trkpt lat="52.13106" lon="5.8798">
        <time>2018-04-24T00:40:19Z</time>
      </trkpt>
      <trkpt lat="52.13149" lon="5.87992">
        <time>2018-04-24T00:40:20Z</time>
      </trkpt>
      <trkpt lat="52.13219" lon="5.8803">
        <time>2018-04-24T00:40:22Z</time>
      </trkpt>
      <trkpt lat="52.1325" lon="5.88053">
        <time>2018-04-24T00:40:23Z</time>
      </trkpt>
      <trkpt lat="52.13281" lon="5.8808">
        <time>2018-04-24T00:40:24Z</time>
      </trkpt>
      <trkpt lat="52.13324" lon="5.88124">
        <time>2018-04-24T00:40:26Z</time>
      </trkpt>
      <trkpt lat="52.1369" lon="5.88519">
        <time>2018-04-24T00:40:37Z</time>
      </trkpt>
      <trkpt lat="52.13743" lon="5.88564">
        <time>2018-04-24T00:40:39Z</time>
      </trkpt>
      <trkpt lat="52.13762" lon="5.88573">
        <time>2018-04-24T00:40:39Z</time>
      </trkpt>
      <trkpt lat="52.13806" lon="5.88586">
        <time>2018-04-24T00:40:40Z</time>
      </trkpt>
      <trkpt lat="52.13872" lon="5.88593">
        <time>2018-04-24T00:40:42Z</time>
      </trkpt>
      <trkpt lat="52.14032" lon="5.88612">
        <time>2018-04-24T00:40:46Z</time>
      </trkpt>
      <trkpt lat="52.14561" lon="5.88654">
        <time>2018-04-24T00:41:00Z</time>
      </trkpt>
      <trkpt lat="52.14601" lon="5.88651">
        <time>2018-04-24T00:41:01Z</time>
      </trkpt>
      <trkpt lat="52.14647" lon="5.88638">
        <time>2018-04-24T00:41:03Z</time>
      </trkpt>
      <trkpt lat="52.14755" lon="5.88587">
        <time>2018-04-24T00:41:06Z</time>
      </trkpt>
      <trkpt lat="52.14755" lon="5.88587">
        <time>2018-04-24T00:41:06Z</time>
      </trkpt>
      <trkpt lat="52.14868" lon="5.88534">
        <time>2018-04-24T00:41:09Z</time>
      </trkpt>
      <trkpt lat="52.14892" lon="5.88528">
        <time>2018-04-24T00:41:09Z</time>
      </trkpt>
      <trkpt lat="52.14918" lon="5.88525">
        <time>2018-04-24T00:41:10Z</time>
      </trkpt>
      <trkpt lat="52.14962" lon="5.88534">
        <time>2018-04-24T00:41:11Z</time>
      </trkpt>
      <trkpt lat="52.15003" lon="5.88555">
        <time>2018-04-24T00:41:12Z</time>
      </trkpt>
      <trkpt lat="52.15022" lon="5.88569">
        <time>2018-04-24T00:41:13Z</time>
      </trkpt>
      <trkpt lat="52.15093" lon="5.88634">
        <time>2018-04-24T00:41:15Z</time>
      </trkpt>
      <trkpt lat="52.15363" lon="5.88892">
        <time>2018-04-24T00:41:23Z</time>
      </trkpt>
      <trkpt lat="52.15506" lon="5.89032">
        <time>2018-04-24T00:41:28Z</time>
      </trkpt>
      <trkpt lat="52.15755" lon="5.89274">
        <time>2018-04-24T00:41:35Z</time>
      </trkpt>
      <trkpt lat="52.15848" lon="5.8936">
        <time>2018-04-24T00:41:38Z</time>
      </trkpt>
      <trkpt lat="52.15913" lon="5.89427">
        <time>2018-04-24T00:41:40Z</time>
      </trkpt>
      <trkpt lat="52.15982" lon="5.89507">
        <time>2018-04-24T00:41:43Z</time>
      </trkpt>
      <trkpt lat="52.16037" lon="5.89578">
        <time>2018-04-24T00:41:44Z</time>
      </trkpt>
      <trkpt lat="52.16167" lon="5.89741">
        <time>2018-04-24T00:41:49Z</time>
      </trkpt>
      <trkpt lat="52.16269" lon="5.8987">
        <time>2018-04-24T00:41:52Z</time>
      </trkpt>
      <trkpt lat="52.16338" lon="5.89958">
        <time>2018-04-24T00:41:54Z</time>
      </trkpt>
      <trkpt lat="52.166" lon="5.90281">
        <time>2018-04-24T00:42:03Z</time>
      </trkpt>
      <trkpt lat="52.16684" lon="5.90388">
        <time>2018-04-24T00:42:06Z</time>
      </trkpt>
      <trkpt lat="52.16777" lon="5.90509">
        <time>2018-04-24T00:42:09Z</time>
      </trkpt>
      <trkpt lat="52.16791" lon="5.9053">
        <time>2018-04-24T00:42:10Z</time>
      </trkpt>
      <trkpt lat="52.16894" lon="5.90661">
        <time>2018-04-24T00:42:13Z</time>
      </trkpt>
      <trkpt lat="52.16979" lon="5.90769">
        <time>2018-04-24T00:42:16Z</time>
      </trkpt>
      <trkpt lat="52.17042" lon="5.90843">
        <time>2018-04-24T00:42:18Z</time>
      </trkpt>
      <trkpt lat="52.17042" lon="5.90843">
        <time>2018-04-24T00:42:18Z</time>
      </trkpt>
      <trkpt lat="52.17074" lon="5.90874">
        <time>2018-04-24T00:42:19Z</time>
      </trkpt>
      <trkpt lat="52.17159" lon="5.90956">
        <time>2018-04-24T00:42:21Z</time>
      </trkpt>
      <trkpt lat="52.17233" lon="5.91019">
        <time>2018-04-24T00:42:24Z</time>
      </trkpt>
      <trkpt lat="52.17303" lon="5.91072">
        <time>2018-04-24T00:42:26Z</time>
      </trkpt>
      <trkpt lat="52.17352" lon="5.91107">
        <time>2018-04-24T00:42:27Z</time>
      </trkpt>
      <trkpt lat="52.17499" lon="5.91197">
        <time>2018-04-24T00:42:31Z</time>
      </trkpt>
      <trkpt lat="52.17628" lon="5.91266">
        <time>2018-04-24T00:42:35Z</time>
      </trkpt>
      <trkpt lat="52.17658" lon="5.9128">
        <time>2018-04-24T00:42:36Z</time>
      </trkpt>
      <trkpt lat="52.17687" lon="5.91297">
        <time>2018-04-24T00:42:36Z</time>
      </trkpt>
      <trkpt lat="52.17959" lon="5.91427">
        <time>2018-04-24T00:42:44Z</time>
      </trkpt>
      <trkpt lat="52.18093" lon="5.91489">
        <time>2018-04-24T00:42:48Z</time>
      </trkpt>
      <trkpt lat="52.18093" lon="5.91489">
        <time>2018-04-24T00:42:48Z</time>
      </trkpt>
      <trkpt lat="52.18121" lon="5.91502">
        <time>2018-04-24T00:42:48Z</time>
      </trkpt>
      <trkpt lat="52.18318" lon="5.91587">
        <time>2018-04-24T00:42:54Z</time>
      </trkpt>
      <trkpt lat="52.18371" lon="5.91615">
        <time>2018-04-24T00:42:55Z</time>
      </trkpt>
      <trkpt lat="52.18419" lon="5.91644">
        <time>2018-04-24T00:42:57Z</time>
      </trkpt>
      <trkpt lat="52.1848" lon="5.9169">
        <time>2018-04-24T00:42:58Z</time>
      </trkpt>
      <trkpt lat="52.18545" lon="5.91745">
        <time>2018-04-24T00:43:00Z</time>
      </trkpt>
      <trkpt lat="52.18561" lon="5.91763">
        <time>2018-04-24T00:43:01Z</time>
      </trkpt>
      <trkpt lat="52.1857" lon="5.9177">
        <time>2018-04-24T00:43:01Z</time>
      </trkpt>
      <trkpt lat="52.18575" lon="5.91754">
        <time>2018-04-24T00:43:01Z</time>
      </trkpt>
      <trkpt lat="52.18583" lon="5.91722">
        <time>2018-04-24T00:43:02Z</time>
      </trkpt>
      <trkpt lat="52.1862" lon="5.91573">
        <time>2018-04-24T00:43:05Z</time>
      </trkpt>
      <trkpt lat="52.18627" lon="5.91536">
        <time>2018-04-24T00:43:05Z</time>
      </trkpt>
      <trkpt lat="52.18628" lon="5.91505">
        <time>2018-04-24T00:43:06Z</time>
      </trkpt>
      <trkpt lat="52.18621" lon="5.9129">
        <time>2018-04-24T00:43:09Z</time>
      </trkpt>
      <trkpt lat="52.18621" lon="5.9129">
        <time>2018-04-24T00:43:09Z</time>
      </trkpt>
      <trkpt lat="52.1856" lon="5.89582">
        <time>2018-04-24T00:43:37Z</time>
      </trkpt>
      <trkpt lat="52.18561" lon="5.8948">
        <time>2018-04-24T00:43:39Z</time>
      </trkpt>
      <trkpt lat="52.18564" lon="5.89429">
        <time>2018-04-24T00:43:39Z</time>
      </trkpt>
      <trkpt lat="52.18571" lon="5.89373">
        <time>2018-04-24T00:43:40Z</time>
      </trkpt>
      <trkpt lat="52.18584" lon="5.89308">
        <time>2018-04-24T00:43:41Z</time>
      </trkpt>
      <trkpt lat="52.18596" lon="5.89257">
        <time>2018-04-24T00:43:42Z</time>
      </trkpt>
      <trkpt lat="52.18652" lon="5.89079">
        <time>2018-04-24T00:43:45Z</time>
      </trkpt>
      <trkpt lat="52.18662" lon="5.8903">
        <time>2018-04-24T00:43:46Z</time>
      </trkpt>
      <trkpt lat="52.18666" lon="5.88997">
        <time>2018-04-24T00:43:47Z</time>
      </trkpt>
      <trkpt lat="52.18667" lon="5.88958">
        <time>2018-04-24T00:43:48Z</time>
      </trkpt>
      <trkpt lat="52.18665" lon="5.88914">
        <time>2018-04-24T00:43:48Z</time>
      </trkpt>
      <trkpt lat="52.18656" lon="5.88863">
        <time>2018-04-24T00:43:49Z</time>
      </trkpt>
      <trkpt lat="52.1864" lon="5.88814">
        <time>2018-04-24T00:43:50Z</time>
      </trkpt>
      <trkpt lat="52.18621" lon="5.88773">
        <time>2018-04-24T00:43:51Z</time>
      </trkpt>
      <trkpt lat="52.18602" lon="5.88744">
        <time>2018-04-24T00:43:51Z</time>
      </trkpt>
      <trkpt lat="52.18541" lon="5.88663">
        <time>2018-04-24T00:43:54Z</time>
      </trkpt>
      <trkpt lat="52.18474" lon="5.88573">
        <time>2018-04-24T00:43:56Z</time>
      </trkpt>
      <trkpt lat="52.18459" lon="5.88547">
        <time>2018-04-24T00:43:56Z</time>
      </trkpt>
      <trkpt lat="52.18448" lon="5.88523">
        <time>2018-04-24T00:43:57Z</time>
      </trkpt>
      <trkpt lat="52.18439" lon="5.88496">
        <time>2018-04-24T00:43:57Z</time>
      </trkpt>
      <trkpt lat="52.18431" lon="5.88465">
        <time>2018-04-24T00:43:58Z</time>
      </trkpt>
      <trkpt lat="52.18423" lon="5.8842">
        <time>2018-04-24T00:43:59Z</time>
      </trkpt>
      <trkpt lat="52.18403" lon="5.88216">
        <time>2018-04-24T00:44:02Z</time>
      </trkpt>
      <trkpt lat="52.18401" lon="5.88195">
        <time>2018-04-24T00:44:02Z</time>
      </trkpt>
      <trkpt lat="52.18401" lon="5.88195">
        <time>2018-04-24T00:44:02Z</time>
      </trkpt>
      <trkpt lat="52.18382" lon="5.87988">
        <time>2018-04-24T00:44:06Z</time>
      </trkpt>
      <trkpt lat="52.18373" lon="5.87909">
        <time>2018-04-24T00:44:07Z</time>
      </trkpt>
      <trkpt lat="52.18363" lon="5.87845">
        <time>2018-04-24T00:44:08Z</time>
      </trkpt>
      <trkpt lat="52.18248" lon="5.87355">
        <time>2018-04-24T00:44:17Z</time>
      </trkpt>
      <trkpt lat="52.18125" lon="5.86824">
        <time>2018-04-24T00:44:26Z</time>
      </trkpt>
      <trkpt lat="52.17996" lon="5.8626">
        <time>2018-04-24T00:44:36Z</time>
      </trkpt>
      <trkpt lat="52.17948" lon="5.86059">
        <time>2018-04-24T00:44:39Z</time>
      </trkpt>
      <trkpt lat="52.17909" lon="5.85904">
        <time>2018-04-24T00:44:42Z</time>
      </trkpt>
      <trkpt lat="52.17901" lon="5.8586">
        <time>2018-04-24T00:44:43Z</time>
      </trkpt>
      <trkpt lat="52.17892" lon="5.85796">
        <time>2018-04-24T00:44:44Z</time>
      </trkpt>
      <trkpt lat="52.17892" lon="5.85754">
        <time>2018-04-24T00:44:44Z</time>
      </trkpt>
      <trkpt lat="52.17896" lon="5.85722">
        <time>2018-04-24T00:44:45Z</time>
      </trkpt>
      <trkpt lat="52.17906" lon="5.85683">
        <time>2018-04-24T00:44:45Z</time>
      </trkpt>
      <trkpt lat="52.17917" lon="5.85653">
        <time>2018-04-24T00:44:46Z</time>
      </trkpt>
      <trkpt lat="52.18104" lon="5.85322">
        <time>2018-04-24T00:44:53Z</time>
      </trkpt>
      <trkpt lat="52.18116" lon="5.85289">
        <time>2018-04-24T00:44:54Z</time>
      </trkpt>
      <trkpt lat="52.18236" lon="5.85079">
        <time>2018-04-24T00:44:59Z</time>
      </trkpt>
      <trkpt lat="52.18268" lon="5.85009">
        <time>2018-04-24T00:45:00Z</time>
      </trkpt>
      <trkpt lat="52.18285" lon="5.8496">
        <time>2018-04-24T00:45:01Z</time>
      </trkpt>
      <trkpt lat="52.18326" lon="5.84816">
        <time>2018-04-24T00:45:04Z</time>
      </trkpt>
      <trkpt lat="52.18362" lon="5.84692">
        <time>2018-04-24T00:45:06Z</time>
      </trkpt>
      <trkpt lat="52.18377" lon="5.84631">
        <time>2018-04-24T00:45:07Z</time>
      </trkpt>
      <trkpt lat="52.18384" lon="5.84572">
        <time>2018-04-24T00:45:08Z</time>
      </trkpt>
      <trkpt lat="52.18385" lon="5.84537">
        <time>2018-04-24T00:45:08Z</time>
      </trkpt>
      <trkpt lat="52.18417" lon="5.84533">
        <time>2018-04-24T00:45:09Z</time>
      </trkpt>
      <trkpt lat="52.18486" lon="5.84525">
        <time>2018-04-24T00:45:11Z</time>
      </trkpt>
      <trkpt lat="52.18636" lon="5.84504">
        <time>2018-04-24T00:45:15Z</time>
      </trkpt>
      <trkpt lat="52.18636" lon="5.84504">
        <time>2018-04-24T00:45:15Z</time>
      </trkpt>
      <trkpt lat="52.18999" lon="5.84446">
        <time>2018-04-24T00:45:25Z</time>
      </trkpt>
      <trkpt lat="52.19094" lon="5.8443">
        <time>2018-04-24T00:45:27Z</time>
      </trkpt>
      <trkpt lat="52.19145" lon="5.84421">
        <time>2018-04-24T00:45:28Z</time>
      </trkpt>
      <trkpt lat="52.19219" lon="5.8441">
        <time>2018-04-24T00:45:30Z</time>
      </trkpt>
      <trkpt lat="52.19374" lon="5.84385">
        <time>2018-04-24T00:45:35Z</time>
      </trkpt>
      <trkpt lat="52.19405" lon="5.84378">
        <time>2018-04-24T00:45:35Z</time>
      </trkpt>
      <trkpt lat="52.19417" lon="5.84372">
        <time>2018-04-24T00:45:36Z</time>
      </trkpt>
      <trkpt lat="52.19493" lon="5.84318">
        <time>2018-04-24T00:45:38Z</time>
      </trkpt>
      <trkpt lat="52.19529" lon="5.84295">
        <time>2018-04-24T00:45:39Z</time>
      </trkpt>
      <trkpt lat="52.19735" lon="5.84225">
        <time>2018-04-24T00:45:44Z</time>
      </trkpt>
      <trkpt lat="52.19799" lon="5.84203">
        <time>2018-04-24T00:45:46Z</time>
      </trkpt>
      <trkpt lat="52.19814" lon="5.84194">
        <time>2018-04-24T00:45:47Z</time>
      </trkpt>
      <trkpt lat="52.19837" lon="5.8417">
        <time>2018-04-24T00:45:47Z</time>
      </trkpt>
      <trkpt lat="52.19846" lon="5.84158">
        <time>2018-04-24T00:45:48Z</time>
      </trkpt>
      <trkpt lat="52.19855" lon="5.84139">
        <time>2018-04-24T00:45:48Z</time>
      </trkpt>
      <trkpt lat="52.19873" lon="5.84096">
        <time>2018-04-24T00:45:49Z</time>
      </trkpt>
      <trkpt lat="52.19954" lon="5.83886">
        <time>2018-04-24T00:45:53Z</time>
      </trkpt>
      <trkpt lat="52.20014" lon="5.83734">
        <time>2018-04-24T00:45:56Z</time>
      </trkpt>
      <trkpt lat="52.20028" lon="5.8369">
        <time>2018-04-24T00:45:57Z</time>
      </trkpt>
      <trkpt lat="52.20032" lon="5.83674">
        <time>2018-04-24T00:45:57Z</time>
      </trkpt>
      <trkpt lat="52.20033" lon="5.83669">
        <time>2018-04-24T00:45:57Z</time>
      </trkpt>
      <trkpt lat="52.20037" lon="5.83664">
        <time>2018-04-24T00:45:57Z</time>
      </trkpt>
      <trkpt lat="52.20045" lon="5.83658">
        <time>2018-04-24T00:45:57Z</time>
      </trkpt>
      <trkpt lat="52.20048" lon="5.83656">
        <time>2018-04-24T00:45:57Z</time>
      </trkpt>
      <trkpt lat="52.20056" lon="5.83653">
        <time>2018-04-24T00:45:58Z</time>
      </trkpt>
      <trkpt lat="52.2007" lon="5.83658">
        <time>2018-04-24T00:45:58Z</time>
      </trkpt>
      <trkpt lat="52.20079" lon="5.83694">
        <time>2018-04-24T00:45:59Z</time>
      </trkpt>
      <trkpt lat="52.2009" lon="5.8376">
        <time>2018-04-24T00:46:00Z</time>
      </trkpt>
      <trkpt lat="52.20098" lon="5.8384">
        <time>2018-04-24T00:46:01Z</time>
      </trkpt>
      <trkpt lat="52.20114" lon="5.8404">
        <time>2018-04-24T00:46:04Z</time>
      </trkpt>
      <trkpt lat="52.20136" lon="5.84298">
        <time>2018-04-24T00:46:09Z</time>
      </trkpt>
      <trkpt lat="52.20147" lon="5.84383">
        <time>2018-04-24T00:46:10Z</time>
      </trkpt>
      <trkpt lat="52.20155" lon="5.84462">
        <time>2018-04-24T00:46:11Z</time>
      </trkpt>
      <trkpt lat="52.20155" lon="5.84462">
        <time>2018-04-24T00:46:11Z</time>
      </trkpt>
      <trkpt lat="52.20192" lon="5.8498">
        <time>2018-04-24T00:46:20Z</time>
      </trkpt>
      <trkpt lat="52.20197" lon="5.85128">
        <time>2018-04-24T00:46:22Z</time>
      </trkpt>
      <trkpt lat="52.20196" lon="5.85223">
        <time>2018-04-24T00:46:24Z</time>
      </trkpt>
      <trkpt lat="52.20197" lon="5.85289">
        <time>2018-04-24T00:46:25Z</time>
      </trkpt>
      <trkpt lat="52.20206" lon="5.85364">
        <time>2018-04-24T00:46:26Z</time>
      </trkpt>
      <trkpt lat="52.20219" lon="5.85427">
        <time>2018-04-24T00:46:27Z</time>
      </trkpt>
      <trkpt lat="52.20232" lon="5.85482">
        <time>2018-04-24T00:46:28Z</time>
      </trkpt>
      <trkpt lat="52.20274" lon="5.85625">
        <time>2018-04-24T00:46:31Z</time>
      </trkpt>
      <trkpt lat="52.20297" lon="5.85706">
        <time>2018-04-24T00:46:32Z</time>
      </trkpt>
      <trkpt lat="52.2031" lon="5.85734">
        <time>2018-04-24T00:46:33Z</time>
      </trkpt>
      <trkpt lat="52.20321" lon="5.85753">
        <time>2018-04-24T00:46:33Z</time>
      </trkpt>
      <trkpt lat="52.20333" lon="5.85766">
        <time>2018-04-24T00:46:33Z</time>
      </trkpt>
      <trkpt lat="52.20341" lon="5.85773">
        <time>2018-04-24T00:46:34Z</time>
      </trkpt>
      <trkpt lat="52.20381" lon="5.85794">
        <time>2018-04-24T00:46:35Z</time>
      </trkpt>
      <trkpt lat="52.20431" lon="5.85818">
        <time>2018-04-24T00:46:36Z</time>
      </trkpt>
      <trkpt lat="52.2045" lon="5.85833">
        <time>2018-04-24T00:46:37Z</time>
      </trkpt>
      <trkpt lat="52.20488" lon="5.85878">
        <time>2018-04-24T00:46:38Z</time>
      </trkpt>
      <trkpt lat="52.20506" lon="5.85898">
        <time>2018-04-24T00:46:38Z</time>
      </trkpt>
      <trkpt lat="52.20541" lon="5.85929">
        <time>2018-04-24T00:46:39Z</time>
      </trkpt>
      <trkpt lat="52.20558" lon="5.8594">
        <time>2018-04-24T00:46:40Z</time>
      </trkpt>
      <trkpt lat="52.20591" lon="5.85955">
        <time>2018-04-24T00:46:41Z</time>
      </trkpt>
      <trkpt lat="52.20619" lon="5.85965">
        <time>2018-04-24T00:46:42Z</time>
      </trkpt>
      <trkpt lat="52.20643" lon="5.85977">
        <time>2018-04-24T00:46:42Z</time>
      </trkpt>
      <trkpt lat="52.20668" lon="5.85997">
        <time>2018-04-24T00:46:43Z</time>
      </trkpt>
      <trkpt lat="52.20687" lon="5.86021">
        <time>2018-04-24T00:46:44Z</time>
      </trkpt>
      <trkpt lat="52.20706" lon="5.86053">
        <time>2018-04-24T00:46:44Z</time>
      </trkpt>
      <trkpt lat="52.20731" lon="5.861">
        <time>2018-04-24T00:46:45Z</time>
      </trkpt>
      <trkpt lat="52.20758" lon="5.86141">
        <time>2018-04-24T00:46:46Z</time>
      </trkpt>
      <trkpt lat="52.20795" lon="5.86189">
        <time>2018-04-24T00:46:48Z</time>
      </trkpt>
      <trkpt lat="52.20817" lon="5.86228">
        <time>2018-04-24T00:46:48Z</time>
      </trkpt>
      <trkpt lat="52.20839" lon="5.8628">
        <time>2018-04-24T00:46:50Z</time>
      </trkpt>
      <trkpt lat="52.2085" lon="5.8632">
        <time>2018-04-24T00:46:50Z</time>
      </trkpt>
      <trkpt lat="52.20854" lon="5.86342">
        <time>2018-04-24T00:46:51Z</time>
      </trkpt>
      <trkpt lat="52.20855" lon="5.86369">
        <time>2018-04-24T00:46:51Z</time>
      </trkpt>
      <trkpt lat="52.20853" lon="5.8643">
        <time>2018-04-24T00:46:52Z</time>
      </trkpt>
      <trkpt lat="52.20855" lon="5.86487">
        <time>2018-04-24T00:46:53Z</time>
      </trkpt>
      <trkpt lat="52.20865" lon="5.86531">
        <time>2018-04-24T00:46:54Z</time>
      </trkpt>
      <trkpt lat="52.20883" lon="5.86574">
        <time>2018-04-24T00:46:55Z</time>
      </trkpt>
      <trkpt lat="52.20898" lon="5.86601">
        <time>2018-04-24T00:46:55Z</time>
      </trkpt>
      <trkpt lat="52.20902" lon="5.86612">
        <time>2018-04-24T00:46:55Z</time>
      </trkpt>
      <trkpt lat="52.20904" lon="5.86631">
        <time>2018-04-24T00:46:56Z</time>
      </trkpt>
      <trkpt lat="52.20902" lon="5.86694">
        <time>2018-04-24T00:46:57Z</time>
      </trkpt>
      <trkpt lat="52.20902" lon="5.86731">
        <time>2018-04-24T00:46:57Z</time>
      </trkpt>
      <trkpt lat="52.20907" lon="5.86757">
        <time>2018-04-24T00:46:58Z</time>
      </trkpt>
      <trkpt lat="52.20921" lon="5.86801">
        <time>2018-04-24T00:46:59Z</time>
      </trkpt>
      <trkpt lat="52.20948" lon="5.86864">
        <time>2018-04-24T00:47:00Z</time>
      </trkpt>
      <trkpt lat="52.20984" lon="5.86938">
        <time>2018-04-24T00:47:01Z</time>
      </trkpt>
      <trkpt lat="52.21002" lon="5.86969">
        <time>2018-04-24T00:47:02Z</time>
      </trkpt>
      <trkpt lat="52.21029" lon="5.87009">
        <time>2018-04-24T00:47:03Z</time>
      </trkpt>
      <trkpt lat="52.21068" lon="5.87057">
        <time>2018-04-24T00:47:04Z</time>
      </trkpt>
      <trkpt lat="52.21081" lon="5.87067">
        <time>2018-04-24T00:47:05Z</time>
      </trkpt>
      <trkpt lat="52.21096" lon="5.87073">
        <time>2018-04-24T00:47:05Z</time>
      </trkpt>
      <trkpt lat="52.2112" lon="5.87074">
        <time>2018-04-24T00:47:06Z</time>
      </trkpt>
      <trkpt lat="52.21133" lon="5.87075">
        <time>2018-04-24T00:47:06Z</time>
      </trkpt>
      <trkpt lat="52.21146" lon="5.8708">
        <time>2018-04-24T00:47:06Z</time>
      </trkpt>
      <trkpt lat="52.21161" lon="5.87089">
        <time>2018-04-24T00:47:07Z</time>
      </trkpt>
      <trkpt lat="52.21202" lon="5.87113">
        <time>2018-04-24T00:47:08Z</time>
      </trkpt>
      <trkpt lat="52.21253" lon="5.87146">
        <time>2018-04-24T00:47:09Z</time>
      </trkpt>
      <trkpt lat="52.21268" lon="5.87165">
        <time>2018-04-24T00:47:10Z</time>
      </trkpt>
      <trkpt lat="52.21286" lon="5.87202">
        <time>2018-04-24T00:47:11Z</time>
      </trkpt>
      <trkpt lat="52.21311" lon="5.87272">
        <time>2018-04-24T00:47:12Z</time>
      </trkpt>
      <trkpt lat="52.21327" lon="5.87309">
        <time>2018-04-24T00:47:13Z</time>
      </trkpt>
      <trkpt lat="52.21351" lon="5.87336">
        <time>2018-04-24T00:47:13Z</time>
      </trkpt>
      <trkpt lat="52.21369" lon="5.87351">
        <time>2018-04-24T00:47:14Z</time>
      </trkpt>
      <trkpt lat="52.21394" lon="5.87365">
        <time>2018-04-24T00:47:15Z</time>
      </trkpt>
      <trkpt lat="52.21414" lon="5.87373">
        <time>2018-04-24T00:47:15Z</time>
      </trkpt>
      <trkpt lat="52.21458" lon="5.87384">
        <time>2018-04-24T00:47:16Z</time>
      </trkpt>
      <trkpt lat="52.21481" lon="5.87383">
        <time>2018-04-24T00:47:17Z</time>
      </trkpt>
      <trkpt lat="52.21496" lon="5.87378">
        <time>2018-04-24T00:47:17Z</time>
      </trkpt>
      <trkpt lat="52.21543" lon="5.87354">
        <time>2018-04-24T00:47:19Z</time>
      </trkpt>
      <trkpt lat="52.21657" lon="5.87306">
        <time>2018-04-24T00:47:22Z</time>
      </trkpt>
      <trkpt lat="52.21699" lon="5.87292">
        <time>2018-04-24T00:47:23Z</time>
      </trkpt>
      <trkpt lat="52.21734" lon="5.87292">
        <time>2018-04-24T00:47:24Z</time>
      </trkpt>
      <trkpt lat="52.21752" lon="5.87291">
        <time>2018-04-24T00:47:24Z</time>
      </trkpt>
      <trkpt lat="52.21801" lon="5.8729">
        <time>2018-04-24T00:47:26Z</time>
      </trkpt>
      <trkpt lat="52.21814" lon="5.87294">
        <time>2018-04-24T00:47:26Z</time>
      </trkpt>
      <trkpt lat="52.21825" lon="5.87301">
        <time>2018-04-24T00:47:26Z</time>
      </trkpt>
      <trkpt lat="52.21842" lon="5.87321">
        <time>2018-04-24T00:47:27Z</time>
      </trkpt>
      <trkpt lat="52.21849" lon="5.8734">
        <time>2018-04-24T00:47:27Z</time>
      </trkpt>
      <trkpt lat="52.21853" lon="5.87367">
        <time>2018-04-24T00:47:28Z</time>
      </trkpt>
      <trkpt lat="52.21856" lon="5.87413">
        <time>2018-04-24T00:47:28Z</time>
      </trkpt>
      <trkpt lat="52.21861" lon="5.87485">
        <time>2018-04-24T00:47:30Z</time>
      </trkpt>
      <trkpt lat="52.21863" lon="5.87626">
        <time>2018-04-24T00:47:32Z</time>
      </trkpt>
      <trkpt lat="52.21869" lon="5.87714">
        <time>2018-04-24T00:47:33Z</time>
      </trkpt>
      <trkpt lat="52.21879" lon="5.87778">
        <time>2018-04-24T00:47:34Z</time>
      </trkpt>
      <trkpt lat="52.21903" lon="5.87861">
        <time>2018-04-24T00:47:36Z</time>
      </trkpt>
      <trkpt lat="52.21915" lon="5.87929">
        <time>2018-04-24T00:47:37Z</time>
      </trkpt>
      <trkpt lat="52.21918" lon="5.88002">
        <time>2018-04-24T00:47:38Z</time>
      </trkpt>
      <trkpt lat="52.21918" lon="5.88002">
        <time>2018-04-24T00:47:38Z</time>
      </trkpt>
      <trkpt lat="52.2192" lon="5.88079">
        <time>2018-04-24T00:47:39Z</time>
      </trkpt>
      <trkpt lat="52.21941" lon="5.88065">
        <time>2018-04-24T00:47:40Z</time>
      </trkpt>
      <trkpt lat="52.22011" lon="5.88041">
        <time>2018-04-24T00:47:42Z</time>
      </trkpt>
      <trkpt lat="52.22148" lon="5.87999">
        <time>2018-04-24T00:47:46Z</time>
      </trkpt>
      <trkpt lat="52.22166" lon="5.87992">
        <time>2018-04-24T00:47:46Z</time>
      </trkpt>
      <trkpt lat="52.22197" lon="5.87963">
        <time>2018-04-24T00:47:47Z</time>
      </trkpt>
      <trkpt lat="52.22245" lon="5.87921">
        <time>2018-04-24T00:47:48Z</time>
      </trkpt>
      <trkpt lat="52.2229" lon="5.87886">
        <time>2018-04-24T00:47:50Z</time>
      </trkpt>
      <trkpt lat="52.22359" lon="5.87827">
        <time>2018-04-24T00:47:52Z</time>
      </trkpt>
      <trkpt lat="52.22391" lon="5.87794">
        <time>2018-04-24T00:47:53Z</time>
      </trkpt>
      <trkpt lat="52.22465" lon="5.87707">
        <time>2018-04-24T00:47:55Z</time>
      </trkpt>
      <trkpt lat="52.22498" lon="5.87663">
        <time>2018-04-24T00:47:56Z</time>
      </trkpt>
      <trkpt lat="52.22528" lon="5.87612">
        <time>2018-04-24T00:47:57Z</time>
      </trkpt>
      <trkpt lat="52.22561" lon="5.87539">
        <time>2018-04-24T00:47:59Z</time>
      </trkpt>
      <trkpt lat="52.22561" lon="5.87539">
        <time>2018-04-24T00:47:59Z</time>
      </trkpt>
      <trkpt lat="52.22631" lon="5.87348">
        <time>2018-04-24T00:48:03Z</time>
      </trkpt>
      <trkpt lat="52.22665" lon="5.87268">
        <time>2018-04-24T00:48:04Z</time>
      </trkpt>
      <trkpt lat="52.22689" lon="5.87217">
        <time>2018-04-24T00:48:05Z</time>
      </trkpt>
      <trkpt lat="52.22751" lon="5.87102">
        <time>2018-04-24T00:48:08Z</time>
      </trkpt>
      <trkpt lat="52.22773" lon="5.87064">
        <time>2018-04-24T00:48:08Z</time>
      </trkpt>
      <trkpt lat="52.22905" lon="5.8687">
        <time>2018-04-24T00:48:13Z</time>
      </trkpt>
      <trkpt lat="52.2295" lon="5.86804">
        <time>2018-04-24T00:48:15Z</time>
      </trkpt>
      <trkpt lat="52.22989" lon="5.86746">
        <time>2018-04-24T00:48:16Z</time>
      </trkpt>
      <trkpt lat="52.23069" lon="5.86606">
        <time>2018-04-24T00:48:19Z</time>
      </trkpt>
      <trkpt lat="52.23102" lon="5.86549">
        <time>2018-04-24T00:48:21Z</time>
      </trkpt>
      <trkpt lat="52.23112" lon="5.86526">
        <time>2018-04-24T00:48:21Z</time>
      </trkpt>
      <trkpt lat="52.23158" lon="5.86424">
        <time>2018-04-24T00:48:23Z</time>
      </trkpt>
      <trkpt lat="52.232" lon="5.86324">
        <time>2018-04-24T00:48:25Z</time>
      </trkpt>
      <trkpt lat="52.23205" lon="5.86311">
        <time>2018-04-24T00:48:25Z</time>
      </trkpt>
      <trkpt lat="52.23205" lon="5.86311">
        <time>2018-04-24T00:48:25Z</time>
      </trkpt>
      <trkpt lat="52.2321" lon="5.86299">
        <time>2018-04-24T00:48:25Z</time>
      </trkpt>
      <trkpt lat="52.23221" lon="5.86284">
        <time>2018-04-24T00:48:26Z</time>
      </trkpt>
      <trkpt lat="52.23231" lon="5.86278">
        <time>2018-04-24T00:48:26Z</time>
      </trkpt>
      <trkpt lat="52.23231" lon="5.86271">
        <time>2018-04-24T00:48:26Z</time>
      </trkpt>
      <trkpt lat="52.23226" lon="5.8624">
        <time>2018-04-24T00:48:27Z</time>
      </trkpt>
      <trkpt lat="52.232" lon="5.86095">
        <time>2018-04-24T00:48:29Z</time>
      </trkpt>
      <trkpt lat="52.23155" lon="5.85911">
        <time>2018-04-24T00:48:32Z</time>
      </trkpt>
      <trkpt lat="52.2311" lon="5.8574">
        <time>2018-04-24T00:48:35Z</time>
      </trkpt>
      <trkpt lat="52.23046" lon="5.8549">
        <time>2018-04-24T00:48:40Z</time>
      </trkpt>
      <trkpt lat="52.22878" lon="5.84844">
        <time>2018-04-24T00:48:51Z</time>
      </trkpt>
      <trkpt lat="52.22813" lon="5.84597">
        <time>2018-04-24T00:48:56Z</time>
      </trkpt>
      <trkpt lat="52.22781" lon="5.84491">
        <time>2018-04-24T00:48:57Z</time>
      </trkpt>
      <trkpt lat="52.22677" lon="5.84172">
        <time>2018-04-24T00:49:03Z</time>
      </trkpt>
      <trkpt lat="52.22602" lon="5.83939">
        <time>2018-04-24T00:49:08Z</time>
      </trkpt>
      <trkpt lat="52.22599" lon="5.83922">
        <time>2018-04-24T00:49:08Z</time>
      </trkpt>
      <trkpt lat="52.22575" lon="5.8385">
        <time>2018-04-24T00:49:09Z</time>
      </trkpt>
      <trkpt lat="52.22559" lon="5.83801">
        <time>2018-04-24T00:49:10Z</time>
      </trkpt>
      <trkpt lat="52.22544" lon="5.83757">
        <time>2018-04-24T00:49:11Z</time>
      </trkpt>
      <trkpt lat="52.22504" lon="5.83636">
        <time>2018-04-24T00:49:13Z</time>
      </trkpt>
      <trkpt lat="52.22441" lon="5.83443">
        <time>2018-04-24T00:49:17Z</time>
      </trkpt>
      <trkpt lat="52.22364" lon="5.83202">
        <time>2018-04-24T00:49:21Z</time>
      </trkpt>
      <trkpt lat="52.22331" lon="5.83065">
        <time>2018-04-24T00:49:23Z</time>
      </trkpt>
      <trkpt lat="52.22331" lon="5.83065">
        <time>2018-04-24T00:49:23Z</time>
      </trkpt>
      <trkpt lat="52.22309" lon="5.82951">
        <time>2018-04-24T00:49:25Z</time>
      </trkpt>
      <trkpt lat="52.22296" lon="5.8285">
        <time>2018-04-24T00:49:27Z</time>
      </trkpt>
      <trkpt lat="52.22288" lon="5.82765">
        <time>2018-04-24T00:49:28Z</time>
      </trkpt>
      <trkpt lat="52.22284" lon="5.82686">
        <time>2018-04-24T00:49:30Z</time>
      </trkpt>
      <trkpt lat="52.22277" lon="5.82488">
        <time>2018-04-24T00:49:33Z</time>
      </trkpt>
      <trkpt lat="52.22261" lon="5.82042">
        <time>2018-04-24T00:49:40Z</time>
      </trkpt>
      <trkpt lat="52.22221" lon="5.80968">
        <time>2018-04-24T00:49:57Z</time>
      </trkpt>
      <trkpt lat="52.22169" lon="5.79516">
        <time>2018-04-24T00:50:21Z</time>
      </trkpt>
      <trkpt lat="52.22143" lon="5.78795">
        <time>2018-04-24T00:50:33Z</time>
      </trkpt>
      <trkpt lat="52.22143" lon="5.78795">
        <time>2018-04-24T00:50:33Z</time>
      </trkpt>
      <trkpt lat="52.22143" lon="5.78795">
        <time>2018-04-24T00:50:33Z</time>
      </trkpt>
      <trkpt lat="52.22143" lon="5.78795">
        <time>2018-04-24T00:50:33Z</time>
      </trkpt>
      <trkpt lat="52.22112" lon="5.77992">
        <time>2018-04-24T00:50:46Z</time>
      </trkpt>
      <trkpt lat="52.22113" lon="5.77973">
        <time>2018-04-24T00:50:46Z</time>
      </trkpt>
      <trkpt lat="52.22113" lon="5.77884">
        <time>2018-04-24T00:50:47Z</time>
      </trkpt>
      <trkpt lat="52.22116" lon="5.77881">
        <time>2018-04-24T00:50:48Z</time>
      </trkpt>
      <trkpt lat="52.2212" lon="5.77872">
        <time>2018-04-24T00:50:48Z</time>
      </trkpt>
      <trkpt lat="52.2212" lon="5.7786">
        <time>2018-04-24T00:50:48Z</time>
      </trkpt>
      <trkpt lat="52.22117" lon="5.77851">
        <time>2018-04-24T00:50:48Z</time>
      </trkpt>
      <trkpt lat="52.22112" lon="5.77846">
        <time>2018-04-24T00:50:48Z</time>
      </trkpt>
      <trkpt lat="52.2211" lon="5.77845">
        <time>2018-04-24T00:50:48Z</time>
      </trkpt>
      <trkpt lat="52.22107" lon="5.77746">
        <time>2018-04-24T00:50:50Z</time>
      </trkpt>
      <trkpt lat="52.22104" lon="5.77731">
        <time>2018-04-24T00:50:50Z</time>
      </trkpt>
      <trkpt lat="52.22101" lon="5.7763">
        <time>2018-04-24T00:50:52Z</time>
      </trkpt>
      <trkpt lat="52.2209" lon="5.77349">
        <time>2018-04-24T00:50:56Z</time>
      </trkpt>
      <trkpt lat="52.22073" lon="5.7685">
        <time>2018-04-24T00:51:04Z</time>
      </trkpt>
      <trkpt lat="52.22053" lon="5.76332">
        <time>2018-04-24T00:51:13Z</time>
      </trkpt>
      <trkpt lat="52.22018" lon="5.75381">
        <time>2018-04-24T00:51:28Z</time>
      </trkpt>
      <trkpt lat="52.21962" lon="5.73885">
        <time>2018-04-24T00:51:52Z</time>
      </trkpt>
      <trkpt lat="52.21926" lon="5.7296">
        <time>2018-04-24T00:52:07Z</time>
      </trkpt>
      <trkpt lat="52.21918" lon="5.728">
        <time>2018-04-24T00:52:10Z</time>
      </trkpt>
      <trkpt lat="52.2191" lon="5.72714">
        <time>2018-04-24T00:52:11Z</time>
      </trkpt>
      <trkpt lat="52.21907" lon="5.72697">
        <time>2018-04-24T00:52:12Z</time>
      </trkpt>
      <trkpt lat="52.21907" lon="5.72697">
        <time>2018-04-24T00:52:12Z</time>
      </trkpt>
      <trkpt lat="52.21893" lon="5.72623">
        <time>2018-04-24T00:52:13Z</time>
      </trkpt>
      <trkpt lat="52.21852" lon="5.72479">
        <time>2018-04-24T00:52:16Z</time>
      </trkpt>
      <trkpt lat="52.21741" lon="5.72095">
        <time>2018-04-24T00:52:22Z</time>
      </trkpt>
      <trkpt lat="52.21615" lon="5.71657">
        <time>2018-04-24T00:52:30Z</time>
      </trkpt>
      <trkpt lat="52.21428" lon="5.71003">
        <time>2018-04-24T00:52:42Z</time>
      </trkpt>
      <trkpt lat="52.21407" lon="5.70925">
        <time>2018-04-24T00:52:43Z</time>
      </trkpt>
      <trkpt lat="52.21375" lon="5.70793">
        <time>2018-04-24T00:52:46Z</time>
      </trkpt>
      <trkpt lat="52.21375" lon="5.70793">
        <time>2018-04-24T00:52:46Z</time>
      </trkpt>
      <trkpt lat="52.21359" lon="5.70723">
        <time>2018-04-24T00:52:47Z</time>
      </trkpt>
      <trkpt lat="52.21344" lon="5.70661">
        <time>2018-04-24T00:52:48Z</time>
      </trkpt>
      <trkpt lat="52.21343" lon="5.70644">
        <time>2018-04-24T00:52:48Z</time>
      </trkpt>
      <trkpt lat="52.21346" lon="5.70635">
        <time>2018-04-24T00:52:48Z</time>
      </trkpt>
      <trkpt lat="52.21346" lon="5.70625">
        <time>2018-04-24T00:52:48Z</time>
      </trkpt>
      <trkpt lat="52.21343" lon="5.70616">
        <time>2018-04-24T00:52:49Z</time>
      </trkpt>
      <trkpt lat="52.21337" lon="5.7061">
        <time>2018-04-24T00:52:49Z</time>
      </trkpt>
      <trkpt lat="52.21334" lon="5.7061">
        <time>2018-04-24T00:52:49Z</time>
      </trkpt>
      <trkpt lat="52.21333" lon="5.7061">
        <time>2018-04-24T00:52:49Z</time>
      </trkpt>
      <trkpt lat="52.21327" lon="5.70597">
        <time>2018-04-24T00:52:49Z</time>
      </trkpt>
      <trkpt lat="52.21306" lon="5.70531">
        <time>2018-04-24T00:52:50Z</time>
      </trkpt>
      <trkpt lat="52.21288" lon="5.70476">
        <time>2018-04-24T00:52:51Z</time>
      </trkpt>
      <trkpt lat="52.21248" lon="5.70359">
        <time>2018-04-24T00:52:54Z</time>
      </trkpt>
      <trkpt lat="52.21223" lon="5.70285">
        <time>2018-04-24T00:52:55Z</time>
      </trkpt>
      <trkpt lat="52.21153" lon="5.7004">
        <time>2018-04-24T00:52:59Z</time>
      </trkpt>
      <trkpt lat="52.20994" lon="5.69489">
        <time>2018-04-24T00:53:09Z</time>
      </trkpt>
      <trkpt lat="52.20401" lon="5.67421">
        <time>2018-04-24T00:53:46Z</time>
      </trkpt>
      <trkpt lat="52.19915" lon="5.65727">
        <time>2018-04-24T00:54:16Z</time>
      </trkpt>
      <trkpt lat="52.19609" lon="5.64625">
        <time>2018-04-24T00:54:36Z</time>
      </trkpt>
      <trkpt lat="52.19088" lon="5.62748">
        <time>2018-04-24T00:55:09Z</time>
      </trkpt>
      <trkpt lat="52.19007" lon="5.62453">
        <time>2018-04-24T00:55:15Z</time>
      </trkpt>
      <trkpt lat="52.18992" lon="5.62377">
        <time>2018-04-24T00:55:16Z</time>
      </trkpt>
      <trkpt lat="52.18982" lon="5.62297">
        <time>2018-04-24T00:55:17Z</time>
      </trkpt>
      <trkpt lat="52.1897" lon="5.6213">
        <time>2018-04-24T00:55:20Z</time>
      </trkpt>
      <trkpt lat="52.18967" lon="5.62066">
        <time>2018-04-24T00:55:21Z</time>
      </trkpt>
      <trkpt lat="52.1896" lon="5.61967">
        <time>2018-04-24T00:55:23Z</time>
      </trkpt>
      <trkpt lat="52.18949" lon="5.61877">
        <time>2018-04-24T00:55:24Z</time>
      </trkpt>
      <trkpt lat="52.18918" lon="5.61681">
        <time>2018-04-24T00:55:27Z</time>
      </trkpt>
      <trkpt lat="52.1891" lon="5.61635">
        <time>2018-04-24T00:55:28Z</time>
      </trkpt>
      <trkpt lat="52.1891" lon="5.61635">
        <time>2018-04-24T00:55:28Z</time>
      </trkpt>
      <trkpt lat="52.18855" lon="5.61334">
        <time>2018-04-24T00:55:33Z</time>
      </trkpt>
      <trkpt lat="52.18846" lon="5.61297">
        <time>2018-04-24T00:55:34Z</time>
      </trkpt>
      <trkpt lat="52.18823" lon="5.61212">
        <time>2018-04-24T00:55:35Z</time>
      </trkpt>
      <trkpt lat="52.18776" lon="5.61063">
        <time>2018-04-24T00:55:38Z</time>
      </trkpt>
      <trkpt lat="52.18755" lon="5.60993">
        <time>2018-04-24T00:55:39Z</time>
      </trkpt>
      <trkpt lat="52.18735" lon="5.60899">
        <time>2018-04-24T00:55:41Z</time>
      </trkpt>
      <trkpt lat="52.18727" lon="5.60851">
        <time>2018-04-24T00:55:42Z</time>
      </trkpt>
      <trkpt lat="52.18715" lon="5.6078">
        <time>2018-04-24T00:55:43Z</time>
      </trkpt>
      <trkpt lat="52.18707" lon="5.60711">
        <time>2018-04-24T00:55:44Z</time>
      </trkpt>
      <trkpt lat="52.18702" lon="5.60623">
        <time>2018-04-24T00:55:45Z</time>
      </trkpt>
      <trkpt lat="52.18694" lon="5.60573">
        <time>2018-04-24T00:55:46Z</time>
      </trkpt>
      <trkpt lat="52.18685" lon="5.60542">
        <time>2018-04-24T00:55:47Z</time>
      </trkpt>
      <trkpt lat="52.1867" lon="5.60504">
        <time>2018-04-24T00:55:48Z</time>
      </trkpt>
      <trkpt lat="52.18649" lon="5.60469">
        <time>2018-04-24T00:55:48Z</time>
      </trkpt>
      <trkpt lat="52.1863" lon="5.60445">
        <time>2018-04-24T00:55:49Z</time>
      </trkpt>
      <trkpt lat="52.18568" lon="5.60381">
        <time>2018-04-24T00:55:51Z</time>
      </trkpt>
      <trkpt lat="52.18548" lon="5.60337">
        <time>2018-04-24T00:55:52Z</time>
      </trkpt>
      <trkpt lat="52.18549" lon="5.60334">
        <time>2018-04-24T00:55:52Z</time>
      </trkpt>
      <trkpt lat="52.1855" lon="5.60326">
        <time>2018-04-24T00:55:52Z</time>
      </trkpt>
      <trkpt lat="52.18549" lon="5.60319">
        <time>2018-04-24T00:55:52Z</time>
      </trkpt>
      <trkpt lat="52.18542" lon="5.60309">
        <time>2018-04-24T00:55:52Z</time>
      </trkpt>
      <trkpt lat="52.18537" lon="5.60308">
        <time>2018-04-24T00:55:52Z</time>
      </trkpt>
      <trkpt lat="52.18535" lon="5.60308">
        <time>2018-04-24T00:55:53Z</time>
      </trkpt>
      <trkpt lat="52.18515" lon="5.60267">
        <time>2018-04-24T00:55:53Z</time>
      </trkpt>
      <trkpt lat="52.18495" lon="5.60225">
        <time>2018-04-24T00:55:54Z</time>
      </trkpt>
      <trkpt lat="52.18489" lon="5.60218">
        <time>2018-04-24T00:55:54Z</time>
      </trkpt>
      <trkpt lat="52.18483" lon="5.60211">
        <time>2018-04-24T00:55:55Z</time>
      </trkpt>
      <trkpt lat="52.1848" lon="5.60203">
        <time>2018-04-24T00:55:55Z</time>
      </trkpt>
      <trkpt lat="52.18477" lon="5.60195">
        <time>2018-04-24T00:55:55Z</time>
      </trkpt>
      <trkpt lat="52.1847" lon="5.60201">
        <time>2018-04-24T00:55:55Z</time>
      </trkpt>
      <trkpt lat="52.18404" lon="5.60029">
        <time>2018-04-24T00:55:58Z</time>
      </trkpt>
      <trkpt lat="52.18413" lon="5.60022">
        <time>2018-04-24T00:55:59Z</time>
      </trkpt>
      <trkpt lat="52.18438" lon="5.60089">
        <time>2018-04-24T00:56:00Z</time>
      </trkpt>
      <trkpt lat="52.1847" lon="5.60176">
        <time>2018-04-24T00:56:02Z</time>
      </trkpt>
      <trkpt lat="52.1848" lon="5.60203">
        <time>2018-04-24T00:56:02Z</time>
      </trkpt>
      <trkpt lat="52.18488" lon="5.60233">
        <time>2018-04-24T00:56:03Z</time>
      </trkpt>
      <trkpt lat="52.18413" lon="5.60022">
        <time>2018-04-24T00:56:07Z</time>
      </trkpt>
      <trkpt lat="52.18312" lon="5.59741">
        <time>2018-04-24T00:56:12Z</time>
      </trkpt>
      <trkpt lat="52.18231" lon="5.59503">
        <time>2018-04-24T00:56:16Z</time>
      </trkpt>
      <trkpt lat="52.18024" lon="5.58807">
        <time>2018-04-24T00:56:29Z</time>
      </trkpt>
      <trkpt lat="52.1782" lon="5.58105">
        <time>2018-04-24T00:56:41Z</time>
      </trkpt>
      <trkpt lat="52.17598" lon="5.57352">
        <time>2018-04-24T00:56:55Z</time>
      </trkpt>
      <trkpt lat="52.17586" lon="5.57296">
        <time>2018-04-24T00:56:56Z</time>
      </trkpt>
      <trkpt lat="52.17589" lon="5.57287">
        <time>2018-04-24T00:56:56Z</time>
      </trkpt>
      <trkpt lat="52.17588" lon="5.5727">
        <time>2018-04-24T00:56:56Z</time>
      </trkpt>
      <trkpt lat="52.17585" lon="5.57262">
        <time>2018-04-24T00:56:56Z</time>
      </trkpt>
      <trkpt lat="52.1758" lon="5.57257">
        <time>2018-04-24T00:56:57Z</time>
      </trkpt>
      <trkpt lat="52.17574" lon="5.57254">
        <time>2018-04-24T00:56:57Z</time>
      </trkpt>
      <trkpt lat="52.17555" lon="5.572">
        <time>2018-04-24T00:56:58Z</time>
      </trkpt>
      <trkpt lat="52.17552" lon="5.57196">
        <time>2018-04-24T00:56:58Z</time>
      </trkpt>
      <trkpt lat="52.17393" lon="5.56655">
        <time>2018-04-24T00:57:08Z</time>
      </trkpt>
      <trkpt lat="52.17393" lon="5.56655">
        <time>2018-04-24T00:57:08Z</time>
      </trkpt>
      <trkpt lat="52.17195" lon="5.55982">
        <time>2018-04-24T00:57:20Z</time>
      </trkpt>
      <trkpt lat="52.17139" lon="5.55792">
        <time>2018-04-24T00:57:23Z</time>
      </trkpt>
      <trkpt lat="52.17138" lon="5.55784">
        <time>2018-04-24T00:57:23Z</time>
      </trkpt>
      <trkpt lat="52.1712" lon="5.55715">
        <time>2018-04-24T00:57:24Z</time>
      </trkpt>
      <trkpt lat="52.17122" lon="5.5571">
        <time>2018-04-24T00:57:25Z</time>
      </trkpt>
      <trkpt lat="52.17123" lon="5.55705">
        <time>2018-04-24T00:57:25Z</time>
      </trkpt>
      <trkpt lat="52.17123" lon="5.55693">
        <time>2018-04-24T00:57:25Z</time>
      </trkpt>
      <trkpt lat="52.17119" lon="5.55684">
        <time>2018-04-24T00:57:25Z</time>
      </trkpt>
      <trkpt lat="52.17113" lon="5.55678">
        <time>2018-04-24T00:57:25Z</time>
      </trkpt>
      <trkpt lat="52.17109" lon="5.55678">
        <time>2018-04-24T00:57:25Z</time>
      </trkpt>
      <trkpt lat="52.1709" lon="5.55623">
        <time>2018-04-24T00:57:26Z</time>
      </trkpt>
      <trkpt lat="52.17086" lon="5.55618">
        <time>2018-04-24T00:57:26Z</time>
      </trkpt>
      <trkpt lat="52.17081" lon="5.556">
        <time>2018-04-24T00:57:27Z</time>
      </trkpt>
      <trkpt lat="52.17007" lon="5.55343">
        <time>2018-04-24T00:57:31Z</time>
      </trkpt>
      <trkpt lat="52.16996" lon="5.55307">
        <time>2018-04-24T00:57:32Z</time>
      </trkpt>
      <trkpt lat="52.16849" lon="5.54807">
        <time>2018-04-24T00:57:41Z</time>
      </trkpt>
      <trkpt lat="52.16814" lon="5.54693">
        <time>2018-04-24T00:57:43Z</time>
      </trkpt>
      <trkpt lat="52.16741" lon="5.54434">
        <time>2018-04-24T00:57:48Z</time>
      </trkpt>
      <trkpt lat="52.16681" lon="5.5414">
        <time>2018-04-24T00:57:53Z</time>
      </trkpt>
      <trkpt lat="52.16662" lon="5.54051">
        <time>2018-04-24T00:57:54Z</time>
      </trkpt>
      <trkpt lat="52.16637" lon="5.53954">
        <time>2018-04-24T00:57:56Z</time>
      </trkpt>
      <trkpt lat="52.16616" lon="5.5389">
        <time>2018-04-24T00:57:57Z</time>
      </trkpt>
      <trkpt lat="52.16558" lon="5.53721">
        <time>2018-04-24T00:58:00Z</time>
      </trkpt>
      <trkpt lat="52.16485" lon="5.53507">
        <time>2018-04-24T00:58:04Z</time>
      </trkpt>
      <trkpt lat="52.1645" lon="5.53404">
        <time>2018-04-24T00:58:06Z</time>
      </trkpt>
      <trkpt lat="52.16452" lon="5.53389">
        <time>2018-04-24T00:58:06Z</time>
      </trkpt>
      <trkpt lat="52.16459" lon="5.53375">
        <time>2018-04-24T00:58:07Z</time>
      </trkpt>
      <trkpt lat="52.16465" lon="5.53365">
        <time>2018-04-24T00:58:07Z</time>
      </trkpt>
      <trkpt lat="52.16476" lon="5.53339">
        <time>2018-04-24T00:58:07Z</time>
      </trkpt>
      <trkpt lat="52.16488" lon="5.5326">
        <time>2018-04-24T00:58:09Z</time>
      </trkpt>
      <trkpt lat="52.16521" lon="5.53096">
        <time>2018-04-24T00:58:11Z</time>
      </trkpt>
      <trkpt lat="52.16562" lon="5.52794">
        <time>2018-04-24T00:58:16Z</time>
      </trkpt>
      <trkpt lat="52.16566" lon="5.52736">
        <time>2018-04-24T00:58:17Z</time>
      </trkpt>
      <trkpt lat="52.16532" lon="5.52547">
        <time>2018-04-24T00:58:21Z</time>
      </trkpt>
      <trkpt lat="52.16494" lon="5.52327">
        <time>2018-04-24T00:58:24Z</time>
      </trkpt>
      <trkpt lat="52.16476" lon="5.52223">
        <time>2018-04-24T00:58:26Z</time>
      </trkpt>
      <trkpt lat="52.16461" lon="5.52161">
        <time>2018-04-24T00:58:27Z</time>
      </trkpt>
      <trkpt lat="52.16425" lon="5.51994">
        <time>2018-04-24T00:58:30Z</time>
      </trkpt>
      <trkpt lat="52.16419" lon="5.5194">
        <time>2018-04-24T00:58:31Z</time>
      </trkpt>
      <trkpt lat="52.16411" lon="5.51874">
        <time>2018-04-24T00:58:32Z</time>
      </trkpt>
      <trkpt lat="52.16387" lon="5.51806">
        <time>2018-04-24T00:58:33Z</time>
      </trkpt>
      <trkpt lat="52.16352" lon="5.51738">
        <time>2018-04-24T00:58:35Z</time>
      </trkpt>
      <trkpt lat="52.16316" lon="5.51694">
        <time>2018-04-24T00:58:36Z</time>
      </trkpt>
      <trkpt lat="52.16309" lon="5.51669">
        <time>2018-04-24T00:58:36Z</time>
      </trkpt>
      <trkpt lat="52.16309" lon="5.516">
        <time>2018-04-24T00:58:37Z</time>
      </trkpt>
      <trkpt lat="52.16308" lon="5.5154">
        <time>2018-04-24T00:58:38Z</time>
      </trkpt>
      <trkpt lat="52.1631" lon="5.51525">
        <time>2018-04-24T00:58:39Z</time>
      </trkpt>
      <trkpt lat="52.16344" lon="5.51446">
        <time>2018-04-24T00:58:40Z</time>
      </trkpt>
      <trkpt lat="52.16391" lon="5.51341">
        <time>2018-04-24T00:58:42Z</time>
      </trkpt>
      <trkpt lat="52.16428" lon="5.5126">
        <time>2018-04-24T00:58:44Z</time>
      </trkpt>
      <trkpt lat="52.16445" lon="5.51225">
        <time>2018-04-24T00:58:45Z</time>
      </trkpt>
      <trkpt lat="52.16494" lon="5.51154">
        <time>2018-04-24T00:58:46Z</time>
      </trkpt>
      <trkpt lat="52.16531" lon="5.51091">
        <time>2018-04-24T00:58:48Z</time>
      </trkpt>
      <trkpt lat="52.16547" lon="5.51053">
        <time>2018-04-24T00:58:49Z</time>
      </trkpt>
      <trkpt lat="52.16553" lon="5.51033">
        <time>2018-04-24T00:58:49Z</time>
      </trkpt>
      <trkpt lat="52.16572" lon="5.50934">
        <time>2018-04-24T00:58:51Z</time>
      </trkpt>
      <trkpt lat="52.16592" lon="5.50835">
        <time>2018-04-24T00:58:52Z</time>
      </trkpt>
      <trkpt lat="52.16621" lon="5.50712">
        <time>2018-04-24T00:58:54Z</time>
      </trkpt>
      <trkpt lat="52.16674" lon="5.50478">
        <time>2018-04-24T00:58:58Z</time>
      </trkpt>
      <trkpt lat="52.16674" lon="5.50443">
        <time>2018-04-24T00:58:59Z</time>
      </trkpt>
      <trkpt lat="52.16675" lon="5.50362">
        <time>2018-04-24T00:59:00Z</time>
      </trkpt>
      <trkpt lat="52.16689" lon="5.50279">
        <time>2018-04-24T00:59:02Z</time>
      </trkpt>
      <trkpt lat="52.16718" lon="5.50133">
        <time>2018-04-24T00:59:04Z</time>
      </trkpt>
      <trkpt lat="52.1673" lon="5.50024">
        <time>2018-04-24T00:59:06Z</time>
      </trkpt>
      <trkpt lat="52.16739" lon="5.49875">
        <time>2018-04-24T00:59:08Z</time>
      </trkpt>
      <trkpt lat="52.1674" lon="5.49816">
        <time>2018-04-24T00:59:09Z</time>
      </trkpt>
      <trkpt lat="52.16734" lon="5.49679">
        <time>2018-04-24T00:59:12Z</time>
      </trkpt>
      <trkpt lat="52.16734" lon="5.49651">
        <time>2018-04-24T00:59:12Z</time>
      </trkpt>
      <trkpt lat="52.16741" lon="5.49621">
        <time>2018-04-24T00:59:13Z</time>
      </trkpt>
      <trkpt lat="52.16871" lon="5.49332">
        <time>2018-04-24T00:59:18Z</time>
      </trkpt>
      <trkpt lat="52.17005" lon="5.49053">
        <time>2018-04-24T00:59:24Z</time>
      </trkpt>
      <trkpt lat="52.17048" lon="5.48956">
        <time>2018-04-24T00:59:26Z</time>
      </trkpt>
      <trkpt lat="52.17138" lon="5.48686">
        <time>2018-04-24T00:59:31Z</time>
      </trkpt>
      <trkpt lat="52.1715" lon="5.48638">
        <time>2018-04-24T00:59:32Z</time>
      </trkpt>
      <trkpt lat="52.17151" lon="5.48586">
        <time>2018-04-24T00:59:33Z</time>
      </trkpt>
      <trkpt lat="52.17153" lon="5.48543">
        <time>2018-04-24T00:59:33Z</time>
      </trkpt>
      <trkpt lat="52.17159" lon="5.48505">
        <time>2018-04-24T00:59:34Z</time>
      </trkpt>
      <trkpt lat="52.17165" lon="5.48488">
        <time>2018-04-24T00:59:34Z</time>
      </trkpt>
      <trkpt lat="52.1718699" lon="5.484638">
        <time>2018-04-24T00:59:35Z</time>
      </trkpt>
      <trkpt lat="52.17198" lon="5.48461">
        <time>2018-04-24T00:59:35Z</time>
      </trkpt>
      <trkpt lat="52.17222" lon="5.48463">
        <time>2018-04-24T00:59:36Z</time>
      </trkpt>
      <trkpt lat="52.17266" lon="5.48465">
        <time>2018-04-24T00:59:37Z</time>
      </trkpt>
      <trkpt lat="52.17289" lon="5.48468">
        <time>2018-04-24T00:59:38Z</time>
      </trkpt>
      <trkpt lat="52.17311" lon="5.48477">
        <time>2018-04-24T00:59:38Z</time>
      </trkpt>
      <trkpt lat="52.17326" lon="5.48488">
        <time>2018-04-24T00:59:39Z</time>
      </trkpt>
      <trkpt lat="52.17346" lon="5.48496">
        <time>2018-04-24T00:59:39Z</time>
      </trkpt>
      <trkpt lat="52.17374" lon="5.48495">
        <time>2018-04-24T00:59:40Z</time>
      </trkpt>
      <trkpt lat="52.17393" lon="5.48486">
        <time>2018-04-24T00:59:41Z</time>
      </trkpt>
      <trkpt lat="52.1746" lon="5.48452">
        <time>2018-04-24T00:59:42Z</time>
      </trkpt>
      <trkpt lat="52.17474" lon="5.48425">
        <time>2018-04-24T00:59:43Z</time>
      </trkpt>
      <trkpt lat="52.17478" lon="5.48389">
        <time>2018-04-24T00:59:44Z</time>
      </trkpt>
      <trkpt lat="52.17481" lon="5.48334">
        <time>2018-04-24T00:59:45Z</time>
      </trkpt>
      <trkpt lat="52.17494" lon="5.48229">
        <time>2018-04-24T00:59:46Z</time>
      </trkpt>
      <trkpt lat="52.1752232" lon="5.4804246">
        <time>2018-04-24T00:59:49Z</time>
      </trkpt>
      <trkpt lat="52.1752964" lon="5.4793617">
        <time>2018-04-24T00:59:51Z</time>
      </trkpt>
      <trkpt lat="52.1753626" lon="5.4784054">
        <time>2018-04-24T00:59:53Z</time>
      </trkpt>
      <trkpt lat="52.17537" lon="5.47696">
        <time>2018-04-24T00:59:55Z</time>
      </trkpt>
      <trkpt lat="52.1753809" lon="5.4765964">
        <time>2018-04-24T00:59:56Z</time>
      </trkpt>
      <trkpt lat="52.1754" lon="5.4765197">
        <time>2018-04-24T00:59:56Z</time>
      </trkpt>
      <trkpt lat="52.1756325" lon="5.4765075">
        <time>2018-04-24T00:59:56Z</time>
      </trkpt>
    </trkseg>
  </trk>
</gpx>

